Time,TemperatureF,DewpointF,PressureIn,WindDirection,WindDirectionDegrees,WindSpeedMPH,WindSpeedGustMPH,Humidity,HourlyPrecipIn,Conditions,Clouds,dailyrainin,SoftwareType,DateUTC
2013-03-25 00:00:00,27.3,21.1,28.88,NNW,338,5.8,8.5,77,0.00,,---,0.00,VWS V14.01,2013-03-25 05:00:00,
2013-03-25 00:01:00,27.3,21.1,28.88,NNE,22,6.7,10.3,77,0.00,,---,0.00,VWS V14.01,2013-03-25 05:01:00,
2013-03-25 00:02:00,27.3,21.1,28.88,North,0,6.3,8.7,77,0.00,,---,0.00,VWS V14.01,2013-03-25 05:02:00,
2013-03-25 00:03:00,27.3,21.1,28.88,NNE,22,3.4,6.9,77,0.00,,---,0.00,VWS V14.01,2013-03-25 05:03:00,
2013-03-25 00:04:00,27.3,21.1,28.88,North,0,7.4,7.4,77,0.00,,---,0.00,VWS V14.01,2013-03-25 05:04:00,
2013-03-25 00:05:00,27.3,21.1,28.88,North,0,6.5,7.6,77,0.00,,---,0.00,VWS V14.01,2013-03-25 05:05:00,
2013-03-25 00:06:00,27.3,20.8,28.88,North,0,6.3,6.3,76,0.00,,---,0.00,VWS V14.01,2013-03-25 05:06:00,
2013-03-25 00:07:00,27.3,20.8,28.88,NNE,22,6.5,6.5,76,0.00,,---,0.00,VWS V14.01,2013-03-25 05:07:00,
2013-03-25 00:08:00,27.3,20.8,28.88,NNW,338,5.6,8.7,76,0.00,,---,0.00,VWS V14.01,2013-03-25 05:08:00,
2013-03-25 00:09:00,27.3,20.8,28.85,WNW,292,5.8,6.5,76,0.00,,---,0.00,VWS V14.01,2013-03-25 05:09:00,
2013-03-25 00:10:00,27.5,20.9,28.85,North,0,6.0,7.8,76,0.00,,---,0.00,VWS V14.01,2013-03-25 05:10:00,
2013-03-25 00:11:00,27.5,20.9,28.85,North,0,8.1,10.1,76,0.00,,---,0.00,VWS V14.01,2013-03-25 05:11:00,
2013-03-25 00:12:00,27.5,20.9,28.85,NNW,338,6.5,9.8,76,0.00,,---,0.00,VWS V14.01,2013-03-25 05:12:00,
2013-03-25 00:13:00,27.5,20.9,28.85,NNE,22,8.7,8.7,76,0.00,,---,0.00,VWS V14.01,2013-03-25 05:13:00,
2013-03-25 00:14:00,27.5,20.9,28.85,NNE,22,3.1,8.7,76,0.00,,---,0.00,VWS V14.01,2013-03-25 05:14:00,
2013-03-25 00:16:00,27.5,20.9,28.85,NNE,22,7.6,7.6,76,0.00,,---,0.00,VWS V14.01,2013-03-25 05:16:00,
2013-03-25 00:17:00,27.5,20.9,28.85,NNW,338,4.0,7.6,76,0.00,,---,0.00,VWS V14.01,2013-03-25 05:17:00,
2013-03-25 00:18:00,27.5,20.9,28.85,NNW,338,6.3,6.3,76,0.00,,---,0.00,VWS V14.01,2013-03-25 05:18:00,
2013-03-25 00:19:00,27.5,20.9,28.85,NNW,338,7.2,7.2,76,0.00,,---,0.00,VWS V14.01,2013-03-25 05:19:00,
2013-03-25 00:20:00,27.5,20.9,28.85,NNE,22,6.0,7.2,76,0.00,,---,0.00,VWS V14.01,2013-03-25 05:20:00,
2013-03-25 00:21:00,27.5,20.9,28.85,North,0,6.3,6.3,76,0.00,,---,0.00,VWS V14.01,2013-03-25 05:21:00,
2013-03-25 00:22:00,27.5,20.9,28.85,NNW,338,5.8,6.3,76,0.00,,---,0.00,VWS V14.01,2013-03-25 05:22:00,
2013-03-25 00:23:00,27.5,20.9,28.85,NNW,338,8.7,8.7,76,0.00,,---,0.00,VWS V14.01,2013-03-25 05:23:00,
2013-03-25 00:24:00,27.5,20.9,28.85,North,0,8.1,8.7,76,0.00,,---,0.00,VWS V14.01,2013-03-25 05:24:00,
2013-03-25 00:25:00,27.5,20.9,28.85,NNE,22,8.7,8.7,76,0.00,,---,0.00,VWS V14.01,2013-03-25 05:25:00,
2013-03-25 00:26:00,27.5,20.9,28.85,NNE,22,3.4,8.7,76,0.00,,---,0.00,VWS V14.01,2013-03-25 05:26:00,
2013-03-25 00:27:00,27.5,20.9,28.85,North,0,6.0,9.8,76,0.00,,---,0.00,VWS V14.01,2013-03-25 05:27:00,
2013-03-25 00:29:00,27.5,20.9,28.85,NNW,338,6.0,6.0,76,0.00,,---,0.00,VWS V14.01,2013-03-25 05:29:00,
2013-03-25 00:30:00,27.5,20.9,28.85,NNE,22,5.4,10.5,76,0.00,,---,0.00,VWS V14.01,2013-03-25 05:30:00,
2013-03-25 00:31:00,27.5,20.9,28.85,NNW,338,5.4,5.4,76,0.00,,---,0.00,VWS V14.01,2013-03-25 05:31:00,
2013-03-25 00:32:00,27.5,20.9,28.85,NNW,338,4.9,6.5,76,0.00,,---,0.00,VWS V14.01,2013-03-25 05:32:00,
2013-03-25 00:33:00,27.5,20.9,28.85,North,0,6.5,7.8,76,0.00,,---,0.00,VWS V14.01,2013-03-25 05:33:00,
2013-03-25 00:34:00,27.5,20.9,28.85,North,0,7.8,8.5,76,0.00,,---,0.00,VWS V14.01,2013-03-25 05:34:00,
2013-03-25 00:35:00,27.5,21.2,28.85,North,0,6.3,7.8,77,0.00,,---,0.00,VWS V14.01,2013-03-25 05:35:00,
2013-03-25 00:36:00,27.5,21.2,28.85,NNW,338,3.4,6.3,77,0.00,,---,0.00,VWS V14.01,2013-03-25 05:36:00,
2013-03-25 00:37:00,27.5,21.2,28.85,North,0,4.3,6.3,77,0.00,,---,0.00,VWS V14.01,2013-03-25 05:37:00,
2013-03-25 00:38:00,27.5,21.2,28.85,NNW,338,5.6,6.0,77,0.00,,---,0.00,VWS V14.01,2013-03-25 05:38:00,
2013-03-25 00:39:00,27.5,21.2,28.88,NNW,338,5.8,6.0,77,0.00,,---,0.00,VWS V14.01,2013-03-25 05:39:00,
2013-03-25 00:40:00,27.5,21.2,28.88,NNW,338,3.4,5.8,77,0.00,,---,0.00,VWS V14.01,2013-03-25 05:40:00,
2013-03-25 00:41:00,27.5,21.2,28.88,WNW,292,4.3,7.4,77,0.00,,---,0.00,VWS V14.01,2013-03-25 05:41:00,
2013-03-25 00:42:00,27.5,21.2,28.88,NW,315,6.7,7.4,77,0.00,,---,0.00,VWS V14.01,2013-03-25 05:42:00,
2013-03-25 00:43:00,27.5,21.2,28.88,NNE,22,4.9,6.9,77,0.00,,---,0.00,VWS V14.01,2013-03-25 05:43:00,
2013-03-25 00:44:00,27.5,21.2,28.88,NNW,338,7.6,7.6,77,0.00,,---,0.00,VWS V14.01,2013-03-25 05:44:00,
2013-03-25 00:45:00,27.5,21.2,28.88,NNE,22,8.5,8.5,77,0.00,,---,0.00,VWS V14.01,2013-03-25 05:45:00,
2013-03-25 00:46:00,27.5,21.2,28.88,WNW,292,4.9,8.5,77,0.00,,---,0.00,VWS V14.01,2013-03-25 05:46:00,
2013-03-25 00:47:00,27.5,21.2,28.88,NNW,338,4.3,8.1,77,0.00,,---,0.00,VWS V14.01,2013-03-25 05:47:00,
2013-03-25 00:48:00,27.5,21.2,28.88,NNE,22,6.5,6.5,77,0.00,,---,0.00,VWS V14.01,2013-03-25 05:48:00,
2013-03-25 00:49:00,27.5,20.9,28.88,NNW,338,4.9,6.5,76,0.00,,---,0.00,VWS V14.01,2013-03-25 05:49:00,
2013-03-25 00:50:00,27.5,20.9,28.88,NNE,22,4.9,7.4,76,0.00,,---,0.00,VWS V14.01,2013-03-25 05:50:00,
2013-03-25 00:51:00,27.5,21.2,28.88,NNW,338,7.6,7.6,77,0.00,,---,0.00,VWS V14.01,2013-03-25 05:51:00,
2013-03-25 00:52:00,27.5,21.2,28.88,NNW,338,3.6,7.6,77,0.00,,---,0.00,VWS V14.01,2013-03-25 05:52:00,
2013-03-25 00:53:00,27.5,21.2,28.88,NNE,22,4.0,4.9,77,0.00,,---,0.00,VWS V14.01,2013-03-25 05:53:00,
2013-03-25 00:54:00,27.5,21.2,28.85,NNE,22,4.0,4.0,77,0.00,,---,0.00,VWS V14.01,2013-03-25 05:54:00,
2013-03-25 00:55:00,27.5,21.2,28.85,NNW,338,4.0,4.0,77,0.00,,---,0.00,VWS V14.01,2013-03-25 05:55:00,
2013-03-25 00:56:00,27.5,21.2,28.85,North,0,3.1,5.4,77,0.00,,---,0.00,VWS V14.01,2013-03-25 05:56:00,
2013-03-25 00:57:00,27.5,21.2,28.85,North,0,3.1,5.4,77,0.00,,---,0.00,VWS V14.01,2013-03-25 05:57:00,
2013-03-25 00:58:00,27.5,21.2,28.85,NNW,338,3.8,7.4,77,0.00,,---,0.00,VWS V14.01,2013-03-25 05:58:00,
2013-03-25 00:59:00,27.3,21.1,28.85,North,0,5.4,7.2,77,0.00,,---,0.00,VWS V14.01,2013-03-25 05:59:00,
2013-03-25 01:00:00,27.3,21.1,28.85,NNE,22,8.1,8.1,77,0.00,,---,0.00,VWS V14.01,2013-03-25 06:00:00,
2013-03-25 01:01:00,27.3,21.1,28.85,NNW,338,8.1,8.1,77,0.00,,---,0.00,VWS V14.01,2013-03-25 06:01:00,
2013-03-25 01:02:00,27.5,21.2,28.85,NNW,338,3.4,8.1,77,0.00,,---,0.00,VWS V14.01,2013-03-25 06:02:00,
2013-03-25 01:03:00,27.3,21.1,28.85,NNW,338,6.5,6.5,77,0.00,,---,0.00,VWS V14.01,2013-03-25 06:03:00,
2013-03-25 01:04:00,27.3,21.1,28.85,North,0,3.8,6.5,77,0.00,,---,0.00,VWS V14.01,2013-03-25 06:04:00,
2013-03-25 01:05:00,27.5,21.2,28.85,NNW,338,3.1,7.8,77,0.00,,---,0.00,VWS V14.01,2013-03-25 06:05:00,
2013-03-25 01:06:00,27.3,21.1,28.85,North,0,3.8,3.8,77,0.00,,---,0.00,VWS V14.01,2013-03-25 06:06:00,
2013-03-25 01:08:00,27.3,21.1,28.85,North,0,3.8,3.8,77,0.00,,---,0.00,VWS V14.01,2013-03-25 06:08:00,
2013-03-25 01:09:00,27.3,21.1,28.82,NNE,22,7.2,7.6,77,0.00,,---,0.00,VWS V14.01,2013-03-25 06:09:00,
2013-03-25 01:10:00,27.3,21.1,28.82,North,0,3.1,7.2,77,0.00,,---,0.00,VWS V14.01,2013-03-25 06:10:00,
2013-03-25 01:11:00,27.3,21.1,28.82,NNW,338,3.4,3.8,77,0.00,,---,0.00,VWS V14.01,2013-03-25 06:11:00,
2013-03-25 01:12:00,27.3,21.1,28.82,NNW,338,3.4,3.8,77,0.00,,---,0.00,VWS V14.01,2013-03-25 06:12:00,
2013-03-25 01:13:00,27.3,21.1,28.82,North,0,3.1,3.4,77,0.00,,---,0.00,VWS V14.01,2013-03-25 06:13:00,
2013-03-25 01:14:00,27.3,21.1,28.82,North,0,4.0,4.0,77,0.00,,---,0.00,VWS V14.01,2013-03-25 06:14:00,
2013-03-25 01:15:00,27.3,20.8,28.82,North,0,4.0,4.0,76,0.00,,---,0.00,VWS V14.01,2013-03-25 06:15:00,
2013-03-25 01:16:00,27.3,20.8,28.82,NNW,338,4.3,5.6,76,0.00,,---,0.00,VWS V14.01,2013-03-25 06:16:00,
2013-03-25 01:17:00,27.3,20.8,28.82,NNE,22,7.2,7.2,76,0.00,,---,0.00,VWS V14.01,2013-03-25 06:17:00,
2013-03-25 01:18:00,27.3,20.8,28.82,NNE,22,3.8,8.5,76,0.00,,---,0.00,VWS V14.01,2013-03-25 06:18:00,
2013-03-25 01:19:00,27.3,20.8,28.82,NNE,22,3.8,3.8,76,0.00,,---,0.00,VWS V14.01,2013-03-25 06:19:00,
2013-03-25 01:20:00,27.3,20.8,28.82,NNE,22,6.0,6.0,76,0.00,,---,0.00,VWS V14.01,2013-03-25 06:20:00,
2013-03-25 01:21:00,27.3,20.8,28.82,NNE,22,5.6,7.2,76,0.00,,---,0.00,VWS V14.01,2013-03-25 06:21:00,
2013-03-25 01:22:00,27.3,20.8,28.82,North,0,3.8,5.6,76,0.00,,---,0.00,VWS V14.01,2013-03-25 06:22:00,
2013-03-25 01:23:00,27.5,20.6,28.82,North,0,2.7,6.0,75,0.00,,---,0.00,VWS V14.01,2013-03-25 06:23:00,
2013-03-25 01:24:00,27.5,20.6,28.82,NNE,22,3.1,3.6,75,0.00,,---,0.00,VWS V14.01,2013-03-25 06:24:00,
2013-03-25 01:25:00,27.5,20.6,28.82,NNW,338,7.2,7.2,75,0.00,,---,0.00,VWS V14.01,2013-03-25 06:25:00,
2013-03-25 01:26:00,27.5,20.6,28.82,North,0,6.3,8.1,75,0.00,,---,0.00,VWS V14.01,2013-03-25 06:26:00,
2013-03-25 01:27:00,27.5,20.6,28.82,North,0,5.6,6.3,75,0.00,,---,0.00,VWS V14.01,2013-03-25 06:27:00,
2013-03-25 01:28:00,27.5,20.6,28.82,NNE,22,7.2,7.2,75,0.00,,---,0.00,VWS V14.01,2013-03-25 06:28:00,
2013-03-25 01:29:00,27.5,20.6,28.82,NNE,22,5.4,10.1,75,0.00,,---,0.00,VWS V14.01,2013-03-25 06:29:00,
2013-03-25 01:30:00,27.5,20.6,28.82,NNW,338,6.0,6.3,75,0.00,,---,0.00,VWS V14.01,2013-03-25 06:30:00,
2013-03-25 01:31:00,27.5,20.3,28.82,North,0,4.3,7.2,74,0.00,,---,0.00,VWS V14.01,2013-03-25 06:31:00,
2013-03-25 01:32:00,27.5,20.3,28.82,North,0,3.8,4.3,74,0.00,,---,0.00,VWS V14.01,2013-03-25 06:32:00,
2013-03-25 01:33:00,27.5,20.3,28.82,North,0,6.7,7.6,74,0.00,,---,0.00,VWS V14.01,2013-03-25 06:33:00,
2013-03-25 01:34:00,27.5,20.3,28.82,North,0,4.9,6.7,74,0.00,,---,0.00,VWS V14.01,2013-03-25 06:34:00,
2013-03-25 01:35:00,27.7,20.5,28.82,NNE,22,8.5,9.6,74,0.00,,---,0.00,VWS V14.01,2013-03-25 06:35:00,
2013-03-25 01:36:00,27.7,20.5,28.82,North,0,7.2,8.5,74,0.00,,---,0.00,VWS V14.01,2013-03-25 06:36:00,
2013-03-25 01:37:00,27.7,20.5,28.82,North,0,5.6,8.5,74,0.00,,---,0.00,VWS V14.01,2013-03-25 06:37:00,
2013-03-25 01:38:00,27.7,20.5,28.82,NNW,338,6.3,8.1,74,0.00,,---,0.00,VWS V14.01,2013-03-25 06:38:00,
2013-03-25 01:39:00,27.7,20.5,28.85,NNW,338,6.5,7.4,74,0.00,,---,0.00,VWS V14.01,2013-03-25 06:39:00,
2013-03-25 01:40:00,27.7,20.5,28.85,NW,315,6.3,10.1,74,0.00,,---,0.00,VWS V14.01,2013-03-25 06:40:00,
2013-03-25 01:41:00,27.7,20.5,28.85,NNE,22,5.8,8.5,74,0.00,,---,0.00,VWS V14.01,2013-03-25 06:41:00,
2013-03-25 01:42:00,27.7,20.2,28.85,North,0,8.5,9.8,73,0.00,,---,0.00,VWS V14.01,2013-03-25 06:42:00,
2013-03-25 01:43:00,27.7,20.2,28.85,North,0,4.3,9.0,73,0.00,,---,0.00,VWS V14.01,2013-03-25 06:43:00,
2013-03-25 01:44:00,27.9,20.3,28.85,NNE,22,7.4,12.1,73,0.00,,---,0.00,VWS V14.01,2013-03-25 06:44:00,
2013-03-25 01:45:00,27.9,20.0,28.85,NNE,22,3.6,7.4,72,0.00,,---,0.00,VWS V14.01,2013-03-25 06:45:00,
2013-03-25 01:46:00,27.9,20.0,28.85,NNE,22,3.6,3.6,72,0.00,,---,0.00,VWS V14.01,2013-03-25 06:46:00,
2013-03-25 01:47:00,27.9,20.0,28.85,NNE,22,9.8,9.8,72,0.00,,---,0.00,VWS V14.01,2013-03-25 06:47:00,
2013-03-25 01:48:00,27.9,20.0,28.85,NNE,22,4.3,5.4,72,0.00,,---,0.00,VWS V14.01,2013-03-25 06:48:00,
2013-03-25 01:49:00,27.9,20.0,28.85,NNW,338,7.6,9.8,72,0.00,,---,0.00,VWS V14.01,2013-03-25 06:49:00,
2013-03-25 01:50:00,27.9,20.0,28.85,North,0,5.8,7.6,72,0.00,,---,0.00,VWS V14.01,2013-03-25 06:50:00,
2013-03-25 01:51:00,27.9,20.0,28.85,NNW,338,5.6,5.8,72,0.00,,---,0.00,VWS V14.01,2013-03-25 06:51:00,
2013-03-25 01:52:00,27.9,20.0,28.85,North,0,3.8,7.4,72,0.00,,---,0.00,VWS V14.01,2013-03-25 06:52:00,
2013-03-25 01:53:00,27.9,20.0,28.85,NNW,338,7.4,7.4,72,0.00,,---,0.00,VWS V14.01,2013-03-25 06:53:00,
2013-03-25 01:54:00,27.9,20.0,28.85,North,0,6.0,7.4,72,0.00,,---,0.00,VWS V14.01,2013-03-25 06:54:00,
2013-03-25 01:55:00,27.9,20.0,28.85,NNE,22,5.6,6.0,72,0.00,,---,0.00,VWS V14.01,2013-03-25 06:55:00,
2013-03-25 01:56:00,27.9,20.0,28.85,NNE,22,5.6,5.6,72,0.00,,---,0.00,VWS V14.01,2013-03-25 06:56:00,
2013-03-25 01:57:00,27.9,19.7,28.85,North,0,6.5,12.8,71,0.00,,---,0.00,VWS V14.01,2013-03-25 06:57:00,
2013-03-25 01:58:00,27.9,19.7,28.85,NNE,22,3.8,9.2,71,0.00,,---,0.00,VWS V14.01,2013-03-25 06:58:00,
2013-03-25 01:59:00,27.9,19.7,28.85,NNW,338,4.7,6.3,71,0.00,,---,0.00,VWS V14.01,2013-03-25 06:59:00,
2013-03-25 02:00:00,27.9,19.7,28.85,NNW,338,4.3,6.5,71,0.00,,---,0.00,VWS V14.01,2013-03-25 07:00:00,
2013-03-25 02:01:00,27.9,19.7,28.85,NNE,22,3.6,6.5,71,0.00,,---,0.00,VWS V14.01,2013-03-25 07:01:00,
2013-03-25 02:02:00,27.9,19.7,28.85,NNW,338,7.2,7.2,71,0.00,,---,0.00,VWS V14.01,2013-03-25 07:02:00,
2013-03-25 02:03:00,27.9,19.7,28.85,North,0,7.6,7.6,71,0.00,,---,0.00,VWS V14.01,2013-03-25 07:03:00,
2013-03-25 02:04:00,27.9,19.7,28.85,NNW,338,6.3,7.6,71,0.00,,---,0.00,VWS V14.01,2013-03-25 07:04:00,
2013-03-25 02:05:00,27.9,19.7,28.85,North,0,7.4,8.5,71,0.00,,---,0.00,VWS V14.01,2013-03-25 07:05:00,
2013-03-25 02:06:00,27.9,19.7,28.85,NNW,338,6.5,7.6,71,0.00,,---,0.00,VWS V14.01,2013-03-25 07:06:00,
2013-03-25 02:07:00,27.9,19.7,28.85,NNW,338,6.5,6.5,71,0.00,,---,0.00,VWS V14.01,2013-03-25 07:07:00,
2013-03-25 02:08:00,27.9,19.4,28.85,NNW,338,6.5,6.5,70,0.00,,---,0.00,VWS V14.01,2013-03-25 07:08:00,
2013-03-25 02:09:00,27.9,19.4,28.85,NW,315,6.5,7.8,70,0.00,,---,0.00,VWS V14.01,2013-03-25 07:09:00,
2013-03-25 02:10:00,27.9,19.4,28.85,NNW,338,5.8,6.5,70,0.00,,---,0.00,VWS V14.01,2013-03-25 07:10:00,
2013-03-25 02:11:00,27.9,19.4,28.85,North,0,6.5,6.5,70,0.00,,---,0.00,VWS V14.01,2013-03-25 07:11:00,
2013-03-25 02:12:00,27.9,19.4,28.85,NNW,338,4.9,5.6,70,0.00,,---,0.00,VWS V14.01,2013-03-25 07:12:00,
2013-03-25 02:13:00,27.9,19.4,28.85,NNE,22,6.0,7.4,70,0.00,,---,0.00,VWS V14.01,2013-03-25 07:13:00,
2013-03-25 02:14:00,27.9,19.4,28.85,North,0,5.8,8.5,70,0.00,,---,0.00,VWS V14.01,2013-03-25 07:14:00,
2013-03-25 02:15:00,27.9,19.4,28.85,North,0,5.8,5.8,70,0.00,,---,0.00,VWS V14.01,2013-03-25 07:15:00,
2013-03-25 02:16:00,27.9,19.4,28.85,NNW,338,7.2,7.6,70,0.00,,---,0.00,VWS V14.01,2013-03-25 07:16:00,
2013-03-25 02:17:00,27.9,19.4,28.85,North,0,4.3,7.4,70,0.00,,---,0.00,VWS V14.01,2013-03-25 07:17:00,
2013-03-25 02:18:00,27.9,19.4,28.85,NNE,22,4.9,7.4,70,0.00,,---,0.00,VWS V14.01,2013-03-25 07:18:00,
2013-03-25 02:19:00,27.9,19.4,28.85,NNW,338,6.5,8.1,70,0.00,,---,0.00,VWS V14.01,2013-03-25 07:19:00,
2013-03-25 02:20:00,27.9,19.4,28.85,NNW,338,9.8,9.8,70,0.00,,---,0.00,VWS V14.01,2013-03-25 07:20:00,
2013-03-25 02:21:00,27.7,19.2,28.85,NNW,338,6.0,9.8,70,0.00,,---,0.00,VWS V14.01,2013-03-25 07:21:00,
2013-03-25 02:22:00,27.9,19.4,28.85,NNW,338,5.8,5.8,70,0.00,,---,0.00,VWS V14.01,2013-03-25 07:22:00,
2013-03-25 02:23:00,27.9,19.4,28.85,North,0,7.2,7.6,70,0.00,,---,0.00,VWS V14.01,2013-03-25 07:23:00,
2013-03-25 02:24:00,27.7,19.2,28.85,NNW,338,4.3,7.2,70,0.00,,---,0.00,VWS V14.01,2013-03-25 07:24:00,
2013-03-25 02:25:00,27.7,19.2,28.85,NNW,338,6.0,6.0,70,0.00,,---,0.00,VWS V14.01,2013-03-25 07:25:00,
2013-03-25 02:26:00,27.7,19.2,28.85,NNE,22,4.0,6.0,70,0.00,,---,0.00,VWS V14.01,2013-03-25 07:26:00,
2013-03-25 02:27:00,27.7,19.2,28.85,NW,315,5.6,5.6,70,0.00,,---,0.00,VWS V14.01,2013-03-25 07:27:00,
2013-03-25 02:28:00,27.7,19.2,28.85,NNW,338,5.4,5.6,70,0.00,,---,0.00,VWS V14.01,2013-03-25 07:28:00,
2013-03-25 02:29:00,27.7,19.2,28.85,North,0,8.1,8.5,70,0.00,,---,0.00,VWS V14.01,2013-03-25 07:29:00,
2013-03-25 02:30:00,27.7,19.2,28.85,NNE,22,6.0,8.1,70,0.00,,---,0.00,VWS V14.01,2013-03-25 07:30:00,
2013-03-25 02:31:00,27.7,18.9,28.85,NNE,22,3.6,7.4,69,0.00,,---,0.00,VWS V14.01,2013-03-25 07:31:00,
2013-03-25 02:32:00,27.9,18.7,28.85,NNW,338,10.5,10.5,68,0.00,,---,0.00,VWS V14.01,2013-03-25 07:32:00,
2013-03-25 02:33:00,27.9,18.7,28.85,NNW,338,10.5,10.5,68,0.00,,---,0.00,VWS V14.01,2013-03-25 07:33:00,
2013-03-25 02:34:00,27.9,18.7,28.85,North,0,3.4,10.5,68,0.00,,---,0.00,VWS V14.01,2013-03-25 07:34:00,
2013-03-25 02:35:00,27.9,18.3,28.85,NNW,338,7.8,8.5,67,0.00,,---,0.00,VWS V14.01,2013-03-25 07:35:00,
2013-03-25 02:36:00,27.9,18.3,28.85,North,0,4.9,7.8,67,0.00,,---,0.00,VWS V14.01,2013-03-25 07:36:00,
2013-03-25 02:37:00,27.9,18.3,28.85,NNW,338,4.3,7.6,67,0.00,,---,0.00,VWS V14.01,2013-03-25 07:37:00,
2013-03-25 02:38:00,27.9,18.3,28.85,NNW,338,3.1,7.6,67,0.00,,---,0.00,VWS V14.01,2013-03-25 07:38:00,
2013-03-25 02:39:00,27.9,18.3,28.85,NNE,22,4.0,4.0,67,0.00,,---,0.00,VWS V14.01,2013-03-25 07:39:00,
2013-03-25 02:40:00,27.9,18.3,28.85,NNE,22,3.6,4.9,67,0.00,,---,0.00,VWS V14.01,2013-03-25 07:40:00,
2013-03-25 02:41:00,27.9,18.3,28.85,NNE,22,5.4,8.1,67,0.00,,---,0.00,VWS V14.01,2013-03-25 07:41:00,
2013-03-25 02:42:00,27.7,18.2,28.85,NNE,22,3.8,4.0,67,0.00,,---,0.00,VWS V14.01,2013-03-25 07:42:00,
2013-03-25 02:43:00,27.7,18.2,28.85,North,0,3.4,4.0,67,0.00,,---,0.00,VWS V14.01,2013-03-25 07:43:00,
2013-03-25 02:44:00,27.7,18.2,28.85,NNE,22,3.4,3.6,67,0.00,,---,0.00,VWS V14.01,2013-03-25 07:44:00,
2013-03-25 02:45:00,27.7,18.2,28.85,North,0,9.6,10.5,67,0.00,,---,0.00,VWS V14.01,2013-03-25 07:45:00,
2013-03-25 02:47:00,27.7,18.2,28.85,NNW,338,5.6,9.6,67,0.00,,---,0.00,VWS V14.01,2013-03-25 07:47:00,
2013-03-25 02:48:00,27.7,18.2,28.85,NNW,338,5.6,5.6,67,0.00,,---,0.00,VWS V14.01,2013-03-25 07:48:00,
2013-03-25 02:49:00,27.7,18.2,28.85,NNE,22,4.7,7.4,67,0.00,,---,0.00,VWS V14.01,2013-03-25 07:49:00,
2013-03-25 02:50:00,27.7,18.2,28.85,NNE,22,6.0,6.0,67,0.00,,---,0.00,VWS V14.01,2013-03-25 07:50:00,
2013-03-25 02:51:00,27.7,18.2,28.85,North,0,4.9,6.0,67,0.00,,---,0.00,VWS V14.01,2013-03-25 07:51:00,
2013-03-25 02:52:00,27.7,18.2,28.85,North,0,6.5,6.7,67,0.00,,---,0.00,VWS V14.01,2013-03-25 07:52:00,
2013-03-25 02:53:00,27.7,18.2,28.85,NNW,338,5.4,6.5,67,0.00,,---,0.00,VWS V14.01,2013-03-25 07:53:00,
2013-03-25 02:54:00,27.7,17.8,28.85,North,0,4.9,5.8,66,0.00,,---,0.00,VWS V14.01,2013-03-25 07:54:00,
2013-03-25 02:55:00,27.7,17.8,28.85,North,0,5.8,5.8,66,0.00,,---,0.00,VWS V14.01,2013-03-25 07:55:00,
2013-03-25 02:56:00,27.7,17.8,28.85,NNW,338,6.0,6.0,66,0.00,,---,0.00,VWS V14.01,2013-03-25 07:56:00,
2013-03-25 02:57:00,27.7,17.8,28.85,NNW,338,4.7,6.0,66,0.00,,---,0.00,VWS V14.01,2013-03-25 07:57:00,
2013-03-25 02:58:00,27.5,18.0,28.85,North,0,5.4,5.4,67,0.00,,---,0.00,VWS V14.01,2013-03-25 07:58:00,
2013-03-25 02:59:00,27.5,18.0,28.85,NNE,22,5.6,5.8,67,0.00,,---,0.00,VWS V14.01,2013-03-25 07:59:00,
2013-03-25 03:00:00,27.5,18.0,28.85,NNW,338,5.4,6.3,67,0.00,,---,0.00,VWS V14.01,2013-03-25 08:00:00,
2013-03-25 03:02:00,27.5,18.0,28.85,North,0,4.3,6.5,67,0.00,,---,0.00,VWS V14.01,2013-03-25 08:02:00,
2013-03-25 03:03:00,27.5,17.6,28.85,NNE,22,5.4,5.4,66,0.00,,---,0.00,VWS V14.01,2013-03-25 08:03:00,
2013-03-25 03:04:00,27.5,17.6,28.85,NNE,22,4.7,7.6,66,0.00,,---,0.00,VWS V14.01,2013-03-25 08:04:00,
2013-03-25 03:05:00,27.5,17.6,28.85,NNE,22,4.3,4.7,66,0.00,,---,0.00,VWS V14.01,2013-03-25 08:05:00,
2013-03-25 03:06:00,27.5,17.6,28.85,NNE,22,4.3,4.3,66,0.00,,---,0.00,VWS V14.01,2013-03-25 08:06:00,
2013-03-25 03:07:00,27.5,17.6,28.85,NNE,22,4.9,4.9,66,0.00,,---,0.00,VWS V14.01,2013-03-25 08:07:00,
2013-03-25 03:08:00,27.5,17.6,28.85,North,0,5.4,6.5,66,0.00,,---,0.00,VWS V14.01,2013-03-25 08:08:00,
2013-03-25 03:09:00,27.5,17.6,28.85,NNW,338,4.7,5.8,66,0.00,,---,0.00,VWS V14.01,2013-03-25 08:09:00,
2013-03-25 03:10:00,27.5,17.6,28.85,NNW,338,4.9,4.9,66,0.00,,---,0.00,VWS V14.01,2013-03-25 08:10:00,
2013-03-25 03:11:00,27.5,17.6,28.85,NNW,338,7.8,7.8,66,0.00,,---,0.00,VWS V14.01,2013-03-25 08:11:00,
2013-03-25 03:12:00,27.5,17.6,28.85,NNW,338,7.8,7.8,66,0.00,,---,0.00,VWS V14.01,2013-03-25 08:12:00,
2013-03-25 03:13:00,27.5,17.6,28.85,NNW,338,5.4,7.8,66,0.00,,---,0.00,VWS V14.01,2013-03-25 08:13:00,
2013-03-25 03:14:00,27.5,17.6,28.85,NNE,22,3.8,5.8,66,0.00,,---,0.00,VWS V14.01,2013-03-25 08:14:00,
2013-03-25 03:15:00,27.5,17.6,28.85,NNW,338,4.3,6.5,66,0.00,,---,0.00,VWS V14.01,2013-03-25 08:15:00,
2013-03-25 03:16:00,27.3,17.5,28.85,NNW,338,3.8,5.8,66,0.00,,---,0.00,VWS V14.01,2013-03-25 08:16:00,
2013-03-25 03:17:00,27.3,17.5,28.85,NNW,338,3.1,4.3,66,0.00,,---,0.00,VWS V14.01,2013-03-25 08:17:00,
2013-03-25 03:18:00,27.3,17.5,28.85,NNW,338,3.4,3.4,66,0.00,,---,0.00,VWS V14.01,2013-03-25 08:18:00,
2013-03-25 03:19:00,27.3,17.5,28.85,NNW,338,5.4,7.4,66,0.00,,---,0.00,VWS V14.01,2013-03-25 08:19:00,
2013-03-25 03:20:00,27.3,17.5,28.85,NNW,338,5.8,6.5,66,0.00,,---,0.00,VWS V14.01,2013-03-25 08:20:00,
2013-03-25 03:21:00,27.3,17.5,28.85,NNW,338,4.0,6.3,66,0.00,,---,0.00,VWS V14.01,2013-03-25 08:21:00,
2013-03-25 03:22:00,27.3,17.5,28.85,North,0,5.4,5.4,66,0.00,,---,0.00,VWS V14.01,2013-03-25 08:22:00,
2013-03-25 03:23:00,27.3,17.8,28.85,NNW,338,4.5,5.8,67,0.00,,---,0.00,VWS V14.01,2013-03-25 08:23:00,
2013-03-25 03:25:00,27.3,17.8,28.85,NNW,338,3.8,6.3,67,0.00,,---,0.00,VWS V14.01,2013-03-25 08:25:00,
2013-03-25 03:26:00,27.3,17.8,28.85,NNW,338,5.8,6.3,67,0.00,,---,0.00,VWS V14.01,2013-03-25 08:26:00,
2013-03-25 03:27:00,27.3,17.8,28.85,North,0,6.0,6.0,67,0.00,,---,0.00,VWS V14.01,2013-03-25 08:27:00,
2013-03-25 03:28:00,27.1,17.6,28.85,NNW,338,6.5,6.7,67,0.00,,---,0.00,VWS V14.01,2013-03-25 08:28:00,
2013-03-25 03:29:00,27.1,17.6,28.85,NNW,338,6.5,6.5,67,0.00,,---,0.00,VWS V14.01,2013-03-25 08:29:00,
2013-03-25 03:30:00,27.1,17.6,28.85,NNW,338,3.8,7.4,67,0.00,,---,0.00,VWS V14.01,2013-03-25 08:30:00,
2013-03-25 03:31:00,27.1,17.6,28.85,NNW,338,5.4,6.5,67,0.00,,---,0.00,VWS V14.01,2013-03-25 08:31:00,
2013-03-25 03:32:00,27.1,17.6,28.85,NNW,338,7.8,7.8,67,0.00,,---,0.00,VWS V14.01,2013-03-25 08:32:00,
2013-03-25 03:33:00,27.1,17.6,28.85,NNW,338,7.4,7.8,67,0.00,,---,0.00,VWS V14.01,2013-03-25 08:33:00,
2013-03-25 03:34:00,27.1,17.6,28.85,NNW,338,6.3,8.1,67,0.00,,---,0.00,VWS V14.01,2013-03-25 08:34:00,
2013-03-25 03:35:00,27.1,17.6,28.85,NNW,338,6.5,6.5,67,0.00,,---,0.00,VWS V14.01,2013-03-25 08:35:00,
2013-03-25 03:36:00,27.1,17.6,28.85,NNW,338,4.9,6.5,67,0.00,,---,0.00,VWS V14.01,2013-03-25 08:36:00,
2013-03-25 03:37:00,27.1,17.6,28.85,North,0,7.4,7.4,67,0.00,,---,0.00,VWS V14.01,2013-03-25 08:37:00,
2013-03-25 03:38:00,27.1,17.6,28.85,NNW,338,5.8,7.4,67,0.00,,---,0.00,VWS V14.01,2013-03-25 08:38:00,
2013-03-25 03:39:00,27.0,17.1,28.85,NNW,338,5.6,6.0,66,0.00,,---,0.00,VWS V14.01,2013-03-25 08:39:00,
2013-03-25 03:40:00,27.0,17.1,28.85,NNE,22,5.8,5.8,66,0.00,,---,0.00,VWS V14.01,2013-03-25 08:40:00,
2013-03-25 03:41:00,27.0,17.1,28.85,NNW,338,5.6,5.8,66,0.00,,---,0.00,VWS V14.01,2013-03-25 08:41:00,
2013-03-25 03:42:00,26.8,17.0,28.85,NNW,338,4.9,6.0,66,0.00,,---,0.00,VWS V14.01,2013-03-25 08:42:00,
2013-03-25 03:43:00,26.8,17.0,28.85,North,0,6.5,7.6,66,0.00,,---,0.00,VWS V14.01,2013-03-25 08:43:00,
2013-03-25 03:44:00,26.8,17.0,28.85,North,0,6.5,7.6,66,0.00,,---,0.00,VWS V14.01,2013-03-25 08:44:00,
2013-03-25 03:45:00,26.8,17.0,28.85,North,0,4.9,6.5,66,0.00,,---,0.00,VWS V14.01,2013-03-25 08:45:00,
2013-03-25 03:46:00,26.6,16.8,28.85,NNW,338,4.7,4.9,66,0.00,,---,0.00,VWS V14.01,2013-03-25 08:46:00,
2013-03-25 03:47:00,26.4,16.6,28.85,NNW,338,3.8,5.4,66,0.00,,---,0.00,VWS V14.01,2013-03-25 08:47:00,
2013-03-25 03:48:00,26.4,16.6,28.85,NNW,338,2.9,4.9,66,0.00,,---,0.00,VWS V14.01,2013-03-25 08:48:00,
2013-03-25 03:49:00,26.4,16.6,28.85,NNW,338,7.2,7.2,66,0.00,,---,0.00,VWS V14.01,2013-03-25 08:49:00,
2013-03-25 03:50:00,26.4,16.6,28.85,NNE,22,5.4,7.2,66,0.00,,---,0.00,VWS V14.01,2013-03-25 08:50:00,
2013-03-25 03:51:00,26.4,16.6,28.85,NNW,338,5.6,6.5,66,0.00,,---,0.00,VWS V14.01,2013-03-25 08:51:00,
2013-03-25 03:52:00,26.2,16.4,28.85,North,0,7.2,7.4,66,0.00,,---,0.00,VWS V14.01,2013-03-25 08:52:00,
2013-03-25 03:53:00,26.2,16.4,28.85,North,0,5.8,7.2,66,0.00,,---,0.00,VWS V14.01,2013-03-25 08:53:00,
2013-03-25 03:54:00,26.2,16.4,28.85,NNE,22,6.3,6.3,66,0.00,,---,0.00,VWS V14.01,2013-03-25 08:54:00,
2013-03-25 03:55:00,26.2,16.4,28.85,NNW,338,6.3,7.4,66,0.00,,---,0.00,VWS V14.01,2013-03-25 08:55:00,
2013-03-25 03:56:00,26.2,16.4,28.85,North,0,8.1,8.1,66,0.00,,---,0.00,VWS V14.01,2013-03-25 08:56:00,
2013-03-25 03:57:00,26.2,16.1,28.85,NNW,338,6.0,8.1,65,0.00,,---,0.00,VWS V14.01,2013-03-25 08:57:00,
2013-03-25 03:58:00,26.2,16.1,28.85,NNW,338,8.1,8.7,65,0.00,,---,0.00,VWS V14.01,2013-03-25 08:58:00,
2013-03-25 03:59:00,26.2,16.4,28.85,NNW,338,7.4,8.1,66,0.00,,---,0.00,VWS V14.01,2013-03-25 08:59:00,
2013-03-25 04:00:00,26.2,16.4,28.85,NNW,338,3.4,7.4,66,0.00,,---,0.00,VWS V14.01,2013-03-25 09:00:00,
2013-03-25 04:01:00,26.1,16.3,28.85,NNW,338,3.6,8.1,66,0.00,,---,0.00,VWS V14.01,2013-03-25 09:01:00,
2013-03-25 04:02:00,26.1,16.3,28.85,NNW,338,4.5,5.8,66,0.00,,---,0.00,VWS V14.01,2013-03-25 09:02:00,
2013-03-25 04:03:00,26.1,16.3,28.85,NW,315,6.7,7.8,66,0.00,,---,0.00,VWS V14.01,2013-03-25 09:03:00,
2013-03-25 04:04:00,26.1,16.3,28.85,NW,315,6.5,6.7,66,0.00,,---,0.00,VWS V14.01,2013-03-25 09:04:00,
2013-03-25 04:05:00,26.1,16.3,28.85,North,0,10.5,10.5,66,0.00,,---,0.00,VWS V14.01,2013-03-25 09:05:00,
2013-03-25 04:06:00,26.1,16.3,28.85,North,0,3.8,10.5,66,0.00,,---,0.00,VWS V14.01,2013-03-25 09:06:00,
2013-03-25 04:07:00,26.1,16.3,28.85,NNW,338,5.6,7.2,66,0.00,,---,0.00,VWS V14.01,2013-03-25 09:07:00,
2013-03-25 04:08:00,26.1,16.3,28.85,NNW,338,6.0,6.0,66,0.00,,---,0.00,VWS V14.01,2013-03-25 09:08:00,
2013-03-25 04:09:00,25.9,16.1,28.85,NNW,338,4.9,6.3,66,0.00,,---,0.00,VWS V14.01,2013-03-25 09:09:00,
2013-03-25 04:10:00,25.9,16.1,28.85,North,0,8.1,8.1,66,0.00,,---,0.00,VWS V14.01,2013-03-25 09:10:00,
2013-03-25 04:11:00,25.9,16.1,28.85,NNW,338,7.4,8.1,66,0.00,,---,0.00,VWS V14.01,2013-03-25 09:11:00,
2013-03-25 04:12:00,25.9,16.1,28.85,NNE,22,5.8,7.4,66,0.00,,---,0.00,VWS V14.01,2013-03-25 09:12:00,
2013-03-25 04:13:00,25.9,16.1,28.85,North,0,5.8,6.3,66,0.00,,---,0.00,VWS V14.01,2013-03-25 09:13:00,
2013-03-25 04:14:00,25.9,16.1,28.85,NNE,22,4.3,7.2,66,0.00,,---,0.00,VWS V14.01,2013-03-25 09:14:00,
2013-03-25 04:15:00,25.9,16.1,28.85,NNW,338,5.8,8.1,66,0.00,,---,0.00,VWS V14.01,2013-03-25 09:15:00,
2013-03-25 04:16:00,26.1,16.3,28.85,NNW,338,7.6,7.6,66,0.00,,---,0.00,VWS V14.01,2013-03-25 09:16:00,
2013-03-25 04:17:00,25.9,16.1,28.85,NNW,338,3.6,7.6,66,0.00,,---,0.00,VWS V14.01,2013-03-25 09:17:00,
2013-03-25 04:18:00,25.9,16.1,28.85,NNW,338,4.9,4.9,66,0.00,,---,0.00,VWS V14.01,2013-03-25 09:18:00,
2013-03-25 04:19:00,25.9,16.1,28.85,North,0,7.8,7.8,66,0.00,,---,0.00,VWS V14.01,2013-03-25 09:19:00,
2013-03-25 04:20:00,26.1,16.3,28.85,NNE,22,5.4,7.8,66,0.00,,---,0.00,VWS V14.01,2013-03-25 09:20:00,
2013-03-25 04:21:00,26.1,16.3,28.85,North,0,6.9,6.9,66,0.00,,---,0.00,VWS V14.01,2013-03-25 09:21:00,
2013-03-25 04:22:00,26.1,16.3,28.85,NNW,338,3.1,6.9,66,0.00,,---,0.00,VWS V14.01,2013-03-25 09:22:00,
2013-03-25 04:23:00,26.1,16.3,28.85,NNW,338,5.4,5.4,66,0.00,,---,0.00,VWS V14.01,2013-03-25 09:23:00,
2013-03-25 04:24:00,26.1,16.3,28.85,NNW,338,5.4,5.4,66,0.00,,---,0.00,VWS V14.01,2013-03-25 09:24:00,
2013-03-25 04:25:00,26.1,16.3,28.85,NNW,338,6.7,6.7,66,0.00,,---,0.00,VWS V14.01,2013-03-25 09:25:00,
2013-03-25 04:26:00,26.1,16.3,28.85,NE,45,4.3,7.4,66,0.00,,---,0.00,VWS V14.01,2013-03-25 09:26:00,
2013-03-25 04:27:00,26.1,16.3,28.85,NE,45,4.3,4.3,66,0.00,,---,0.00,VWS V14.01,2013-03-25 09:27:00,
2013-03-25 04:28:00,26.1,16.3,28.85,North,0,4.3,4.3,66,0.00,,---,0.00,VWS V14.01,2013-03-25 09:28:00,
2013-03-25 04:29:00,26.1,16.3,28.85,NNE,22,5.8,7.6,66,0.00,,---,0.00,VWS V14.01,2013-03-25 09:29:00,
2013-03-25 04:30:00,26.1,16.3,28.85,WNW,292,5.8,5.8,66,0.00,,---,0.00,VWS V14.01,2013-03-25 09:30:00,
2013-03-25 04:31:00,26.1,16.3,28.85,North,0,6.9,6.9,66,0.00,,---,0.00,VWS V14.01,2013-03-25 09:31:00,
2013-03-25 04:32:00,26.1,15.9,28.85,NNW,338,4.0,6.9,65,0.00,,---,0.00,VWS V14.01,2013-03-25 09:32:00,
2013-03-25 04:33:00,26.1,16.3,28.85,NNW,338,7.8,7.8,66,0.00,,---,0.00,VWS V14.01,2013-03-25 09:33:00,
2013-03-25 04:34:00,26.1,16.3,28.85,WNW,292,4.0,7.8,66,0.00,,---,0.00,VWS V14.01,2013-03-25 09:34:00,
2013-03-25 04:35:00,26.1,16.3,28.85,North,0,8.7,8.7,66,0.00,,---,0.00,VWS V14.01,2013-03-25 09:35:00,
2013-03-25 04:36:00,26.1,16.3,28.85,NNW,338,5.8,8.7,66,0.00,,---,0.00,VWS V14.01,2013-03-25 09:36:00,
2013-03-25 04:38:00,26.1,16.3,28.85,NNW,338,6.5,8.5,66,0.00,,---,0.00,VWS V14.01,2013-03-25 09:38:00,
2013-03-25 04:39:00,26.1,16.3,28.88,NNW,338,9.2,9.2,66,0.00,,---,0.00,VWS V14.01,2013-03-25 09:39:00,
2013-03-25 04:40:00,26.1,16.3,28.88,North,0,7.6,9.2,66,0.00,,---,0.00,VWS V14.01,2013-03-25 09:40:00,
2013-03-25 04:41:00,26.1,16.3,28.88,NNW,338,5.6,7.6,66,0.00,,---,0.00,VWS V14.01,2013-03-25 09:41:00,
2013-03-25 04:42:00,26.1,16.3,28.88,NNW,338,4.3,6.0,66,0.00,,---,0.00,VWS V14.01,2013-03-25 09:42:00,
2013-03-25 04:43:00,25.9,16.1,28.88,NNW,338,6.3,6.5,66,0.00,,---,0.00,VWS V14.01,2013-03-25 09:43:00,
2013-03-25 04:44:00,25.9,16.1,28.88,NNW,338,7.4,7.6,66,0.00,,---,0.00,VWS V14.01,2013-03-25 09:44:00,
2013-03-25 04:45:00,25.9,16.1,28.88,NNW,338,7.2,7.4,66,0.00,,---,0.00,VWS V14.01,2013-03-25 09:45:00,
2013-03-25 04:47:00,25.9,16.1,28.88,North,0,7.8,7.8,66,0.00,,---,0.00,VWS V14.01,2013-03-25 09:47:00,
2013-03-25 04:48:00,25.7,15.9,28.88,NNW,338,6.0,6.0,66,0.00,,---,0.00,VWS V14.01,2013-03-25 09:48:00,
2013-03-25 04:49:00,25.7,15.9,28.88,NNW,338,6.0,6.0,66,0.00,,---,0.00,VWS V14.01,2013-03-25 09:49:00,
2013-03-25 04:50:00,25.7,15.9,28.88,NNW,338,6.3,6.3,66,0.00,,---,0.00,VWS V14.01,2013-03-25 09:50:00,
2013-03-25 04:51:00,25.7,15.9,28.88,NNW,338,6.5,6.5,66,0.00,,---,0.00,VWS V14.01,2013-03-25 09:51:00,
2013-03-25 04:52:00,25.7,15.9,28.88,NNE,22,6.3,6.5,66,0.00,,---,0.00,VWS V14.01,2013-03-25 09:52:00,
2013-03-25 04:53:00,25.5,15.8,28.88,NNW,338,6.0,6.0,66,0.00,,---,0.00,VWS V14.01,2013-03-25 09:53:00,
2013-03-25 04:54:00,25.5,15.8,28.85,NNW,338,6.5,6.5,66,0.00,,---,0.00,VWS V14.01,2013-03-25 09:54:00,
2013-03-25 04:55:00,25.3,15.6,28.85,NNW,338,6.3,6.5,66,0.00,,---,0.00,VWS V14.01,2013-03-25 09:55:00,
2013-03-25 04:56:00,25.3,15.6,28.85,NNW,338,4.9,7.4,66,0.00,,---,0.00,VWS V14.01,2013-03-25 09:56:00,
2013-03-25 04:57:00,25.3,15.6,28.85,NNW,338,5.8,5.8,66,0.00,,---,0.00,VWS V14.01,2013-03-25 09:57:00,
2013-03-25 04:58:00,25.3,15.6,28.85,NNW,338,6.5,6.5,66,0.00,,---,0.00,VWS V14.01,2013-03-25 09:58:00,
2013-03-25 04:59:00,25.3,15.9,28.85,NNW,338,4.5,7.6,67,0.00,,---,0.00,VWS V14.01,2013-03-25 09:59:00,
2013-03-25 05:00:00,25.3,15.9,28.85,NNW,338,8.1,8.1,67,0.00,,---,0.00,VWS V14.01,2013-03-25 10:00:00,
2013-03-25 05:01:00,25.3,15.9,28.85,North,0,3.6,8.1,67,0.00,,---,0.00,VWS V14.01,2013-03-25 10:01:00,
2013-03-25 05:02:00,25.2,15.8,28.85,NNW,338,5.8,6.0,67,0.00,,---,0.00,VWS V14.01,2013-03-25 10:02:00,
2013-03-25 05:03:00,25.2,15.8,28.85,NNW,338,5.8,5.8,67,0.00,,---,0.00,VWS V14.01,2013-03-25 10:03:00,
2013-03-25 05:04:00,25.2,15.8,28.85,NNW,338,4.3,5.8,67,0.00,,---,0.00,VWS V14.01,2013-03-25 10:04:00,
2013-03-25 05:05:00,25.2,15.8,28.85,NNW,338,4.7,4.9,67,0.00,,---,0.00,VWS V14.01,2013-03-25 10:05:00,
2013-03-25 05:06:00,25.2,15.8,28.85,North,0,4.9,7.6,67,0.00,,---,0.00,VWS V14.01,2013-03-25 10:06:00,
2013-03-25 05:07:00,25.0,15.6,28.85,NW,315,5.6,6.5,67,0.00,,---,0.00,VWS V14.01,2013-03-25 10:07:00,
2013-03-25 05:08:00,25.0,15.6,28.85,NNW,338,4.9,6.0,67,0.00,,---,0.00,VWS V14.01,2013-03-25 10:08:00,
2013-03-25 05:09:00,25.0,15.6,28.88,NNW,338,6.3,6.3,67,0.00,,---,0.00,VWS V14.01,2013-03-25 10:09:00,
2013-03-25 05:10:00,25.0,15.6,28.88,NNW,338,5.6,6.3,67,0.00,,---,0.00,VWS V14.01,2013-03-25 10:10:00,
2013-03-25 05:11:00,24.8,15.4,28.88,WNW,292,5.4,7.2,67,0.00,,---,0.00,VWS V14.01,2013-03-25 10:11:00,
2013-03-25 05:12:00,24.8,15.4,28.88,WNW,292,5.4,5.4,67,0.00,,---,0.00,VWS V14.01,2013-03-25 10:12:00,
2013-03-25 05:13:00,24.8,15.4,28.88,NNW,338,4.9,5.6,67,0.00,,---,0.00,VWS V14.01,2013-03-25 10:13:00,
2013-03-25 05:14:00,24.8,15.4,28.88,North,0,3.8,5.6,67,0.00,,---,0.00,VWS V14.01,2013-03-25 10:14:00,
2013-03-25 05:15:00,24.8,15.4,28.88,North,0,6.3,6.3,67,0.00,,---,0.00,VWS V14.01,2013-03-25 10:15:00,
2013-03-25 05:16:00,24.8,15.4,28.88,NNW,338,6.0,6.3,67,0.00,,---,0.00,VWS V14.01,2013-03-25 10:16:00,
2013-03-25 05:17:00,24.8,15.4,28.88,NNW,338,5.4,6.0,67,0.00,,---,0.00,VWS V14.01,2013-03-25 10:17:00,
2013-03-25 05:18:00,24.8,15.4,28.88,North,0,6.0,6.0,67,0.00,,---,0.00,VWS V14.01,2013-03-25 10:18:00,
2013-03-25 05:19:00,24.8,15.4,28.88,North,0,3.4,6.0,67,0.00,,---,0.00,VWS V14.01,2013-03-25 10:19:00,
2013-03-25 05:20:00,24.8,15.4,28.88,North,0,3.4,3.4,67,0.00,,---,0.00,VWS V14.01,2013-03-25 10:20:00,
2013-03-25 05:21:00,24.8,15.4,28.88,NNW,338,3.8,4.9,67,0.00,,---,0.00,VWS V14.01,2013-03-25 10:21:00,
2013-03-25 05:22:00,24.6,15.2,28.88,North,0,4.0,5.6,67,0.00,,---,0.00,VWS V14.01,2013-03-25 10:22:00,
2013-03-25 05:23:00,24.6,15.2,28.88,NW,315,5.8,5.8,67,0.00,,---,0.00,VWS V14.01,2013-03-25 10:23:00,
2013-03-25 05:24:00,24.6,15.2,28.88,NW,315,5.8,5.8,67,0.00,,---,0.00,VWS V14.01,2013-03-25 10:24:00,
2013-03-25 05:25:00,24.6,15.2,28.88,NNW,338,8.5,8.5,67,0.00,,---,0.00,VWS V14.01,2013-03-25 10:25:00,
2013-03-25 05:26:00,24.6,15.2,28.88,NNW,338,4.0,8.5,67,0.00,,---,0.00,VWS V14.01,2013-03-25 10:26:00,
2013-03-25 05:27:00,24.6,15.2,28.88,NNW,338,4.9,6.3,67,0.00,,---,0.00,VWS V14.01,2013-03-25 10:27:00,
2013-03-25 05:28:00,24.6,15.2,28.88,NNE,22,6.0,7.2,67,0.00,,---,0.00,VWS V14.01,2013-03-25 10:28:00,
2013-03-25 05:29:00,24.6,15.2,28.88,NNW,338,5.4,7.2,67,0.00,,---,0.00,VWS V14.01,2013-03-25 10:29:00,
2013-03-25 05:30:00,24.6,15.2,28.88,NNW,338,3.6,5.4,67,0.00,,---,0.00,VWS V14.01,2013-03-25 10:30:00,
2013-03-25 05:31:00,24.6,15.2,28.88,NNW,338,6.3,6.5,67,0.00,,---,0.00,VWS V14.01,2013-03-25 10:31:00,
2013-03-25 05:32:00,24.4,15.1,28.88,NNW,338,6.5,6.5,67,0.00,,---,0.00,VWS V14.01,2013-03-25 10:32:00,
2013-03-25 05:33:00,24.4,15.1,28.88,North,0,6.3,6.3,67,0.00,,---,0.00,VWS V14.01,2013-03-25 10:33:00,
2013-03-25 05:34:00,24.4,15.1,28.88,NNW,338,5.6,6.3,67,0.00,,---,0.00,VWS V14.01,2013-03-25 10:34:00,
2013-03-25 05:35:00,24.4,15.1,28.88,NNW,338,6.5,7.4,67,0.00,,---,0.00,VWS V14.01,2013-03-25 10:35:00,
2013-03-25 05:36:00,24.4,15.1,28.88,NNW,338,5.8,6.5,67,0.00,,---,0.00,VWS V14.01,2013-03-25 10:36:00,
2013-03-25 05:37:00,24.4,15.1,28.88,NNW,338,5.6,5.8,67,0.00,,---,0.00,VWS V14.01,2013-03-25 10:37:00,
2013-03-25 05:38:00,24.3,15.2,28.88,NNW,338,6.0,6.0,68,0.00,,---,0.00,VWS V14.01,2013-03-25 10:38:00,
2013-03-25 05:40:00,24.3,15.2,28.88,NNW,338,7.6,7.8,68,0.00,,---,0.00,VWS V14.01,2013-03-25 10:40:00,
2013-03-25 05:41:00,24.3,15.2,28.88,NNW,338,7.4,8.7,68,0.00,,---,0.00,VWS V14.01,2013-03-25 10:41:00,
2013-03-25 05:42:00,24.3,15.2,28.88,NNW,338,7.6,8.1,68,0.00,,---,0.00,VWS V14.01,2013-03-25 10:42:00,
2013-03-25 05:43:00,24.3,15.2,28.88,NNW,338,6.3,7.2,68,0.00,,---,0.00,VWS V14.01,2013-03-25 10:43:00,
2013-03-25 05:45:00,24.3,15.2,28.88,NNW,338,5.4,7.2,68,0.00,,---,0.00,VWS V14.01,2013-03-25 10:45:00,
2013-03-25 05:46:00,24.3,15.2,28.88,NNW,338,8.1,8.5,68,0.00,,---,0.00,VWS V14.01,2013-03-25 10:46:00,
2013-03-25 05:47:00,24.3,15.2,28.88,NNW,338,7.2,8.1,68,0.00,,---,0.00,VWS V14.01,2013-03-25 10:47:00,
2013-03-25 05:48:00,24.3,15.2,28.88,NNW,338,6.5,6.9,68,0.00,,---,0.00,VWS V14.01,2013-03-25 10:48:00,
2013-03-25 05:49:00,24.3,15.2,28.88,NNW,338,8.5,9.4,68,0.00,,---,0.00,VWS V14.01,2013-03-25 10:49:00,
2013-03-25 05:50:00,24.3,15.2,28.88,NNW,338,6.5,9.8,68,0.00,,---,0.00,VWS V14.01,2013-03-25 10:50:00,
2013-03-25 05:51:00,24.3,15.6,28.88,NNW,338,6.3,6.5,69,0.00,,---,0.00,VWS V14.01,2013-03-25 10:51:00,
2013-03-25 05:52:00,24.3,15.6,28.88,North,0,7.2,7.8,69,0.00,,---,0.00,VWS V14.01,2013-03-25 10:52:00,
2013-03-25 05:53:00,24.3,15.6,28.88,NNW,338,5.4,6.3,69,0.00,,---,0.00,VWS V14.01,2013-03-25 10:53:00,
2013-03-25 05:54:00,24.3,15.6,28.88,NNW,338,5.4,6.3,69,0.00,,---,0.00,VWS V14.01,2013-03-25 10:54:00,
2013-03-25 05:55:00,24.1,15.4,28.88,NNW,338,6.5,6.5,69,0.00,,---,0.00,VWS V14.01,2013-03-25 10:55:00,
2013-03-25 05:56:00,23.9,15.2,28.88,NNW,338,7.6,7.6,69,0.00,,---,0.00,VWS V14.01,2013-03-25 10:56:00,
2013-03-25 05:57:00,23.9,15.2,28.88,NNW,338,7.4,8.7,69,0.00,,---,0.00,VWS V14.01,2013-03-25 10:57:00,
2013-03-25 05:58:00,23.9,15.2,28.88,NNW,338,5.4,7.4,69,0.00,,---,0.00,VWS V14.01,2013-03-25 10:58:00,
2013-03-25 05:59:00,23.7,15.1,28.88,NNW,338,6.3,6.3,69,0.00,,---,0.00,VWS V14.01,2013-03-25 10:59:00,
2013-03-25 06:00:00,23.7,15.4,28.88,NNW,338,8.1,8.1,70,0.00,,---,0.00,VWS V14.01,2013-03-25 11:00:00,
2013-03-25 06:01:00,23.7,15.4,28.88,NNW,338,7.6,8.1,70,0.00,,---,0.00,VWS V14.01,2013-03-25 11:01:00,
2013-03-25 06:02:00,23.5,15.2,28.88,NNW,338,8.7,8.7,70,0.00,,---,0.00,VWS V14.01,2013-03-25 11:02:00,
2013-03-25 06:03:00,23.5,15.5,28.88,North,0,5.4,8.7,71,0.00,,---,0.00,VWS V14.01,2013-03-25 11:03:00,
2013-03-25 06:04:00,23.5,15.5,28.88,NNW,338,7.8,7.8,71,0.00,,---,0.00,VWS V14.01,2013-03-25 11:04:00,
2013-03-25 06:05:00,23.5,15.5,28.88,NNW,338,6.5,8.5,71,0.00,,---,0.00,VWS V14.01,2013-03-25 11:05:00,
2013-03-25 06:06:00,23.5,15.5,28.88,NNW,338,7.6,7.6,71,0.00,,---,0.00,VWS V14.01,2013-03-25 11:06:00,
2013-03-25 06:07:00,23.5,15.9,28.88,NNW,338,7.6,7.6,72,0.00,,---,0.00,VWS V14.01,2013-03-25 11:07:00,
2013-03-25 06:08:00,23.5,15.9,28.88,NNW,338,7.6,9.6,72,0.00,,---,0.00,VWS V14.01,2013-03-25 11:08:00,
2013-03-25 06:09:00,23.5,15.9,28.88,NNW,338,7.8,9.6,72,0.00,,---,0.00,VWS V14.01,2013-03-25 11:09:00,
2013-03-25 06:10:00,23.5,16.2,28.88,NNW,338,7.6,8.1,73,0.00,,---,0.00,VWS V14.01,2013-03-25 11:10:00,
2013-03-25 06:11:00,23.5,16.2,28.88,NNW,338,11.0,11.0,73,0.00,,---,0.00,VWS V14.01,2013-03-25 11:11:00,
2013-03-25 06:12:00,23.5,16.5,28.88,NNW,338,8.7,11.0,74,0.00,,---,0.00,VWS V14.01,2013-03-25 11:12:00,
2013-03-25 06:13:00,23.5,16.5,28.88,NNW,338,8.7,10.1,74,0.00,,---,0.00,VWS V14.01,2013-03-25 11:13:00,
2013-03-25 06:14:00,23.5,16.5,28.88,North,0,9.6,9.6,74,0.00,,---,0.00,VWS V14.01,2013-03-25 11:14:00,
2013-03-25 06:15:00,23.5,16.5,28.88,NE,45,7.4,8.1,74,0.00,,---,0.00,VWS V14.01,2013-03-25 11:15:00,
2013-03-25 06:16:00,23.5,16.5,28.88,NNW,338,5.8,7.4,74,0.00,,---,0.00,VWS V14.01,2013-03-25 11:16:00,
2013-03-25 06:17:00,23.5,16.5,28.88,NNW,338,6.3,6.5,74,0.00,,---,0.00,VWS V14.01,2013-03-25 11:17:00,
2013-03-25 06:19:00,23.5,16.5,28.88,NNW,338,5.4,6.3,74,0.00,,---,0.00,VWS V14.01,2013-03-25 11:19:00,
2013-03-25 06:20:00,23.5,16.5,28.88,NNW,338,6.3,7.6,74,0.00,,---,0.00,VWS V14.01,2013-03-25 11:20:00,
2013-03-25 06:21:00,23.4,16.3,28.88,NNW,338,7.6,7.6,74,0.00,,---,0.00,VWS V14.01,2013-03-25 11:21:00,
2013-03-25 06:22:00,23.4,16.3,28.88,NNW,338,5.4,7.6,74,0.00,,---,0.00,VWS V14.01,2013-03-25 11:22:00,
2013-03-25 06:23:00,23.4,16.3,28.88,NNW,338,9.8,9.8,74,0.00,,---,0.00,VWS V14.01,2013-03-25 11:23:00,
2013-03-25 06:24:00,23.4,16.6,28.88,NNW,338,6.7,9.8,75,0.00,,---,0.00,VWS V14.01,2013-03-25 11:24:00,
2013-03-25 06:26:00,23.5,16.8,28.88,NNW,338,5.6,7.8,75,0.00,,---,0.00,VWS V14.01,2013-03-25 11:26:00,
2013-03-25 06:27:00,23.5,16.8,28.88,NNW,338,7.8,8.7,75,0.00,,---,0.00,VWS V14.01,2013-03-25 11:27:00,
2013-03-25 06:28:00,23.4,16.6,28.88,NNW,338,3.4,7.8,75,0.00,,---,0.00,VWS V14.01,2013-03-25 11:28:00,
2013-03-25 06:29:00,23.4,16.6,28.88,NNW,338,7.6,7.6,75,0.00,,---,0.00,VWS V14.01,2013-03-25 11:29:00,
2013-03-25 06:30:00,23.4,16.6,28.88,NNW,338,6.3,8.5,75,0.00,,---,0.00,VWS V14.01,2013-03-25 11:30:00,
2013-03-25 06:31:00,23.4,16.6,28.88,NNW,338,6.3,6.7,75,0.00,,---,0.00,VWS V14.01,2013-03-25 11:31:00,
2013-03-25 06:32:00,23.4,16.6,28.88,NNW,338,5.8,6.3,75,0.00,,---,0.00,VWS V14.01,2013-03-25 11:32:00,
2013-03-25 06:33:00,23.4,16.6,28.88,North,0,6.3,7.4,75,0.00,,---,0.00,VWS V14.01,2013-03-25 11:33:00,
2013-03-25 06:34:00,23.4,16.6,28.88,NNW,338,5.6,6.3,75,0.00,,---,0.00,VWS V14.01,2013-03-25 11:34:00,
2013-03-25 06:35:00,23.4,16.6,28.88,NNW,338,6.3,6.5,75,0.00,,---,0.00,VWS V14.01,2013-03-25 11:35:00,
2013-03-25 06:36:00,23.4,16.6,28.88,NNW,338,6.3,6.3,75,0.00,,---,0.00,VWS V14.01,2013-03-25 11:36:00,
2013-03-25 06:37:00,23.2,16.5,28.88,NNW,338,7.4,8.1,75,0.00,,---,0.00,VWS V14.01,2013-03-25 11:37:00,
2013-03-25 06:38:00,23.2,16.5,28.88,NNW,338,6.5,7.4,75,0.00,,---,0.00,VWS V14.01,2013-03-25 11:38:00,
2013-03-25 06:39:00,23.2,16.5,28.88,NNW,338,7.6,7.6,75,0.00,,---,0.00,VWS V14.01,2013-03-25 11:39:00,
2013-03-25 06:40:00,23.2,16.5,28.88,NNW,338,6.5,7.8,75,0.00,,---,0.00,VWS V14.01,2013-03-25 11:40:00,
2013-03-25 06:41:00,23.2,16.5,28.88,NNW,338,7.6,7.6,75,0.00,,---,0.00,VWS V14.01,2013-03-25 11:41:00,
2013-03-25 06:42:00,23.2,16.5,28.88,NNW,338,7.8,8.5,75,0.00,,---,0.00,VWS V14.01,2013-03-25 11:42:00,
2013-03-25 06:43:00,23.2,16.5,28.88,North,0,8.5,8.5,75,0.00,,---,0.00,VWS V14.01,2013-03-25 11:43:00,
2013-03-25 06:44:00,23.2,16.5,28.88,NNW,338,6.9,8.7,75,0.00,,---,0.00,VWS V14.01,2013-03-25 11:44:00,
2013-03-25 06:45:00,23.2,16.5,28.88,North,0,7.4,7.4,75,0.00,,---,0.00,VWS V14.01,2013-03-25 11:45:00,
2013-03-25 06:46:00,23.2,16.5,28.88,NNW,338,9.2,9.2,75,0.00,,---,0.00,VWS V14.01,2013-03-25 11:46:00,
2013-03-25 06:47:00,23.2,16.5,28.88,NNW,338,5.8,9.2,75,0.00,,---,0.00,VWS V14.01,2013-03-25 11:47:00,
2013-03-25 06:48:00,23.4,16.6,28.88,North,0,5.8,5.8,75,0.00,,---,0.00,VWS V14.01,2013-03-25 11:48:00,
2013-03-25 06:49:00,23.4,16.6,28.88,NNW,338,5.4,6.3,75,0.00,,---,0.00,VWS V14.01,2013-03-25 11:49:00,
2013-03-25 06:50:00,23.4,16.6,28.88,NNW,338,5.8,7.2,75,0.00,,---,0.00,VWS V14.01,2013-03-25 11:50:00,
2013-03-25 06:51:00,23.4,16.6,28.88,NNW,338,4.9,6.7,75,0.00,,---,0.00,VWS V14.01,2013-03-25 11:51:00,
2013-03-25 06:52:00,23.4,16.6,28.88,NNW,338,6.0,8.1,75,0.00,,---,0.00,VWS V14.01,2013-03-25 11:52:00,
2013-03-25 06:53:00,23.4,16.6,28.88,NNW,338,6.9,6.9,75,0.00,,---,0.00,VWS V14.01,2013-03-25 11:53:00,
2013-03-25 06:54:00,23.4,16.6,28.91,NNW,338,8.5,8.5,75,0.00,,---,0.00,VWS V14.01,2013-03-25 11:54:00,
2013-03-25 06:55:00,23.5,16.8,28.91,North,0,5.6,8.5,75,0.00,,---,0.00,VWS V14.01,2013-03-25 11:55:00,
2013-03-25 06:56:00,23.5,16.8,28.91,NW,315,5.6,7.4,75,0.00,,---,0.00,VWS V14.01,2013-03-25 11:56:00,
2013-03-25 06:57:00,23.5,16.8,28.91,NNW,338,5.6,8.1,75,0.00,,---,0.00,VWS V14.01,2013-03-25 11:57:00,
2013-03-25 06:58:00,23.5,16.8,28.91,NNW,338,7.8,7.8,75,0.00,,---,0.00,VWS V14.01,2013-03-25 11:58:00,
2013-03-25 06:59:00,23.5,16.8,28.91,NNW,338,7.4,7.8,75,0.00,,---,0.00,VWS V14.01,2013-03-25 11:59:00,
2013-03-25 07:00:00,23.5,16.5,28.91,NNW,338,8.1,8.7,74,0.00,,---,0.00,VWS V14.01,2013-03-25 12:00:00,
2013-03-25 07:01:00,23.7,16.7,28.91,NNW,338,6.7,8.5,74,0.00,,---,0.00,VWS V14.01,2013-03-25 12:01:00,
2013-03-25 07:02:00,23.7,16.7,28.91,NNW,338,7.6,10.1,74,0.00,,---,0.00,VWS V14.01,2013-03-25 12:02:00,
2013-03-25 07:03:00,23.7,16.7,28.91,NNW,338,7.6,8.5,74,0.00,,---,0.00,VWS V14.01,2013-03-25 12:03:00,
2013-03-25 07:04:00,23.7,16.7,28.91,NNW,338,12.8,12.8,74,0.00,,---,0.00,VWS V14.01,2013-03-25 12:04:00,
2013-03-25 07:05:00,23.7,16.7,28.91,NNW,338,8.1,10.5,74,0.00,,---,0.00,VWS V14.01,2013-03-25 12:05:00,
2013-03-25 07:06:00,23.7,16.7,28.91,NNW,338,7.8,8.1,74,0.00,,---,0.00,VWS V14.01,2013-03-25 12:06:00,
2013-03-25 07:07:00,23.7,16.7,28.91,NNW,338,8.7,8.7,74,0.00,,---,0.00,VWS V14.01,2013-03-25 12:07:00,
2013-03-25 07:08:00,23.7,16.7,28.91,NNW,338,8.7,8.7,74,0.00,,---,0.00,VWS V14.01,2013-03-25 12:08:00,
2013-03-25 07:09:00,23.9,16.5,28.91,NNW,338,7.6,10.1,73,0.00,,---,0.00,VWS V14.01,2013-03-25 12:09:00,
2013-03-25 07:10:00,23.9,16.5,28.91,NNW,338,8.7,8.7,73,0.00,,---,0.00,VWS V14.01,2013-03-25 12:10:00,
2013-03-25 07:11:00,23.9,16.5,28.91,NNW,338,7.6,8.7,73,0.00,,---,0.00,VWS V14.01,2013-03-25 12:11:00,
2013-03-25 07:12:00,23.9,16.5,28.91,NNW,338,7.6,8.5,73,0.00,,---,0.00,VWS V14.01,2013-03-25 12:12:00,
2013-03-25 07:13:00,23.9,16.5,28.91,North,0,6.7,8.5,73,0.00,,---,0.00,VWS V14.01,2013-03-25 12:13:00,
2013-03-25 07:14:00,23.9,16.5,28.91,North,0,5.8,6.7,73,0.00,,---,0.00,VWS V14.01,2013-03-25 12:14:00,
2013-03-25 07:15:00,23.9,16.2,28.91,NNW,338,5.6,6.5,72,0.00,,---,0.00,VWS V14.01,2013-03-25 12:15:00,
2013-03-25 07:16:00,23.9,16.2,28.91,NNW,338,6.5,8.7,72,0.00,,---,0.00,VWS V14.01,2013-03-25 12:16:00,
2013-03-25 07:17:00,23.9,16.2,28.91,NNW,338,6.0,6.5,72,0.00,,---,0.00,VWS V14.01,2013-03-25 12:17:00,
2013-03-25 07:18:00,23.9,16.2,28.91,NNW,338,10.3,10.3,72,0.00,,---,0.00,VWS V14.01,2013-03-25 12:18:00,
2013-03-25 07:19:00,23.9,16.2,28.91,North,0,7.4,10.3,72,0.00,,---,0.00,VWS V14.01,2013-03-25 12:19:00,
2013-03-25 07:20:00,23.9,16.2,28.91,NNW,338,2.9,7.4,72,0.00,,---,0.00,VWS V14.01,2013-03-25 12:20:00,
2013-03-25 07:21:00,23.9,16.2,28.91,NNW,338,6.5,8.1,72,0.00,,---,0.00,VWS V14.01,2013-03-25 12:21:00,
2013-03-25 07:22:00,23.9,16.2,28.91,NW,315,4.9,7.4,72,0.00,,---,0.00,VWS V14.01,2013-03-25 12:22:00,
2013-03-25 07:23:00,23.9,16.2,28.91,North,0,11.0,11.0,72,0.00,,---,0.00,VWS V14.01,2013-03-25 12:23:00,
2013-03-25 07:24:00,24.1,16.0,28.91,NNW,338,10.5,10.5,71,0.00,,---,0.00,VWS V14.01,2013-03-25 12:24:00,
2013-03-25 07:25:00,24.1,16.0,28.91,NNW,338,10.5,10.5,71,0.00,,---,0.00,VWS V14.01,2013-03-25 12:25:00,
2013-03-25 07:26:00,24.1,16.0,28.91,NNW,338,10.1,10.5,71,0.00,,---,0.00,VWS V14.01,2013-03-25 12:26:00,
2013-03-25 07:27:00,24.1,16.0,28.91,NNW,338,5.6,10.1,71,0.00,,---,0.00,VWS V14.01,2013-03-25 12:27:00,
2013-03-25 07:28:00,24.1,16.0,28.91,NNW,338,8.1,10.7,71,0.00,,---,0.00,VWS V14.01,2013-03-25 12:28:00,
2013-03-25 07:29:00,24.1,16.0,28.91,NNW,338,8.1,8.1,71,0.00,,---,0.00,VWS V14.01,2013-03-25 12:29:00,
2013-03-25 07:31:00,24.3,16.2,28.91,NNW,338,10.3,10.3,71,0.00,,---,0.00,VWS V14.01,2013-03-25 12:31:00,
2013-03-25 07:32:00,24.3,16.2,28.91,NNW,338,8.5,10.3,71,0.00,,---,0.00,VWS V14.01,2013-03-25 12:32:00,
2013-03-25 07:33:00,24.3,16.2,28.91,North,0,6.3,8.5,71,0.00,,---,0.00,VWS V14.01,2013-03-25 12:33:00,
2013-03-25 07:34:00,24.4,16.4,28.91,NNW,338,8.7,8.7,71,0.00,,---,0.00,VWS V14.01,2013-03-25 12:34:00,
2013-03-25 07:35:00,24.4,16.1,28.91,NNW,338,9.6,9.6,70,0.00,,---,0.00,VWS V14.01,2013-03-25 12:35:00,
2013-03-25 07:36:00,24.4,16.1,28.91,NNW,338,8.5,10.3,70,0.00,,---,0.00,VWS V14.01,2013-03-25 12:36:00,
2013-03-25 07:37:00,24.4,16.1,28.91,North,0,12.8,12.8,70,0.00,,---,0.00,VWS V14.01,2013-03-25 12:37:00,
2013-03-25 07:38:00,24.4,16.1,28.91,NNW,338,7.8,12.8,70,0.00,,---,0.00,VWS V14.01,2013-03-25 12:38:00,
2013-03-25 07:39:00,24.4,16.1,28.88,North,0,8.7,8.7,70,0.00,,---,0.00,VWS V14.01,2013-03-25 12:39:00,
2013-03-25 07:40:00,24.4,16.1,28.88,NNW,338,7.2,8.7,70,0.00,,---,0.00,VWS V14.01,2013-03-25 12:40:00,
2013-03-25 07:41:00,24.6,16.2,28.88,NNW,338,10.1,10.1,70,0.00,,---,0.00,VWS V14.01,2013-03-25 12:41:00,
2013-03-25 07:42:00,24.6,16.2,28.88,NNW,338,10.1,11.0,70,0.00,,---,0.00,VWS V14.01,2013-03-25 12:42:00,
2013-03-25 07:43:00,24.6,15.9,28.88,North,0,6.5,10.1,69,0.00,,---,0.00,VWS V14.01,2013-03-25 12:43:00,
2013-03-25 07:44:00,24.6,15.9,28.88,NNW,338,7.4,7.4,69,0.00,,---,0.00,VWS V14.01,2013-03-25 12:44:00,
2013-03-25 07:45:00,24.6,15.9,28.88,North,0,5.6,7.8,69,0.00,,---,0.00,VWS V14.01,2013-03-25 12:45:00,
2013-03-25 07:46:00,24.8,16.1,28.88,North,0,9.8,10.5,69,0.00,,---,0.00,VWS V14.01,2013-03-25 12:46:00,
2013-03-25 07:47:00,24.8,16.1,28.88,North,0,9.8,9.8,69,0.00,,---,0.00,VWS V14.01,2013-03-25 12:47:00,
2013-03-25 07:48:00,24.8,16.1,28.88,North,0,9.0,9.8,69,0.00,,---,0.00,VWS V14.01,2013-03-25 12:48:00,
2013-03-25 07:49:00,24.8,16.1,28.88,WNW,292,10.7,10.7,69,0.00,,---,0.00,VWS V14.01,2013-03-25 12:49:00,
2013-03-25 07:50:00,24.8,16.1,28.88,NNW,338,7.8,10.7,69,0.00,,---,0.00,VWS V14.01,2013-03-25 12:50:00,
2013-03-25 07:51:00,24.8,15.8,28.88,North,0,8.5,10.7,68,0.00,,---,0.00,VWS V14.01,2013-03-25 12:51:00,
2013-03-25 07:52:00,24.8,15.8,28.88,NNW,338,8.7,8.7,68,0.00,,---,0.00,VWS V14.01,2013-03-25 12:52:00,
2013-03-25 07:53:00,24.8,15.8,28.88,NNE,22,6.5,8.7,68,0.00,,---,0.00,VWS V14.01,2013-03-25 12:53:00,
2013-03-25 07:54:00,24.8,15.8,28.88,North,0,7.6,7.6,68,0.00,,---,0.00,VWS V14.01,2013-03-25 12:54:00,
2013-03-25 07:56:00,24.8,15.8,28.88,NNW,338,7.4,7.6,68,0.00,,---,0.00,VWS V14.01,2013-03-25 12:56:00,
2013-03-25 07:57:00,24.8,15.8,28.88,North,0,11.0,11.0,68,0.00,,---,0.00,VWS V14.01,2013-03-25 12:57:00,
2013-03-25 07:58:00,24.8,15.8,28.88,North,0,3.8,11.0,68,0.00,,---,0.00,VWS V14.01,2013-03-25 12:58:00,
2013-03-25 07:59:00,24.8,15.8,28.88,NNE,22,6.5,6.5,68,0.00,,---,0.00,VWS V14.01,2013-03-25 12:59:00,
2013-03-25 08:00:00,25.0,15.9,28.88,NNW,338,9.6,9.6,68,0.00,,---,0.00,VWS V14.01,2013-03-25 13:00:00,
2013-03-25 08:01:00,25.0,15.6,28.88,NNW,338,8.1,9.6,67,0.00,,---,0.00,VWS V14.01,2013-03-25 13:01:00,
2013-03-25 08:02:00,25.0,15.6,28.88,North,0,10.5,13.0,67,0.00,,---,0.00,VWS V14.01,2013-03-25 13:02:00,
2013-03-25 08:03:00,25.0,15.6,28.88,NNW,338,7.4,10.5,67,0.00,,---,0.00,VWS V14.01,2013-03-25 13:03:00,
2013-03-25 08:04:00,25.0,15.6,28.88,NNW,338,6.3,8.1,67,0.00,,---,0.00,VWS V14.01,2013-03-25 13:04:00,
2013-03-25 08:05:00,25.0,15.6,28.88,North,0,10.1,10.1,67,0.00,,---,0.00,VWS V14.01,2013-03-25 13:05:00,
2013-03-25 08:06:00,25.0,15.6,28.88,NNE,22,6.5,10.1,67,0.00,,---,0.00,VWS V14.01,2013-03-25 13:06:00,
2013-03-25 08:07:00,25.0,15.6,28.88,NNW,338,7.2,7.2,67,0.00,,---,0.00,VWS V14.01,2013-03-25 13:07:00,
2013-03-25 08:08:00,25.0,15.6,28.88,NNW,338,6.3,8.1,67,0.00,,---,0.00,VWS V14.01,2013-03-25 13:08:00,
2013-03-25 08:09:00,25.0,15.6,28.91,NNW,338,8.1,8.1,67,0.00,,---,0.00,VWS V14.01,2013-03-25 13:09:00,
2013-03-25 08:10:00,25.0,15.6,28.91,NNW,338,10.7,10.7,67,0.00,,---,0.00,VWS V14.01,2013-03-25 13:10:00,
2013-03-25 08:11:00,25.2,15.8,28.91,NNW,338,5.4,10.7,67,0.00,,---,0.00,VWS V14.01,2013-03-25 13:11:00,
2013-03-25 08:12:00,25.2,15.8,28.91,NNW,338,8.7,8.7,67,0.00,,---,0.00,VWS V14.01,2013-03-25 13:12:00,
2013-03-25 08:13:00,25.2,15.8,28.91,North,0,7.8,8.7,67,0.00,,---,0.00,VWS V14.01,2013-03-25 13:13:00,
2013-03-25 08:14:00,25.2,15.8,28.91,NNW,338,8.1,10.7,67,0.00,,---,0.00,VWS V14.01,2013-03-25 13:14:00,
2013-03-25 08:15:00,25.2,15.8,28.91,NNW,338,10.1,10.1,67,0.00,,---,0.00,VWS V14.01,2013-03-25 13:15:00,
2013-03-25 08:16:00,25.2,15.8,28.91,NNW,338,3.6,10.1,67,0.00,,---,0.00,VWS V14.01,2013-03-25 13:16:00,
2013-03-25 08:17:00,25.2,15.8,28.91,NNW,338,3.6,3.6,67,0.00,,---,0.00,VWS V14.01,2013-03-25 13:17:00,
2013-03-25 08:18:00,25.2,15.8,28.91,NNW,338,8.1,10.5,67,0.00,,---,0.00,VWS V14.01,2013-03-25 13:18:00,
2013-03-25 08:19:00,25.2,15.8,28.91,NNW,338,10.1,12.8,67,0.00,,---,0.00,VWS V14.01,2013-03-25 13:19:00,
2013-03-25 08:20:00,25.2,15.8,28.91,North,0,8.7,13.0,67,0.00,,---,0.00,VWS V14.01,2013-03-25 13:20:00,
2013-03-25 08:21:00,25.2,15.4,28.91,North,0,10.3,10.3,66,0.00,,---,0.00,VWS V14.01,2013-03-25 13:21:00,
2013-03-25 08:22:00,25.2,15.4,28.91,NNW,338,8.7,10.3,66,0.00,,---,0.00,VWS V14.01,2013-03-25 13:22:00,
2013-03-25 08:23:00,25.2,15.8,28.91,NNW,338,5.8,9.8,67,0.00,,---,0.00,VWS V14.01,2013-03-25 13:23:00,
2013-03-25 08:24:00,25.3,15.9,28.91,WNW,292,8.7,8.7,67,0.00,,---,0.00,VWS V14.01,2013-03-25 13:24:00,
2013-03-25 08:26:00,25.3,15.9,28.91,NNW,338,7.6,11.0,67,0.00,,---,0.00,VWS V14.01,2013-03-25 13:26:00,
2013-03-25 08:27:00,25.3,15.9,28.91,NNW,338,7.8,9.8,67,0.00,,---,0.00,VWS V14.01,2013-03-25 13:27:00,
2013-03-25 08:28:00,25.3,15.9,28.91,North,0,9.8,11.2,67,0.00,,---,0.00,VWS V14.01,2013-03-25 13:28:00,
2013-03-25 08:29:00,25.3,15.9,28.91,NNW,338,9.6,9.8,67,0.00,,---,0.00,VWS V14.01,2013-03-25 13:29:00,
2013-03-25 08:30:00,25.3,15.9,28.91,NNE,22,8.1,12.8,67,0.00,,---,0.00,VWS V14.01,2013-03-25 13:30:00,
2013-03-25 08:31:00,25.3,15.9,28.91,NNW,338,6.9,8.7,67,0.00,,---,0.00,VWS V14.01,2013-03-25 13:31:00,
2013-03-25 08:32:00,25.3,15.9,28.91,NNW,338,10.7,10.7,67,0.00,,---,0.00,VWS V14.01,2013-03-25 13:32:00,
2013-03-25 08:33:00,25.3,15.9,28.91,North,0,10.3,11.0,67,0.00,,---,0.00,VWS V14.01,2013-03-25 13:33:00,
2013-03-25 08:34:00,25.3,15.6,28.91,NNW,338,8.1,11.4,66,0.00,,---,0.00,VWS V14.01,2013-03-25 13:34:00,
2013-03-25 08:35:00,25.5,15.8,28.91,NNW,338,10.3,10.3,66,0.00,,---,0.00,VWS V14.01,2013-03-25 13:35:00,
2013-03-25 08:36:00,25.5,15.8,28.91,NNW,338,7.6,11.0,66,0.00,,---,0.00,VWS V14.01,2013-03-25 13:36:00,
2013-03-25 08:37:00,25.5,15.8,28.91,North,0,6.5,10.5,66,0.00,,---,0.00,VWS V14.01,2013-03-25 13:37:00,
2013-03-25 08:38:00,25.5,15.8,28.91,NNW,338,12.8,12.8,66,0.00,,---,0.00,VWS V14.01,2013-03-25 13:38:00,
2013-03-25 08:39:00,25.7,15.9,28.91,NNE,22,10.3,12.8,66,0.00,,---,0.00,VWS V14.01,2013-03-25 13:39:00,
2013-03-25 08:40:00,25.7,15.9,28.91,NNE,22,4.0,10.7,66,0.00,,---,0.00,VWS V14.01,2013-03-25 13:40:00,
2013-03-25 08:41:00,25.7,15.9,28.91,NNW,338,8.7,8.7,66,0.00,,---,0.00,VWS V14.01,2013-03-25 13:41:00,
2013-03-25 08:42:00,25.7,15.9,28.91,NNW,338,9.8,9.8,66,0.00,,---,0.00,VWS V14.01,2013-03-25 13:42:00,
2013-03-25 08:43:00,25.7,15.9,28.91,NNW,338,12.8,12.8,66,0.00,,---,0.00,VWS V14.01,2013-03-25 13:43:00,
2013-03-25 08:44:00,25.9,16.1,28.91,NNW,338,8.5,12.8,66,0.00,,---,0.00,VWS V14.01,2013-03-25 13:44:00,
2013-03-25 08:45:00,25.9,16.1,28.91,NNW,338,9.8,9.8,66,0.00,,---,0.00,VWS V14.01,2013-03-25 13:45:00,
2013-03-25 08:46:00,25.9,16.1,28.91,NNW,338,11.0,11.0,66,0.00,,---,0.00,VWS V14.01,2013-03-25 13:46:00,
2013-03-25 08:47:00,25.9,16.1,28.91,NNW,338,8.7,11.0,66,0.00,,---,0.00,VWS V14.01,2013-03-25 13:47:00,
2013-03-25 08:48:00,26.1,16.3,28.91,NW,315,6.0,8.7,66,0.00,,---,0.00,VWS V14.01,2013-03-25 13:48:00,
2013-03-25 08:49:00,26.1,16.3,28.91,NNW,338,10.5,10.7,66,0.00,,---,0.00,VWS V14.01,2013-03-25 13:49:00,
2013-03-25 08:50:00,26.1,16.3,28.91,NNW,338,8.7,12.5,66,0.00,,---,0.00,VWS V14.01,2013-03-25 13:50:00,
2013-03-25 08:51:00,26.1,16.3,28.91,NNW,338,9.2,11.0,66,0.00,,---,0.00,VWS V14.01,2013-03-25 13:51:00,
2013-03-25 08:52:00,26.1,16.3,28.91,North,0,10.3,10.3,66,0.00,,---,0.00,VWS V14.01,2013-03-25 13:52:00,
2013-03-25 08:53:00,26.1,16.3,28.91,NNW,338,8.7,10.3,66,0.00,,---,0.00,VWS V14.01,2013-03-25 13:53:00,
2013-03-25 08:54:00,26.1,16.3,28.91,NNW,338,8.7,8.7,66,0.00,,---,0.00,VWS V14.01,2013-03-25 13:54:00,
2013-03-25 08:55:00,26.2,16.4,28.91,NNW,338,8.5,9.2,66,0.00,,---,0.00,VWS V14.01,2013-03-25 13:55:00,
2013-03-25 08:56:00,26.2,16.4,28.91,NNW,338,10.1,10.1,66,0.00,,---,0.00,VWS V14.01,2013-03-25 13:56:00,
2013-03-25 08:57:00,26.2,16.4,28.91,NNW,338,10.3,11.0,66,0.00,,---,0.00,VWS V14.01,2013-03-25 13:57:00,
2013-03-25 08:58:00,26.2,16.4,28.91,NNW,338,9.6,10.3,66,0.00,,---,0.00,VWS V14.01,2013-03-25 13:58:00,
2013-03-25 08:59:00,26.2,16.4,28.91,WNW,292,4.9,10.7,66,0.00,,---,0.00,VWS V14.01,2013-03-25 13:59:00,
2013-03-25 09:00:00,26.4,16.6,28.91,NNW,338,8.5,8.5,66,0.00,,---,0.00,VWS V14.01,2013-03-25 14:00:00,
2013-03-25 09:01:00,26.2,16.4,28.91,NNW,338,8.5,8.5,66,0.00,,---,0.00,VWS V14.01,2013-03-25 14:01:00,
2013-03-25 09:02:00,26.2,16.4,28.91,NNW,338,5.8,8.5,66,0.00,,---,0.00,VWS V14.01,2013-03-25 14:02:00,
2013-03-25 09:03:00,26.4,16.3,28.91,NNW,338,10.5,10.5,65,0.00,,---,0.00,VWS V14.01,2013-03-25 14:03:00,
2013-03-25 09:04:00,26.4,16.3,28.91,NNW,338,8.5,12.8,65,0.00,,---,0.00,VWS V14.01,2013-03-25 14:04:00,
2013-03-25 09:05:00,26.4,16.3,28.91,NNW,338,5.8,5.8,65,0.00,,---,0.00,VWS V14.01,2013-03-25 14:05:00,
2013-03-25 09:06:00,26.6,16.8,28.91,NNW,338,10.7,10.7,66,0.00,,---,0.00,VWS V14.01,2013-03-25 14:06:00,
2013-03-25 09:07:00,26.6,16.8,28.91,NNW,338,5.6,10.7,66,0.00,,---,0.00,VWS V14.01,2013-03-25 14:07:00,
2013-03-25 09:08:00,26.6,16.8,28.91,North,0,6.5,8.5,66,0.00,,---,0.00,VWS V14.01,2013-03-25 14:08:00,
2013-03-25 09:09:00,26.6,16.8,28.91,NNW,338,11.0,11.0,66,0.00,,---,0.00,VWS V14.01,2013-03-25 14:09:00,
2013-03-25 09:10:00,26.6,16.8,28.91,NNE,22,8.5,11.0,66,0.00,,---,0.00,VWS V14.01,2013-03-25 14:10:00,
2013-03-25 09:11:00,26.8,16.6,28.91,NNW,338,9.8,9.8,65,0.00,,---,0.00,VWS V14.01,2013-03-25 14:11:00,
2013-03-25 09:12:00,26.8,16.6,28.91,NNW,338,5.6,10.3,65,0.00,,---,0.00,VWS V14.01,2013-03-25 14:12:00,
2013-03-25 09:13:00,27.0,16.8,28.91,NNW,338,5.8,10.3,65,0.00,,---,0.00,VWS V14.01,2013-03-25 14:13:00,
2013-03-25 09:14:00,27.0,16.8,28.91,NNW,338,7.6,9.8,65,0.00,,---,0.00,VWS V14.01,2013-03-25 14:14:00,
2013-03-25 09:15:00,27.0,16.8,28.91,NNW,338,6.3,8.7,65,0.00,,---,0.00,VWS V14.01,2013-03-25 14:15:00,
2013-03-25 09:16:00,27.0,16.4,28.91,NNW,338,10.5,10.7,64,0.00,,---,0.00,VWS V14.01,2013-03-25 14:16:00,
2013-03-25 09:17:00,27.0,16.4,28.91,NNW,338,7.4,10.5,64,0.00,,---,0.00,VWS V14.01,2013-03-25 14:17:00,
2013-03-25 09:18:00,27.0,16.4,28.91,NNW,338,6.3,8.7,64,0.00,,---,0.00,VWS V14.01,2013-03-25 14:18:00,
2013-03-25 09:19:00,27.0,16.4,28.91,NNW,338,10.3,10.3,64,0.00,,---,0.00,VWS V14.01,2013-03-25 14:19:00,
2013-03-25 09:21:00,27.0,16.4,28.91,NNW,338,10.5,10.5,64,0.00,,---,0.00,VWS V14.01,2013-03-25 14:21:00,
2013-03-25 09:22:00,27.0,16.4,28.91,NNW,338,8.5,10.5,64,0.00,,---,0.00,VWS V14.01,2013-03-25 14:22:00,
2013-03-25 09:23:00,27.1,16.6,28.91,NNW,338,8.5,8.5,64,0.00,,---,0.00,VWS V14.01,2013-03-25 14:23:00,
2013-03-25 09:24:00,27.1,16.6,28.91,NNW,338,7.6,8.1,64,0.00,,---,0.00,VWS V14.01,2013-03-25 14:24:00,
2013-03-25 09:25:00,27.1,16.6,28.91,NW,315,8.1,8.1,64,0.00,,---,0.00,VWS V14.01,2013-03-25 14:25:00,
2013-03-25 09:26:00,27.3,17.1,28.91,NNW,338,8.5,8.5,65,0.00,,---,0.00,VWS V14.01,2013-03-25 14:26:00,
2013-03-25 09:27:00,27.5,17.3,28.91,NNW,338,10.1,10.1,65,0.00,,---,0.00,VWS V14.01,2013-03-25 14:27:00,
2013-03-25 09:28:00,27.3,16.8,28.91,NW,315,10.7,11.0,64,0.00,,---,0.00,VWS V14.01,2013-03-25 14:28:00,
2013-03-25 09:29:00,27.5,16.9,28.91,NNW,338,10.1,10.7,64,0.00,,---,0.00,VWS V14.01,2013-03-25 14:29:00,
2013-03-25 09:30:00,27.5,16.9,28.91,NW,315,8.7,10.1,64,0.00,,---,0.00,VWS V14.01,2013-03-25 14:30:00,
2013-03-25 09:31:00,27.3,16.8,28.91,NNW,338,13.9,13.9,64,0.00,,---,0.00,VWS V14.01,2013-03-25 14:31:00,
2013-03-25 09:32:00,27.3,16.4,28.91,North,0,10.7,13.9,63,0.00,,---,0.00,VWS V14.01,2013-03-25 14:32:00,
2013-03-25 09:33:00,27.3,16.4,28.91,NNW,338,8.7,10.7,63,0.00,,---,0.00,VWS V14.01,2013-03-25 14:33:00,
2013-03-25 09:34:00,27.3,16.8,28.91,NNW,338,9.6,12.3,64,0.00,,---,0.00,VWS V14.01,2013-03-25 14:34:00,
2013-03-25 09:35:00,27.3,16.8,28.91,NNW,338,5.4,9.6,64,0.00,,---,0.00,VWS V14.01,2013-03-25 14:35:00,
2013-03-25 09:37:00,27.3,16.8,28.91,North,0,7.6,9.0,64,0.00,,---,0.00,VWS V14.01,2013-03-25 14:37:00,
2013-03-25 09:38:00,27.7,17.1,28.91,NNW,338,8.7,8.7,64,0.00,,---,0.00,VWS V14.01,2013-03-25 14:38:00,
2013-03-25 09:39:00,27.5,16.6,28.91,North,0,6.0,8.7,63,0.00,,---,0.00,VWS V14.01,2013-03-25 14:39:00,
2013-03-25 09:40:00,27.7,16.7,28.91,NNW,338,7.6,7.6,63,0.00,,---,0.00,VWS V14.01,2013-03-25 14:40:00,
2013-03-25 09:41:00,27.7,16.7,28.91,North,0,6.0,7.6,63,0.00,,---,0.00,VWS V14.01,2013-03-25 14:41:00,
2013-03-25 09:42:00,27.9,16.9,28.91,NNW,338,5.8,7.8,63,0.00,,---,0.00,VWS V14.01,2013-03-25 14:42:00,
2013-03-25 09:43:00,27.7,16.7,28.91,North,0,9.6,12.1,63,0.00,,---,0.00,VWS V14.01,2013-03-25 14:43:00,
2013-03-25 09:44:00,27.9,16.9,28.91,WNW,292,9.6,10.7,63,0.00,,---,0.00,VWS V14.01,2013-03-25 14:44:00,
2013-03-25 09:45:00,27.9,16.9,28.91,North,0,7.6,9.6,63,0.00,,---,0.00,VWS V14.01,2013-03-25 14:45:00,
2013-03-25 09:46:00,27.9,16.5,28.91,NNW,338,8.5,8.5,62,0.00,,---,0.00,VWS V14.01,2013-03-25 14:46:00,
2013-03-25 09:47:00,27.9,16.9,28.91,NW,315,5.6,10.5,63,0.00,,---,0.00,VWS V14.01,2013-03-25 14:47:00,
2013-03-25 09:48:00,27.9,16.9,28.91,NW,315,10.5,10.5,63,0.00,,---,0.00,VWS V14.01,2013-03-25 14:48:00,
2013-03-25 09:49:00,27.9,16.9,28.91,NNW,338,12.8,12.8,63,0.00,,---,0.00,VWS V14.01,2013-03-25 14:49:00,
2013-03-25 09:50:00,27.9,16.5,28.91,North,0,14.5,14.5,62,0.00,,---,0.00,VWS V14.01,2013-03-25 14:50:00,
2013-03-25 09:51:00,27.9,16.5,28.91,NNW,338,12.5,14.5,62,0.00,,---,0.00,VWS V14.01,2013-03-25 14:51:00,
2013-03-25 09:52:00,27.9,16.5,28.91,NNW,338,8.1,12.5,62,0.00,,---,0.00,VWS V14.01,2013-03-25 14:52:00,
2013-03-25 09:53:00,27.9,16.9,28.91,NNW,338,10.5,10.5,63,0.00,,---,0.00,VWS V14.01,2013-03-25 14:53:00,
2013-03-25 09:54:00,27.9,16.9,28.91,NNW,338,10.1,10.1,63,0.00,,---,0.00,VWS V14.01,2013-03-25 14:54:00,
2013-03-25 09:55:00,27.9,16.9,28.91,NNW,338,9.8,10.1,63,0.00,,---,0.00,VWS V14.01,2013-03-25 14:55:00,
2013-03-25 09:56:00,28.0,17.1,28.91,North,0,11.0,11.0,63,0.00,,---,0.00,VWS V14.01,2013-03-25 14:56:00,
2013-03-25 09:57:00,28.0,17.1,28.91,NNW,338,10.1,11.0,63,0.00,,---,0.00,VWS V14.01,2013-03-25 14:57:00,
2013-03-25 09:58:00,28.0,16.7,28.91,WNW,292,8.7,10.1,62,0.00,,---,0.00,VWS V14.01,2013-03-25 14:58:00,
2013-03-25 09:59:00,28.0,16.7,28.91,NNE,22,6.3,12.3,62,0.00,,---,0.00,VWS V14.01,2013-03-25 14:59:00,
2013-03-25 10:00:00,28.2,16.9,28.91,North,0,9.4,10.7,62,0.00,,---,0.00,VWS V14.01,2013-03-25 15:00:00,
2013-03-25 10:01:00,28.2,16.9,28.91,NNW,338,7.6,10.1,62,0.00,,---,0.00,VWS V14.01,2013-03-25 15:01:00,
2013-03-25 10:02:00,28.4,17.4,28.91,NNW,338,10.1,10.1,63,0.00,,---,0.00,VWS V14.01,2013-03-25 15:02:00,
2013-03-25 10:03:00,28.2,16.9,28.91,NNW,338,9.8,13.2,62,0.00,,---,0.00,VWS V14.01,2013-03-25 15:03:00,
2013-03-25 10:04:00,28.2,16.9,28.91,NNW,338,8.7,9.8,62,0.00,,---,0.00,VWS V14.01,2013-03-25 15:04:00,
2013-03-25 10:05:00,28.4,17.1,28.91,North,0,9.8,10.1,62,0.00,,---,0.00,VWS V14.01,2013-03-25 15:05:00,
2013-03-25 10:06:00,28.4,17.1,28.91,North,0,9.8,9.8,62,0.00,,---,0.00,VWS V14.01,2013-03-25 15:06:00,
2013-03-25 10:07:00,28.4,17.1,28.91,NNW,338,7.8,9.8,62,0.00,,---,0.00,VWS V14.01,2013-03-25 15:07:00,
2013-03-25 10:08:00,28.4,17.1,28.91,NNW,338,8.5,10.7,62,0.00,,---,0.00,VWS V14.01,2013-03-25 15:08:00,
2013-03-25 10:09:00,28.2,16.5,28.91,North,0,10.1,10.1,61,0.00,,---,0.00,VWS V14.01,2013-03-25 15:09:00,
2013-03-25 10:10:00,28.2,16.5,28.91,North,0,7.6,13.2,61,0.00,,---,0.00,VWS V14.01,2013-03-25 15:10:00,
2013-03-25 10:11:00,28.4,16.7,28.91,NNW,338,9.8,9.8,61,0.00,,---,0.00,VWS V14.01,2013-03-25 15:11:00,
2013-03-25 10:12:00,28.6,16.9,28.91,East,90,8.1,12.5,61,0.00,,---,0.00,VWS V14.01,2013-03-25 15:12:00,
2013-03-25 10:13:00,28.6,16.9,28.91,NNW,338,11.0,11.0,61,0.00,,---,0.00,VWS V14.01,2013-03-25 15:13:00,
2013-03-25 10:14:00,28.6,16.5,28.91,NNW,338,8.1,12.8,60,0.00,,---,0.00,VWS V14.01,2013-03-25 15:14:00,
2013-03-25 10:15:00,28.6,16.5,28.91,North,0,7.6,10.5,60,0.00,,---,0.00,VWS V14.01,2013-03-25 15:15:00,
2013-03-25 10:16:00,28.8,16.6,28.91,NNE,22,5.8,9.8,60,0.00,,---,0.00,VWS V14.01,2013-03-25 15:16:00,
2013-03-25 10:17:00,28.8,16.6,28.91,North,0,7.8,10.7,60,0.00,,---,0.00,VWS V14.01,2013-03-25 15:17:00,
2013-03-25 10:18:00,29.1,16.6,28.91,North,0,7.8,11.9,59,0.00,,---,0.00,VWS V14.01,2013-03-25 15:18:00,
2013-03-25 10:19:00,29.1,16.6,28.91,North,0,6.0,7.8,59,0.00,,---,0.00,VWS V14.01,2013-03-25 15:19:00,
2013-03-25 10:20:00,29.3,16.8,28.91,NNE,22,9.8,10.5,59,0.00,,---,0.00,VWS V14.01,2013-03-25 15:20:00,
2013-03-25 10:21:00,29.5,16.9,28.91,NNW,338,8.5,9.8,59,0.00,,---,0.00,VWS V14.01,2013-03-25 15:21:00,
2013-03-25 10:22:00,29.5,16.9,28.91,NNW,338,9.6,9.8,59,0.00,,---,0.00,VWS V14.01,2013-03-25 15:22:00,
2013-03-25 10:23:00,29.5,16.9,28.91,NNW,338,7.6,9.6,59,0.00,,---,0.00,VWS V14.01,2013-03-25 15:23:00,
2013-03-25 10:24:00,29.7,17.1,28.91,North,0,9.6,9.6,59,0.00,,---,0.00,VWS V14.01,2013-03-25 15:24:00,
2013-03-25 10:25:00,29.7,16.7,28.91,NNE,22,7.4,9.6,58,0.00,,---,0.00,VWS V14.01,2013-03-25 15:25:00,
2013-03-25 10:26:00,29.7,16.7,28.91,NW,315,7.8,10.7,58,0.00,,---,0.00,VWS V14.01,2013-03-25 15:26:00,
2013-03-25 10:27:00,29.7,16.7,28.91,NNW,338,3.6,8.7,58,0.00,,---,0.00,VWS V14.01,2013-03-25 15:27:00,
2013-03-25 10:28:00,29.8,16.9,28.91,NNW,338,6.3,10.3,58,0.00,,---,0.00,VWS V14.01,2013-03-25 15:28:00,
2013-03-25 10:29:00,30.0,16.6,28.91,NNW,338,3.8,7.6,57,0.00,,---,0.00,VWS V14.01,2013-03-25 15:29:00,
2013-03-25 10:30:00,30.0,17.0,28.91,NNW,338,7.8,9.6,58,0.00,,---,0.00,VWS V14.01,2013-03-25 15:30:00,
2013-03-25 10:31:00,30.0,17.0,28.91,NNW,338,12.5,12.5,58,0.00,,---,0.00,VWS V14.01,2013-03-25 15:31:00,
2013-03-25 10:32:00,30.0,17.0,28.91,NNW,338,8.7,12.5,58,0.00,,---,0.00,VWS V14.01,2013-03-25 15:32:00,
2013-03-25 10:33:00,30.2,16.8,28.91,NNW,338,5.4,8.7,57,0.00,,---,0.00,VWS V14.01,2013-03-25 15:33:00,
2013-03-25 10:34:00,30.2,16.8,28.91,NW,315,5.4,5.4,57,0.00,,---,0.00,VWS V14.01,2013-03-25 15:34:00,
2013-03-25 10:36:00,30.0,16.6,28.91,North,0,7.2,8.7,57,0.00,,---,0.00,VWS V14.01,2013-03-25 15:36:00,
2013-03-25 10:37:00,30.0,16.6,28.91,North,0,12.5,12.5,57,0.00,,---,0.00,VWS V14.01,2013-03-25 15:37:00,
2013-03-25 10:38:00,30.0,16.6,28.91,NNE,22,4.9,12.5,57,0.00,,---,0.00,VWS V14.01,2013-03-25 15:38:00,
2013-03-25 10:39:00,30.2,16.8,28.94,NNE,22,11.9,11.9,57,0.00,,---,0.00,VWS V14.01,2013-03-25 15:39:00,
2013-03-25 10:40:00,30.2,16.8,28.94,North,0,5.6,11.9,57,0.00,,---,0.00,VWS V14.01,2013-03-25 15:40:00,
2013-03-25 10:41:00,30.2,16.8,28.94,North,0,5.6,5.6,57,0.00,,---,0.00,VWS V14.01,2013-03-25 15:41:00,
2013-03-25 10:42:00,30.7,16.9,28.94,NNE,22,4.9,8.7,56,0.00,,---,0.00,VWS V14.01,2013-03-25 15:42:00,
2013-03-25 10:43:00,30.6,16.7,28.94,North,0,5.8,5.8,56,0.00,,---,0.00,VWS V14.01,2013-03-25 15:43:00,
2013-03-25 10:44:00,30.6,16.7,28.94,NNW,338,6.0,8.5,56,0.00,,---,0.00,VWS V14.01,2013-03-25 15:44:00,
2013-03-25 10:45:00,30.6,16.7,28.94,NNW,338,7.4,10.3,56,0.00,,---,0.00,VWS V14.01,2013-03-25 15:45:00,
2013-03-25 10:46:00,30.6,16.7,28.94,NNW,338,5.8,7.8,56,0.00,,---,0.00,VWS V14.01,2013-03-25 15:46:00,
2013-03-25 10:47:00,30.4,16.6,28.94,NNW,338,7.4,10.7,56,0.00,,---,0.00,VWS V14.01,2013-03-25 15:47:00,
2013-03-25 10:48:00,30.4,16.6,28.94,NNW,338,6.7,7.4,56,0.00,,---,0.00,VWS V14.01,2013-03-25 15:48:00,
2013-03-25 10:49:00,30.4,16.6,28.94,North,0,8.1,8.1,56,0.00,,---,0.00,VWS V14.01,2013-03-25 15:49:00,
2013-03-25 10:50:00,30.4,16.6,28.94,North,0,7.6,11.0,56,0.00,,---,0.00,VWS V14.01,2013-03-25 15:50:00,
2013-03-25 10:51:00,30.4,16.6,28.94,NNW,338,4.9,8.5,56,0.00,,---,0.00,VWS V14.01,2013-03-25 15:51:00,
2013-03-25 10:52:00,30.2,16.8,28.94,NNW,338,10.5,10.7,57,0.00,,---,0.00,VWS V14.01,2013-03-25 15:52:00,
2013-03-25 10:53:00,30.2,16.8,28.94,NNW,338,5.8,10.5,57,0.00,,---,0.00,VWS V14.01,2013-03-25 15:53:00,
2013-03-25 10:54:00,30.2,16.8,28.94,North,0,7.4,10.3,57,0.00,,---,0.00,VWS V14.01,2013-03-25 15:54:00,
2013-03-25 10:55:00,30.2,16.8,28.94,NNW,338,5.4,7.4,57,0.00,,---,0.00,VWS V14.01,2013-03-25 15:55:00,
2013-03-25 10:56:00,30.6,17.1,28.94,North,0,10.3,10.3,57,0.00,,---,0.00,VWS V14.01,2013-03-25 15:56:00,
2013-03-25 10:57:00,30.6,17.1,28.94,NNW,338,7.2,10.3,57,0.00,,---,0.00,VWS V14.01,2013-03-25 15:57:00,
2013-03-25 10:58:00,30.6,17.1,28.94,NNW,338,7.6,7.6,57,0.00,,---,0.00,VWS V14.01,2013-03-25 15:58:00,
2013-03-25 10:59:00,30.6,17.1,28.94,North,0,7.8,8.5,57,0.00,,---,0.00,VWS V14.01,2013-03-25 15:59:00,
2013-03-25 11:00:00,30.7,16.9,28.94,NNE,22,7.8,7.8,56,0.00,,---,0.00,VWS V14.01,2013-03-25 16:00:00,
2013-03-25 11:01:00,30.7,16.9,28.94,NNW,338,6.7,7.8,56,0.00,,---,0.00,VWS V14.01,2013-03-25 16:01:00,
2013-03-25 11:02:00,30.9,17.1,28.94,North,0,8.5,8.5,56,0.00,,---,0.00,VWS V14.01,2013-03-25 16:02:00,
2013-03-25 11:03:00,30.9,17.1,28.94,NNW,338,6.3,6.3,56,0.00,,---,0.00,VWS V14.01,2013-03-25 16:03:00,
2013-03-25 11:04:00,30.9,16.7,28.94,NNE,22,6.0,6.3,55,0.00,,---,0.00,VWS V14.01,2013-03-25 16:04:00,
2013-03-25 11:05:00,31.1,16.8,28.94,NNE,22,6.5,8.5,55,0.00,,---,0.00,VWS V14.01,2013-03-25 16:05:00,
2013-03-25 11:06:00,31.1,16.8,28.94,NNE,22,6.0,10.1,55,0.00,,---,0.00,VWS V14.01,2013-03-25 16:06:00,
2013-03-25 11:07:00,31.1,16.4,28.94,North,0,10.1,10.7,54,0.00,,---,0.00,VWS V14.01,2013-03-25 16:07:00,
2013-03-25 11:08:00,31.3,16.6,28.94,NNE,22,9.2,9.2,54,0.00,,---,0.00,VWS V14.01,2013-03-25 16:08:00,
2013-03-25 11:09:00,31.3,16.6,28.94,North,0,7.4,11.2,54,0.00,,---,0.00,VWS V14.01,2013-03-25 16:09:00,
2013-03-25 11:10:00,31.3,16.6,28.94,North,0,9.8,9.8,54,0.00,,---,0.00,VWS V14.01,2013-03-25 16:10:00,
2013-03-25 11:11:00,31.3,16.6,28.94,NE,45,7.2,9.8,54,0.00,,---,0.00,VWS V14.01,2013-03-25 16:11:00,
2013-03-25 11:12:00,31.5,16.8,28.94,NW,315,8.1,10.1,54,0.00,,---,0.00,VWS V14.01,2013-03-25 16:12:00,
2013-03-25 11:13:00,31.5,17.2,28.94,NNW,338,5.6,5.8,55,0.00,,---,0.00,VWS V14.01,2013-03-25 16:13:00,
2013-03-25 11:14:00,31.3,17.0,28.94,NNW,338,5.4,7.8,55,0.00,,---,0.00,VWS V14.01,2013-03-25 16:14:00,
2013-03-25 11:15:00,31.3,17.0,28.94,North,0,7.2,8.1,55,0.00,,---,0.00,VWS V14.01,2013-03-25 16:15:00,
2013-03-25 11:16:00,31.3,17.0,28.94,NNW,338,5.6,7.2,55,0.00,,---,0.00,VWS V14.01,2013-03-25 16:16:00,
2013-03-25 11:17:00,31.5,17.2,28.94,NNW,338,7.2,7.2,55,0.00,,---,0.00,VWS V14.01,2013-03-25 16:17:00,
2013-03-25 11:18:00,31.5,17.2,28.94,North,0,6.9,8.5,55,0.00,,---,0.00,VWS V14.01,2013-03-25 16:18:00,
2013-03-25 11:19:00,31.5,17.6,28.94,North,0,7.6,8.5,56,0.00,,---,0.00,VWS V14.01,2013-03-25 16:19:00,
2013-03-25 11:20:00,31.3,17.0,28.94,NNW,338,10.1,12.5,55,0.00,,---,0.00,VWS V14.01,2013-03-25 16:20:00,
2013-03-25 11:21:00,31.3,17.0,28.94,NW,315,6.3,10.1,55,0.00,,---,0.00,VWS V14.01,2013-03-25 16:21:00,
2013-03-25 11:22:00,31.5,17.2,28.94,North,0,6.5,6.5,55,0.00,,---,0.00,VWS V14.01,2013-03-25 16:22:00,
2013-03-25 11:23:00,32.0,17.7,28.94,NNE,22,8.1,8.1,55,0.00,,---,0.00,VWS V14.01,2013-03-25 16:23:00,
2013-03-25 11:24:00,32.5,17.8,28.94,NNW,338,5.6,13.0,54,0.00,,---,0.00,VWS V14.01,2013-03-25 16:24:00,
2013-03-25 11:25:00,32.5,17.8,28.94,NNW,338,7.4,7.4,54,0.00,,---,0.00,VWS V14.01,2013-03-25 16:25:00,
2013-03-25 11:26:00,32.5,17.8,28.94,North,0,10.3,10.3,54,0.00,,---,0.00,VWS V14.01,2013-03-25 16:26:00,
2013-03-25 11:27:00,32.9,17.7,28.94,North,0,8.5,10.3,53,0.00,,---,0.00,VWS V14.01,2013-03-25 16:27:00,
2013-03-25 11:28:00,33.6,18.3,28.94,North,0,5.4,5.4,53,0.00,,---,0.00,VWS V14.01,2013-03-25 16:28:00,
2013-03-25 11:29:00,33.6,18.3,28.94,NNE,22,3.4,5.4,53,0.00,,---,0.00,VWS V14.01,2013-03-25 16:29:00,
2013-03-25 11:30:00,34.0,18.7,28.94,NNW,338,7.4,8.5,53,0.00,,---,0.00,VWS V14.01,2013-03-25 16:30:00,
2013-03-25 11:31:00,34.0,18.7,28.94,North,0,13.2,13.2,53,0.00,,---,0.00,VWS V14.01,2013-03-25 16:31:00,
2013-03-25 11:32:00,33.6,18.3,28.94,NNW,338,7.8,13.2,53,0.00,,---,0.00,VWS V14.01,2013-03-25 16:32:00,
2013-03-25 11:33:00,33.6,18.3,28.94,NNE,22,10.5,10.5,53,0.00,,---,0.00,VWS V14.01,2013-03-25 16:33:00,
2013-03-25 11:34:00,33.6,18.3,28.94,NNW,338,6.5,10.5,53,0.00,,---,0.00,VWS V14.01,2013-03-25 16:34:00,
2013-03-25 11:35:00,33.6,18.3,28.94,NNW,338,10.1,10.1,53,0.00,,---,0.00,VWS V14.01,2013-03-25 16:35:00,
2013-03-25 11:37:00,33.6,18.3,28.94,NNW,338,9.8,12.1,53,0.00,,---,0.00,VWS V14.01,2013-03-25 16:37:00,
2013-03-25 11:38:00,33.6,18.3,28.94,NNW,338,7.8,12.1,53,0.00,,---,0.00,VWS V14.01,2013-03-25 16:38:00,
2013-03-25 11:39:00,33.6,17.9,28.94,NNW,338,9.8,12.1,52,0.00,,---,0.00,VWS V14.01,2013-03-25 16:39:00,
2013-03-25 11:40:00,33.6,17.9,28.94,North,0,12.3,12.3,52,0.00,,---,0.00,VWS V14.01,2013-03-25 16:40:00,
2013-03-25 11:41:00,33.6,17.9,28.94,NNW,338,9.8,12.3,52,0.00,,---,0.00,VWS V14.01,2013-03-25 16:41:00,
2013-03-25 11:42:00,33.6,18.3,28.94,North,0,11.0,11.0,53,0.00,,---,0.00,VWS V14.01,2013-03-25 16:42:00,
2013-03-25 11:43:00,33.8,18.0,28.94,NNW,338,7.6,10.3,52,0.00,,---,0.00,VWS V14.01,2013-03-25 16:43:00,
2013-03-25 11:44:00,33.8,18.0,28.94,NNE,22,4.3,10.3,52,0.00,,---,0.00,VWS V14.01,2013-03-25 16:44:00,
2013-03-25 11:45:00,34.3,18.6,28.94,NNW,338,9.0,9.0,52,0.00,,---,0.00,VWS V14.01,2013-03-25 16:45:00,
2013-03-25 11:46:00,34.2,18.4,28.94,NNW,338,10.5,11.2,52,0.00,,---,0.00,VWS V14.01,2013-03-25 16:46:00,
2013-03-25 11:47:00,34.3,18.6,28.94,NNW,338,10.3,10.7,52,0.00,,---,0.00,VWS V14.01,2013-03-25 16:47:00,
2013-03-25 11:48:00,34.2,18.4,28.94,NNW,338,5.6,6.0,52,0.00,,---,0.00,VWS V14.01,2013-03-25 16:48:00,
2013-03-25 11:49:00,34.3,18.6,28.94,NNW,338,9.4,9.4,52,0.00,,---,0.00,VWS V14.01,2013-03-25 16:49:00,
2013-03-25 11:51:00,34.3,18.6,28.94,NNW,338,4.3,10.1,52,0.00,,---,0.00,VWS V14.01,2013-03-25 16:51:00,
2013-03-25 11:52:00,34.3,18.6,28.94,North,0,4.0,5.6,52,0.00,,---,0.00,VWS V14.01,2013-03-25 16:52:00,
2013-03-25 11:53:00,35.2,18.9,28.94,NNE,22,3.8,7.2,51,0.00,,---,0.00,VWS V14.01,2013-03-25 16:53:00,
2013-03-25 11:54:00,35.6,18.8,28.94,NNE,22,11.0,11.0,50,0.00,,---,0.00,VWS V14.01,2013-03-25 16:54:00,
2013-03-25 11:55:00,35.6,18.8,28.94,NNE,22,6.5,11.0,50,0.00,,---,0.00,VWS V14.01,2013-03-25 16:55:00,
2013-03-25 11:56:00,35.6,18.8,28.94,NNE,22,6.5,6.5,50,0.00,,---,0.00,VWS V14.01,2013-03-25 16:56:00,
2013-03-25 11:57:00,36.3,19.5,28.94,NNE,22,6.5,6.5,50,0.00,,---,0.00,VWS V14.01,2013-03-25 16:57:00,
2013-03-25 11:58:00,36.3,19.5,28.94,NNE,22,6.0,7.2,50,0.00,,---,0.00,VWS V14.01,2013-03-25 16:58:00,
2013-03-25 11:59:00,36.3,19.5,28.94,NNE,22,8.1,12.1,50,0.00,,---,0.00,VWS V14.01,2013-03-25 16:59:00,
2013-03-25 12:00:00,36.7,19.8,28.94,NNW,338,7.2,8.1,50,0.00,,---,0.00,VWS V14.01,2013-03-25 17:00:00,
2013-03-25 12:01:00,36.9,20.0,28.94,North,0,6.5,7.2,50,0.00,,---,0.00,VWS V14.01,2013-03-25 17:01:00,
2013-03-25 12:02:00,36.1,18.8,28.94,NNW,338,6.0,14.5,49,0.00,,---,0.00,VWS V14.01,2013-03-25 17:02:00,
2013-03-25 12:03:00,37.2,19.4,28.94,NNE,22,8.5,8.5,48,0.00,,---,0.00,VWS V14.01,2013-03-25 17:03:00,
2013-03-25 12:04:00,37.2,19.4,28.94,NNE,22,6.5,8.7,48,0.00,,---,0.00,VWS V14.01,2013-03-25 17:04:00,
2013-03-25 12:05:00,37.2,19.4,28.94,NNW,338,5.6,7.4,48,0.00,,---,0.00,VWS V14.01,2013-03-25 17:05:00,
2013-03-25 12:06:00,37.4,20.0,28.94,NNW,338,7.6,7.6,49,0.00,,---,0.00,VWS V14.01,2013-03-25 17:06:00,
2013-03-25 12:07:00,37.4,20.0,28.94,North,0,6.0,7.6,49,0.00,,---,0.00,VWS V14.01,2013-03-25 17:07:00,
2013-03-25 12:08:00,37.4,20.0,28.94,North,0,5.4,5.4,49,0.00,,---,0.00,VWS V14.01,2013-03-25 17:08:00,
2013-03-25 12:09:00,37.8,19.9,28.94,NNW,338,6.0,6.0,48,0.00,,---,0.00,VWS V14.01,2013-03-25 17:09:00,
2013-03-25 12:10:00,37.4,19.0,28.94,North,0,7.6,7.6,47,0.00,,---,0.00,VWS V14.01,2013-03-25 17:10:00,
2013-03-25 12:11:00,37.4,19.0,28.94,North,0,12.1,12.1,47,0.00,,---,0.00,VWS V14.01,2013-03-25 17:11:00,
2013-03-25 12:12:00,37.8,19.4,28.94,North,0,6.5,12.1,47,0.00,,---,0.00,VWS V14.01,2013-03-25 17:12:00,
2013-03-25 12:13:00,37.6,19.2,28.94,NNW,338,8.7,10.1,47,0.00,,---,0.00,VWS V14.01,2013-03-25 17:13:00,
2013-03-25 12:14:00,37.6,19.2,28.94,NNW,338,10.5,10.5,47,0.00,,---,0.00,VWS V14.01,2013-03-25 17:14:00,
2013-03-25 12:15:00,37.4,19.0,28.94,NNW,338,10.5,10.5,47,0.00,,---,0.00,VWS V14.01,2013-03-25 17:15:00,
2013-03-25 12:16:00,37.4,19.0,28.94,NNE,22,9.8,12.8,47,0.00,,---,0.00,VWS V14.01,2013-03-25 17:16:00,
2013-03-25 12:17:00,37.0,18.7,28.94,North,0,13.2,13.2,47,0.00,,---,0.00,VWS V14.01,2013-03-25 17:17:00,
2013-03-25 12:18:00,36.7,18.4,28.94,NNW,338,10.7,13.2,47,0.00,,---,0.00,VWS V14.01,2013-03-25 17:18:00,
2013-03-25 12:19:00,36.5,18.2,28.94,NNW,338,10.7,10.7,47,0.00,,---,0.00,VWS V14.01,2013-03-25 17:19:00,
2013-03-25 12:20:00,36.5,18.2,28.94,NNE,22,9.8,10.7,47,0.00,,---,0.00,VWS V14.01,2013-03-25 17:20:00,
2013-03-25 12:21:00,36.7,18.4,28.94,NNW,338,10.7,10.7,47,0.00,,---,0.00,VWS V14.01,2013-03-25 17:21:00,
2013-03-25 12:25:00,36.5,18.2,28.94,North,0,12.5,12.5,47,0.00,,---,0.00,VWS V14.01,2013-03-25 17:25:00,
2013-03-25 12:26:00,36.1,17.9,28.94,NNW,338,13.2,13.2,47,0.00,,---,0.00,VWS V14.01,2013-03-25 17:26:00,
2013-03-25 13:39:00,36.3,18.0,28.94,NNW,338,13.2,13.2,47,0.00,,---,0.00,VWS V14.01,2013-03-25 18:39:00,
2013-03-25 13:40:00,36.3,18.0,28.94,NNW,338,13.2,13.2,47,0.00,,---,0.00,VWS V14.01,2013-03-25 18:40:00,
2013-03-25 13:43:00,36.3,18.0,28.94,NNW,338,7.4,13.2,47,0.00,,---,0.00,VWS V14.01,2013-03-25 18:43:00,
2013-03-25 13:44:00,36.3,18.0,28.94,NNW,338,10.3,10.3,47,0.00,,---,0.00,VWS V14.01,2013-03-25 18:44:00,
2013-03-25 13:45:00,36.3,18.0,28.94,NNW,338,13.2,13.6,47,0.00,,---,0.00,VWS V14.01,2013-03-25 18:45:00,
2013-03-25 13:46:00,36.5,18.2,28.94,NNW,338,9.4,12.1,47,0.00,,---,0.00,VWS V14.01,2013-03-25 18:46:00,
2013-03-25 13:47:00,36.9,18.0,28.94,NNW,338,5.8,11.0,46,0.00,,---,0.00,VWS V14.01,2013-03-25 18:47:00,
2013-03-25 13:48:00,37.6,18.7,28.94,NNW,338,7.8,8.7,46,0.00,,---,0.00,VWS V14.01,2013-03-25 18:48:00,
2013-03-25 13:49:00,37.6,18.7,28.94,NNW,338,7.4,10.1,46,0.00,,---,0.00,VWS V14.01,2013-03-25 18:49:00,
2013-03-25 13:50:00,37.4,18.0,28.94,North,0,4.9,8.5,45,0.00,,---,0.00,VWS V14.01,2013-03-25 18:50:00,
2013-03-25 13:51:00,37.4,18.0,28.94,NNW,338,10.3,10.7,45,0.00,,---,0.00,VWS V14.01,2013-03-25 18:51:00,
2013-03-25 13:52:00,37.0,18.7,28.94,NNW,338,11.2,11.2,47,0.00,,---,0.00,VWS V14.01,2013-03-25 18:52:00,
2013-03-25 13:53:00,36.7,17.9,28.94,North,0,13.0,15.2,46,0.00,,---,0.00,VWS V14.01,2013-03-25 18:53:00,
2013-03-25 13:54:00,36.5,17.7,28.94,NNW,338,12.5,13.0,46,0.00,,---,0.00,VWS V14.01,2013-03-25 18:54:00,
2013-03-25 13:55:00,36.3,17.0,28.94,North,0,8.5,13.6,45,0.00,,---,0.00,VWS V14.01,2013-03-25 18:55:00,
2013-03-25 13:56:00,36.3,17.0,28.94,NNW,338,7.8,12.5,45,0.00,,---,0.00,VWS V14.01,2013-03-25 18:56:00,
2013-03-25 13:57:00,36.7,17.9,28.94,NNW,338,10.3,10.5,46,0.00,,---,0.00,VWS V14.01,2013-03-25 18:57:00,
2013-03-25 13:58:00,37.0,18.2,28.94,North,0,14.3,14.3,46,0.00,,---,0.00,VWS V14.01,2013-03-25 18:58:00,
2013-03-25 13:59:00,37.4,17.5,28.94,NE,45,4.7,14.3,44,0.00,,---,0.00,VWS V14.01,2013-03-25 18:59:00,
2013-03-25 14:00:00,37.4,17.5,28.94,NNW,338,5.4,5.4,44,0.00,,---,0.00,VWS V14.01,2013-03-25 19:00:00,
2013-03-25 14:01:00,37.4,18.5,28.94,NNW,338,11.0,12.5,46,0.00,,---,0.00,VWS V14.01,2013-03-25 19:01:00,
2013-03-25 14:02:00,37.4,18.5,28.94,NNW,338,11.0,11.0,46,0.00,,---,0.00,VWS V14.01,2013-03-25 19:02:00,
2013-03-25 14:03:00,37.4,18.5,28.94,NNW,338,5.4,11.0,46,0.00,,---,0.00,VWS V14.01,2013-03-25 19:03:00,
2013-03-25 14:04:00,37.2,18.9,28.94,WNW,292,8.5,9.4,47,0.00,,---,0.00,VWS V14.01,2013-03-25 19:04:00,
2013-03-25 14:05:00,37.4,18.5,28.94,North,0,8.7,12.3,46,0.00,,---,0.00,VWS V14.01,2013-03-25 19:05:00,
2013-03-25 14:06:00,37.2,18.9,28.94,NNW,338,13.2,14.1,47,0.00,,---,0.00,VWS V14.01,2013-03-25 19:06:00,
2013-03-25 14:07:00,37.0,18.7,28.94,NNW,338,11.0,13.2,47,0.00,,---,0.00,VWS V14.01,2013-03-25 19:07:00,
2013-03-25 14:08:00,36.9,18.0,28.94,NW,315,12.8,12.8,46,0.00,,---,0.00,VWS V14.01,2013-03-25 19:08:00,
2013-03-25 14:10:00,36.7,18.4,28.94,NNW,338,7.8,13.0,47,0.00,,---,0.00,VWS V14.01,2013-03-25 19:10:00,
2013-03-25 14:11:00,36.9,18.5,28.94,NNW,338,10.3,10.3,47,0.00,,---,0.00,VWS V14.01,2013-03-25 19:11:00,
2013-03-25 14:12:00,37.0,18.7,28.94,NNW,338,8.7,10.3,47,0.00,,---,0.00,VWS V14.01,2013-03-25 19:12:00,
2013-03-25 14:13:00,37.4,18.5,28.94,NNW,338,5.6,8.7,46,0.00,,---,0.00,VWS V14.01,2013-03-25 19:13:00,
2013-03-25 14:14:00,37.0,18.7,28.94,NW,315,11.4,11.4,47,0.00,,---,0.00,VWS V14.01,2013-03-25 19:14:00,
2013-03-25 14:15:00,37.2,18.9,28.94,NNW,338,8.1,11.4,47,0.00,,---,0.00,VWS V14.01,2013-03-25 19:15:00,
2013-03-25 14:16:00,37.0,18.7,28.94,NNW,338,13.0,13.0,47,0.00,,---,0.00,VWS V14.01,2013-03-25 19:16:00,
2013-03-25 14:17:00,37.0,18.7,28.94,NNW,338,9.8,13.0,47,0.00,,---,0.00,VWS V14.01,2013-03-25 19:17:00,
2013-03-25 14:18:00,36.9,18.5,28.94,NNW,338,5.4,9.8,47,0.00,,---,0.00,VWS V14.01,2013-03-25 19:18:00,
2013-03-25 14:19:00,36.9,19.0,28.94,NNW,338,8.1,10.5,48,0.00,,---,0.00,VWS V14.01,2013-03-25 19:19:00,
2013-03-25 14:20:00,37.0,18.7,28.94,North,0,6.0,6.0,47,0.00,,---,0.00,VWS V14.01,2013-03-25 19:20:00,
2013-03-25 14:21:00,37.0,18.7,28.94,North,0,6.0,6.0,47,0.00,,---,0.00,VWS V14.01,2013-03-25 19:21:00,
2013-03-25 14:22:00,37.0,18.7,28.94,North,0,7.4,7.4,47,0.00,,---,0.00,VWS V14.01,2013-03-25 19:22:00,
2013-03-25 14:23:00,36.9,18.0,28.94,NW,315,10.1,10.1,46,0.00,,---,0.00,VWS V14.01,2013-03-25 19:23:00,
2013-03-25 14:24:00,36.9,18.0,28.91,NNW,338,12.5,12.5,46,0.00,,---,0.00,VWS V14.01,2013-03-25 19:24:00,
2013-03-25 14:25:00,36.9,18.0,28.91,NNW,338,8.1,12.5,46,0.00,,---,0.00,VWS V14.01,2013-03-25 19:25:00,
2013-03-25 14:26:00,36.7,17.4,28.91,NW,315,8.7,12.8,45,0.00,,---,0.00,VWS V14.01,2013-03-25 19:26:00,
2013-03-25 14:27:00,36.9,18.0,28.91,North,0,5.8,9.6,46,0.00,,---,0.00,VWS V14.01,2013-03-25 19:27:00,
2013-03-25 14:28:00,37.0,18.7,28.91,NNW,338,6.3,7.2,47,0.00,,---,0.00,VWS V14.01,2013-03-25 19:28:00,
2013-03-25 14:29:00,37.0,18.7,28.91,NNW,338,10.7,11.0,47,0.00,,---,0.00,VWS V14.01,2013-03-25 19:29:00,
2013-03-25 14:30:00,37.6,19.2,28.91,WNW,292,9.6,9.6,47,0.00,,---,0.00,VWS V14.01,2013-03-25 19:30:00,
2013-03-25 14:31:00,37.2,18.9,28.91,NNW,338,6.5,10.3,47,0.00,,---,0.00,VWS V14.01,2013-03-25 19:31:00,
2013-03-25 14:32:00,36.9,18.5,28.91,NNW,338,10.5,10.5,47,0.00,,---,0.00,VWS V14.01,2013-03-25 19:32:00,
2013-03-25 14:33:00,36.9,18.5,28.91,NNW,338,7.8,10.5,47,0.00,,---,0.00,VWS V14.01,2013-03-25 19:33:00,
2013-03-25 14:34:00,35.8,17.0,28.91,NNW,338,7.2,10.5,46,0.00,,---,0.00,VWS V14.01,2013-03-25 19:34:00,
2013-03-25 14:35:00,35.8,17.0,28.91,NNW,338,7.2,7.2,46,0.00,,---,0.00,VWS V14.01,2013-03-25 19:35:00,
2013-03-25 14:36:00,35.8,17.5,28.91,NNW,338,6.0,10.3,47,0.00,,---,0.00,VWS V14.01,2013-03-25 19:36:00,
2013-03-25 14:37:00,36.1,17.9,28.91,NNW,338,6.0,7.8,47,0.00,,---,0.00,VWS V14.01,2013-03-25 19:37:00,
2013-03-25 14:38:00,36.1,17.9,28.91,NNW,338,7.6,12.1,47,0.00,,---,0.00,VWS V14.01,2013-03-25 19:38:00,
2013-03-25 14:40:00,36.1,17.9,28.91,NNW,338,11.9,11.9,47,0.00,,---,0.00,VWS V14.01,2013-03-25 19:40:00,
2013-03-25 14:41:00,35.8,17.5,28.91,NNW,338,8.7,11.9,47,0.00,,---,0.00,VWS V14.01,2013-03-25 19:41:00,
2013-03-25 14:42:00,36.0,17.2,28.91,NNW,338,10.5,10.5,46,0.00,,---,0.00,VWS V14.01,2013-03-25 19:42:00,
2013-03-25 14:43:00,36.0,17.7,28.91,NNW,338,6.9,13.0,47,0.00,,---,0.00,VWS V14.01,2013-03-25 19:43:00,
2013-03-25 14:44:00,36.0,17.7,28.91,NNW,338,6.5,10.3,47,0.00,,---,0.00,VWS V14.01,2013-03-25 19:44:00,
2013-03-25 14:45:00,36.1,17.9,28.91,NW,315,7.4,7.6,47,0.00,,---,0.00,VWS V14.01,2013-03-25 19:45:00,
2013-03-25 14:46:00,36.1,17.9,28.91,WNW,292,8.7,8.7,47,0.00,,---,0.00,VWS V14.01,2013-03-25 19:46:00,
2013-03-25 14:47:00,36.1,17.9,28.91,WNW,292,10.5,14.5,47,0.00,,---,0.00,VWS V14.01,2013-03-25 19:47:00,
2013-03-25 14:48:00,35.4,17.2,28.91,NNW,338,5.8,10.5,47,0.00,,---,0.00,VWS V14.01,2013-03-25 19:48:00,
2013-03-25 14:49:00,35.6,17.9,28.91,NNW,338,8.7,8.7,48,0.00,,---,0.00,VWS V14.01,2013-03-25 19:49:00,
2013-03-25 14:50:00,35.8,18.0,28.91,NNW,338,10.5,11.2,48,0.00,,---,0.00,VWS V14.01,2013-03-25 19:50:00,
2013-03-25 14:51:00,35.8,17.5,28.91,NNW,338,8.7,11.2,47,0.00,,---,0.00,VWS V14.01,2013-03-25 19:51:00,
2013-03-25 14:52:00,35.8,17.5,28.91,NW,315,13.2,13.2,47,0.00,,---,0.00,VWS V14.01,2013-03-25 19:52:00,
2013-03-25 14:53:00,35.8,17.5,28.91,NNW,338,12.3,14.5,47,0.00,,---,0.00,VWS V14.01,2013-03-25 19:53:00,
2013-03-25 14:54:00,35.8,18.0,28.91,NNW,338,6.0,12.3,48,0.00,,---,0.00,VWS V14.01,2013-03-25 19:54:00,
2013-03-25 14:55:00,36.1,18.8,28.91,NNW,338,9.8,9.8,49,0.00,,---,0.00,VWS V14.01,2013-03-25 19:55:00,
2013-03-25 14:56:00,36.1,18.8,28.91,NNW,338,9.8,9.8,49,0.00,,---,0.00,VWS V14.01,2013-03-25 19:56:00,
2013-03-25 14:57:00,35.8,18.0,28.91,NNW,338,12.3,12.3,48,0.00,,---,0.00,VWS V14.01,2013-03-25 19:57:00,
2013-03-25 14:58:00,35.8,18.0,28.91,NNW,338,6.3,12.3,48,0.00,,---,0.00,VWS V14.01,2013-03-25 19:58:00,
2013-03-25 14:59:00,35.8,17.5,28.91,NNW,338,9.8,11.2,47,0.00,,---,0.00,VWS V14.01,2013-03-25 19:59:00,
2013-03-25 15:00:00,35.6,17.9,28.91,NNW,338,5.4,8.1,48,0.00,,---,0.00,VWS V14.01,2013-03-25 20:00:00,
2013-03-25 15:01:00,35.6,17.9,28.91,NNW,338,12.8,13.9,48,0.00,,---,0.00,VWS V14.01,2013-03-25 20:01:00,
2013-03-25 15:02:00,35.6,17.9,28.91,NNW,338,5.8,12.8,48,0.00,,---,0.00,VWS V14.01,2013-03-25 20:02:00,
2013-03-25 15:03:00,35.4,18.2,28.91,NNW,338,8.7,12.1,49,0.00,,---,0.00,VWS V14.01,2013-03-25 20:03:00,
2013-03-25 15:04:00,35.4,17.7,28.91,NW,315,7.4,10.5,48,0.00,,---,0.00,VWS V14.01,2013-03-25 20:04:00,
2013-03-25 15:05:00,35.4,17.7,28.91,NNW,338,7.8,13.2,48,0.00,,---,0.00,VWS V14.01,2013-03-25 20:05:00,
2013-03-25 15:06:00,35.4,17.2,28.91,NNW,338,9.6,13.2,47,0.00,,---,0.00,VWS V14.01,2013-03-25 20:06:00,
2013-03-25 15:07:00,35.4,17.2,28.91,NNW,338,10.3,10.3,47,0.00,,---,0.00,VWS V14.01,2013-03-25 20:07:00,
2013-03-25 15:08:00,35.4,17.2,28.91,NNW,338,9.8,12.3,47,0.00,,---,0.00,VWS V14.01,2013-03-25 20:08:00,
2013-03-25 15:09:00,35.1,17.4,28.91,North,0,9.6,10.3,48,0.00,,---,0.00,VWS V14.01,2013-03-25 20:09:00,
2013-03-25 15:10:00,35.1,17.4,28.91,North,0,10.1,10.1,48,0.00,,---,0.00,VWS V14.01,2013-03-25 20:10:00,
2013-03-25 15:11:00,35.2,18.0,28.91,NNW,338,7.6,10.1,49,0.00,,---,0.00,VWS V14.01,2013-03-25 20:11:00,
2013-03-25 15:12:00,35.1,17.4,28.91,NNW,338,10.3,10.3,48,0.00,,---,0.00,VWS V14.01,2013-03-25 20:12:00,
2013-03-25 15:13:00,34.9,17.2,28.91,NNW,338,10.7,13.0,48,0.00,,---,0.00,VWS V14.01,2013-03-25 20:13:00,
2013-03-25 15:14:00,34.9,17.2,28.91,NW,315,9.8,10.7,48,0.00,,---,0.00,VWS V14.01,2013-03-25 20:14:00,
2013-03-25 15:15:00,35.1,17.8,28.91,NNW,338,5.6,6.5,49,0.00,,---,0.00,VWS V14.01,2013-03-25 20:15:00,
2013-03-25 15:16:00,35.1,17.8,28.91,NNW,338,10.5,10.7,49,0.00,,---,0.00,VWS V14.01,2013-03-25 20:16:00,
2013-03-25 15:17:00,35.1,17.8,28.91,North,0,13.0,13.0,49,0.00,,---,0.00,VWS V14.01,2013-03-25 20:17:00,
2013-03-25 15:18:00,35.1,17.8,28.91,NNW,338,7.8,13.0,49,0.00,,---,0.00,VWS V14.01,2013-03-25 20:18:00,
2013-03-25 15:19:00,35.1,17.8,28.91,NNW,338,10.7,10.7,49,0.00,,---,0.00,VWS V14.01,2013-03-25 20:19:00,
2013-03-25 15:20:00,35.1,17.4,28.91,NNW,338,8.1,10.7,48,0.00,,---,0.00,VWS V14.01,2013-03-25 20:20:00,
2013-03-25 15:21:00,35.2,18.0,28.91,NNW,338,8.7,10.7,49,0.00,,---,0.00,VWS V14.01,2013-03-25 20:21:00,
2013-03-25 15:22:00,35.2,18.0,28.91,ENE,68,6.5,12.1,49,0.00,,---,0.00,VWS V14.01,2013-03-25 20:22:00,
2013-03-25 15:23:00,35.6,18.3,28.91,NNW,338,8.5,10.5,49,0.00,,---,0.00,VWS V14.01,2013-03-25 20:23:00,
2013-03-25 15:24:00,35.6,18.3,28.91,NNW,338,11.0,11.0,49,0.00,,---,0.00,VWS V14.01,2013-03-25 20:24:00,
2013-03-25 15:25:00,35.6,18.3,28.91,NNW,338,6.9,11.0,49,0.00,,---,0.00,VWS V14.01,2013-03-25 20:25:00,
2013-03-25 15:26:00,35.8,18.5,28.91,NNW,338,7.6,8.7,49,0.00,,---,0.00,VWS V14.01,2013-03-25 20:26:00,
2013-03-25 15:28:00,36.0,19.1,28.91,NNW,338,6.5,9.8,50,0.00,,---,0.00,VWS V14.01,2013-03-25 20:28:00,
2013-03-25 15:30:00,35.6,18.3,28.91,NNW,338,7.6,9.8,49,0.00,,---,0.00,VWS V14.01,2013-03-25 20:30:00,
2013-03-25 15:31:00,35.6,18.3,28.91,NNW,338,10.5,10.7,49,0.00,,---,0.00,VWS V14.01,2013-03-25 20:31:00,
2013-03-25 15:32:00,35.4,18.6,28.91,NW,315,10.3,10.7,50,0.00,,---,0.00,VWS V14.01,2013-03-25 20:32:00,
2013-03-25 15:33:00,35.4,18.6,28.91,NNW,338,16.1,16.1,50,0.00,,---,0.00,VWS V14.01,2013-03-25 20:33:00,
2013-03-25 15:34:00,35.2,18.5,28.91,NNW,338,7.4,16.1,50,0.00,,---,0.00,VWS V14.01,2013-03-25 20:34:00,
2013-03-25 15:35:00,35.2,18.5,28.91,North,0,12.5,12.5,50,0.00,,---,0.00,VWS V14.01,2013-03-25 20:35:00,
2013-03-25 15:36:00,35.2,18.5,28.91,NW,315,10.7,12.5,50,0.00,,---,0.00,VWS V14.01,2013-03-25 20:36:00,
2013-03-25 15:37:00,35.1,18.3,28.91,NNW,338,8.1,10.7,50,0.00,,---,0.00,VWS V14.01,2013-03-25 20:37:00,
2013-03-25 15:38:00,35.1,18.3,28.91,NNW,338,8.1,8.1,50,0.00,,---,0.00,VWS V14.01,2013-03-25 20:38:00,
2013-03-25 15:39:00,35.1,18.3,28.91,NNW,338,8.1,8.1,50,0.00,,---,0.00,VWS V14.01,2013-03-25 20:39:00,
2013-03-25 15:40:00,35.2,18.5,28.91,NNW,338,8.5,10.7,50,0.00,,---,0.00,VWS V14.01,2013-03-25 20:40:00,
2013-03-25 15:41:00,35.4,18.2,28.91,NNW,338,8.5,10.7,49,0.00,,---,0.00,VWS V14.01,2013-03-25 20:41:00,
2013-03-25 15:42:00,35.4,18.2,28.91,NNW,338,6.9,8.5,49,0.00,,---,0.00,VWS V14.01,2013-03-25 20:42:00,
2013-03-25 15:43:00,35.4,18.2,28.91,NNW,338,6.3,12.1,49,0.00,,---,0.00,VWS V14.01,2013-03-25 20:43:00,
2013-03-25 15:45:00,35.4,18.6,28.91,NW,315,10.5,10.5,50,0.00,,---,0.00,VWS V14.01,2013-03-25 20:45:00,
2013-03-25 15:46:00,35.4,18.6,28.91,NNW,338,7.8,10.5,50,0.00,,---,0.00,VWS V14.01,2013-03-25 20:46:00,
2013-03-25 15:47:00,35.2,18.5,28.91,NNW,338,7.6,15.2,50,0.00,,---,0.00,VWS V14.01,2013-03-25 20:47:00,
2013-03-25 15:48:00,35.4,18.6,28.91,NW,315,7.6,13.2,50,0.00,,---,0.00,VWS V14.01,2013-03-25 20:48:00,
2013-03-25 15:49:00,35.6,18.8,28.91,NNW,338,9.6,12.3,50,0.00,,---,0.00,VWS V14.01,2013-03-25 20:49:00,
2013-03-25 15:50:00,35.4,18.6,28.91,WNW,292,10.3,10.3,50,0.00,,---,0.00,VWS V14.01,2013-03-25 20:50:00,
2013-03-25 15:51:00,35.4,18.6,28.91,NNW,338,8.5,13.2,50,0.00,,---,0.00,VWS V14.01,2013-03-25 20:51:00,
2013-03-25 15:52:00,35.2,18.5,28.91,WNW,292,6.0,12.5,50,0.00,,---,0.00,VWS V14.01,2013-03-25 20:52:00,
2013-03-25 15:53:00,35.1,18.3,28.91,NNW,338,9.8,13.0,50,0.00,,---,0.00,VWS V14.01,2013-03-25 20:53:00,
2013-03-25 15:54:00,35.1,18.3,28.91,NNW,338,11.4,11.4,50,0.00,,---,0.00,VWS V14.01,2013-03-25 20:54:00,
2013-03-25 15:55:00,34.7,18.0,28.91,NNW,338,9.8,11.2,50,0.00,,---,0.00,VWS V14.01,2013-03-25 20:55:00,
2013-03-25 15:56:00,34.5,17.8,28.91,NNW,338,8.5,12.5,50,0.00,,---,0.00,VWS V14.01,2013-03-25 20:56:00,
2013-03-25 15:58:00,34.7,18.0,28.91,NNE,22,5.6,8.5,50,0.00,,---,0.00,VWS V14.01,2013-03-25 20:58:00,
2013-03-25 15:59:00,34.9,18.6,28.91,NW,315,10.7,10.7,51,0.00,,---,0.00,VWS V14.01,2013-03-25 20:59:00,
2013-03-25 16:00:00,35.1,18.3,28.91,NW,315,12.5,12.5,50,0.00,,---,0.00,VWS V14.01,2013-03-25 21:00:00,
2013-03-25 16:01:00,35.1,18.3,28.91,NNW,338,8.5,12.5,50,0.00,,---,0.00,VWS V14.01,2013-03-25 21:01:00,
2013-03-25 16:02:00,34.7,18.0,28.91,NNW,338,12.3,13.2,50,0.00,,---,0.00,VWS V14.01,2013-03-25 21:02:00,
2013-03-25 16:04:00,34.7,18.0,28.91,NNW,338,8.1,15.2,50,0.00,,---,0.00,VWS V14.01,2013-03-25 21:04:00,
2013-03-25 16:05:00,34.7,18.4,28.91,NNW,338,7.2,7.4,51,0.00,,---,0.00,VWS V14.01,2013-03-25 21:05:00,
2013-03-25 16:06:00,34.7,18.4,28.91,North,0,10.3,10.3,51,0.00,,---,0.00,VWS V14.01,2013-03-25 21:06:00,
2013-03-25 16:07:00,34.7,18.4,28.91,NNW,338,9.6,10.7,51,0.00,,---,0.00,VWS V14.01,2013-03-25 21:07:00,
2013-03-25 16:08:00,34.9,18.6,28.91,North,0,5.8,9.6,51,0.00,,---,0.00,VWS V14.01,2013-03-25 21:08:00,
2013-03-25 16:09:00,35.1,18.8,28.91,NNW,338,8.7,10.5,51,0.00,,---,0.00,VWS V14.01,2013-03-25 21:09:00,
2013-03-25 16:10:00,35.1,18.3,28.91,NNE,22,7.8,13.9,50,0.00,,---,0.00,VWS V14.01,2013-03-25 21:10:00,
2013-03-25 16:11:00,35.1,18.3,28.91,NNE,22,7.8,13.9,50,0.00,,---,0.00,VWS V14.01,2013-03-25 21:11:00,
2013-03-25 16:12:00,35.1,18.3,28.91,NNW,338,9.6,9.6,50,0.00,,---,0.00,VWS V14.01,2013-03-25 21:12:00,
2013-03-25 16:13:00,35.1,18.3,28.91,North,0,7.6,9.6,50,0.00,,---,0.00,VWS V14.01,2013-03-25 21:13:00,
2013-03-25 16:14:00,35.1,18.8,28.91,NW,315,6.3,10.5,51,0.00,,---,0.00,VWS V14.01,2013-03-25 21:14:00,
2013-03-25 16:15:00,34.7,18.4,28.91,NNW,338,13.2,13.2,51,0.00,,---,0.00,VWS V14.01,2013-03-25 21:15:00,
2013-03-25 16:16:00,34.7,18.4,28.91,NNW,338,9.8,13.2,51,0.00,,---,0.00,VWS V14.01,2013-03-25 21:16:00,
2013-03-25 16:17:00,34.5,18.3,28.91,NNW,338,9.8,10.7,51,0.00,,---,0.00,VWS V14.01,2013-03-25 21:17:00,
2013-03-25 16:18:00,34.5,18.3,28.91,NNW,338,6.0,11.0,51,0.00,,---,0.00,VWS V14.01,2013-03-25 21:18:00,
2013-03-25 16:19:00,34.7,19.3,28.91,NW,315,13.2,13.2,53,0.00,,---,0.00,VWS V14.01,2013-03-25 21:19:00,
2013-03-25 16:20:00,34.7,20.2,28.91,NW,315,8.7,12.1,55,0.00,,---,0.00,VWS V14.01,2013-03-25 21:20:00,
2013-03-25 16:21:00,34.7,20.2,28.91,NW,315,10.3,12.1,55,0.00,,---,0.00,VWS V14.01,2013-03-25 21:21:00,
2013-03-25 16:22:00,34.7,20.2,28.91,WNW,292,17.7,17.7,55,0.00,,---,0.00,VWS V14.01,2013-03-25 21:22:00,
2013-03-25 16:23:00,34.7,20.6,28.91,NW,315,8.1,17.7,56,0.00,,---,0.00,VWS V14.01,2013-03-25 21:23:00,
2013-03-25 16:25:00,34.7,20.6,28.91,NW,315,17.2,18.1,56,0.00,,---,0.00,VWS V14.01,2013-03-25 21:25:00,
2013-03-25 16:26:00,34.9,21.2,28.91,WNW,292,15.4,18.1,57,0.00,,---,0.00,VWS V14.01,2013-03-25 21:26:00,
2013-03-25 16:27:00,34.9,21.2,28.91,WNW,292,15.4,15.4,57,0.00,,---,0.00,VWS V14.01,2013-03-25 21:27:00,
2013-03-25 16:28:00,34.9,21.6,28.91,NNW,338,15.2,16.1,58,0.00,,---,0.00,VWS V14.01,2013-03-25 21:28:00,
2013-03-25 16:29:00,34.9,21.6,28.91,NNW,338,10.5,15.2,58,0.00,,---,0.00,VWS V14.01,2013-03-25 21:29:00,
2013-03-25 16:30:00,34.9,21.6,28.91,NNW,338,8.1,17.0,58,0.00,,---,0.00,VWS V14.01,2013-03-25 21:30:00,
2013-03-25 16:31:00,34.9,21.6,28.91,NW,315,13.0,13.0,58,0.00,,---,0.00,VWS V14.01,2013-03-25 21:31:00,
2013-03-25 16:32:00,34.5,21.3,28.91,WNW,292,12.3,16.1,58,0.00,,---,0.00,VWS V14.01,2013-03-25 21:32:00,
2013-03-25 16:33:00,34.5,21.3,28.91,NNW,338,7.4,12.3,58,0.00,,---,0.00,VWS V14.01,2013-03-25 21:33:00,
2013-03-25 16:34:00,34.3,21.1,28.91,NW,315,13.0,18.6,58,0.00,,---,0.00,VWS V14.01,2013-03-25 21:34:00,
2013-03-25 16:35:00,34.2,20.9,28.91,NW,315,15.2,16.1,58,0.00,,---,0.00,VWS V14.01,2013-03-25 21:35:00,
2013-03-25 16:36:00,34.0,20.8,28.91,NNW,338,17.0,17.0,58,0.00,,---,0.00,VWS V14.01,2013-03-25 21:36:00,
2013-03-25 16:37:00,34.0,20.8,28.91,NW,315,15.4,15.4,58,0.00,,---,0.00,VWS V14.01,2013-03-25 21:37:00,
2013-03-25 16:38:00,33.8,20.6,28.91,NW,315,14.1,15.4,58,0.00,,---,0.00,VWS V14.01,2013-03-25 21:38:00,
2013-03-25 16:39:00,33.8,20.6,28.94,WNW,292,12.8,14.1,58,0.00,,---,0.00,VWS V14.01,2013-03-25 21:39:00,
2013-03-25 16:40:00,33.6,20.8,28.94,WNW,292,14.1,17.0,59,0.00,,---,0.00,VWS V14.01,2013-03-25 21:40:00,
2013-03-25 16:41:00,33.6,20.8,28.94,NNW,338,12.3,14.1,59,0.00,,---,0.00,VWS V14.01,2013-03-25 21:41:00,
2013-03-25 16:42:00,33.6,20.8,28.94,NW,315,15.7,17.9,59,0.00,,---,0.00,VWS V14.01,2013-03-25 21:42:00,
2013-03-25 16:43:00,33.6,21.2,28.94,WNW,292,17.0,17.5,60,0.00,,---,0.00,VWS V14.01,2013-03-25 21:43:00,
2013-03-25 16:44:00,33.4,21.1,28.94,NW,315,15.4,19.7,60,0.00,,---,0.00,VWS V14.01,2013-03-25 21:44:00,
2013-03-25 16:45:00,33.4,21.1,28.94,NW,315,18.8,18.8,60,0.00,,---,0.00,VWS V14.01,2013-03-25 21:45:00,
2013-03-25 16:46:00,33.4,21.1,28.94,NW,315,18.8,18.8,60,0.00,,---,0.00,VWS V14.01,2013-03-25 21:46:00,
2013-03-25 16:47:00,33.6,21.2,28.94,NW,315,12.1,18.8,60,0.00,,---,0.00,VWS V14.01,2013-03-25 21:47:00,
2013-03-25 16:48:00,33.6,21.2,28.94,NW,315,12.1,12.1,60,0.00,,---,0.00,VWS V14.01,2013-03-25 21:48:00,
2013-03-25 16:49:00,33.6,21.2,28.94,North,0,17.7,17.7,60,0.00,,---,0.00,VWS V14.01,2013-03-25 21:49:00,
2013-03-25 16:50:00,33.6,21.2,28.94,WNW,292,12.3,17.7,60,0.00,,---,0.00,VWS V14.01,2013-03-25 21:50:00,
2013-03-25 16:51:00,33.8,21.4,28.94,WSW,248,13.0,13.2,60,0.00,,---,0.00,VWS V14.01,2013-03-25 21:51:00,
2013-03-25 16:52:00,33.6,21.2,28.94,WNW,292,17.7,17.7,60,0.00,,---,0.00,VWS V14.01,2013-03-25 21:52:00,
2013-03-25 16:53:00,33.6,20.8,28.94,WNW,292,13.2,17.7,59,0.00,,---,0.00,VWS V14.01,2013-03-25 21:53:00,
2013-03-25 16:54:00,33.6,20.8,28.94,WNW,292,10.5,16.6,59,0.00,,---,0.00,VWS V14.01,2013-03-25 21:54:00,
2013-03-25 16:55:00,33.6,20.8,28.94,WNW,292,11.0,17.2,59,0.00,,---,0.00,VWS V14.01,2013-03-25 21:55:00,
2013-03-25 16:56:00,33.6,20.8,28.94,NW,315,14.5,14.5,59,0.00,,---,0.00,VWS V14.01,2013-03-25 21:56:00,
2013-03-25 16:57:00,33.6,21.2,28.94,WNW,292,12.3,14.5,60,0.00,,---,0.00,VWS V14.01,2013-03-25 21:57:00,
2013-03-25 16:58:00,33.6,21.2,28.94,NNW,338,15.4,15.4,60,0.00,,---,0.00,VWS V14.01,2013-03-25 21:58:00,
2013-03-25 16:59:00,33.8,21.4,28.94,WNW,292,13.9,15.4,60,0.00,,---,0.00,VWS V14.01,2013-03-25 21:59:00,
2013-03-25 17:00:00,33.8,21.4,28.94,WNW,292,12.5,13.9,60,0.00,,---,0.00,VWS V14.01,2013-03-25 22:00:00,
2013-03-25 17:01:00,33.8,21.4,28.94,WNW,292,10.5,17.0,60,0.00,,---,0.00,VWS V14.01,2013-03-25 22:01:00,
2013-03-25 17:02:00,34.0,21.6,28.94,NW,315,11.0,13.6,60,0.00,,---,0.00,VWS V14.01,2013-03-25 22:02:00,
2013-03-25 17:03:00,34.0,21.6,28.94,NW,315,15.9,15.9,60,0.00,,---,0.00,VWS V14.01,2013-03-25 22:03:00,
2013-03-25 17:04:00,33.8,21.0,28.94,NW,315,12.5,17.2,59,0.00,,---,0.00,VWS V14.01,2013-03-25 22:04:00,
2013-03-25 17:05:00,33.8,21.0,28.94,WNW,292,10.7,13.2,59,0.00,,---,0.00,VWS V14.01,2013-03-25 22:05:00,
2013-03-25 17:06:00,33.8,21.0,28.94,WNW,292,17.0,17.0,59,0.00,,---,0.00,VWS V14.01,2013-03-25 22:06:00,
2013-03-25 17:07:00,33.8,21.0,28.94,NNW,338,11.0,17.0,59,0.00,,---,0.00,VWS V14.01,2013-03-25 22:07:00,
2013-03-25 17:08:00,33.8,21.0,28.94,NW,315,17.0,17.0,59,0.00,,---,0.00,VWS V14.01,2013-03-25 22:08:00,
2013-03-25 17:09:00,33.8,21.0,28.94,NNW,338,14.8,17.0,59,0.00,,---,0.00,VWS V14.01,2013-03-25 22:09:00,
2013-03-25 17:10:00,33.6,20.8,28.94,WNW,292,11.4,15.9,59,0.00,,---,0.00,VWS V14.01,2013-03-25 22:10:00,
2013-03-25 17:11:00,33.8,21.0,28.94,WNW,292,15.2,17.2,59,0.00,,---,0.00,VWS V14.01,2013-03-25 22:11:00,
2013-03-25 17:12:00,33.8,21.0,28.94,WNW,292,10.3,15.2,59,0.00,,---,0.00,VWS V14.01,2013-03-25 22:12:00,
2013-03-25 17:13:00,34.0,21.2,28.94,WNW,292,9.8,12.5,59,0.00,,---,0.00,VWS V14.01,2013-03-25 22:13:00,
2013-03-25 17:14:00,34.0,21.2,28.94,WNW,292,13.0,13.0,59,0.00,,---,0.00,VWS V14.01,2013-03-25 22:14:00,
2013-03-25 17:15:00,33.8,21.0,28.94,NNW,338,13.9,17.5,59,0.00,,---,0.00,VWS V14.01,2013-03-25 22:15:00,
2013-03-25 17:16:00,33.6,21.2,28.94,WNW,292,17.2,17.2,60,0.00,,---,0.00,VWS V14.01,2013-03-25 22:16:00,
2013-03-25 17:17:00,33.6,21.2,28.94,WNW,292,16.8,18.1,60,0.00,,---,0.00,VWS V14.01,2013-03-25 22:17:00,
2013-03-25 17:18:00,33.6,21.2,28.94,NW,315,16.1,16.8,60,0.00,,---,0.00,VWS V14.01,2013-03-25 22:18:00,
2013-03-25 17:19:00,33.6,21.2,28.94,NW,315,10.1,16.1,60,0.00,,---,0.00,VWS V14.01,2013-03-25 22:19:00,
2013-03-25 17:20:00,33.4,20.7,28.94,NNW,338,17.5,22.4,59,0.00,,---,0.00,VWS V14.01,2013-03-25 22:20:00,
2013-03-25 17:21:00,33.4,20.7,28.94,WNW,292,11.0,17.2,59,0.00,,---,0.00,VWS V14.01,2013-03-25 22:21:00,
2013-03-25 17:22:00,33.3,20.5,28.94,NW,315,14.5,17.2,59,0.00,,---,0.00,VWS V14.01,2013-03-25 22:22:00,
2013-03-25 17:23:00,33.3,20.5,28.94,NNW,338,9.8,17.2,59,0.00,,---,0.00,VWS V14.01,2013-03-25 22:23:00,
2013-03-25 17:24:00,33.3,20.5,28.94,NW,315,12.3,15.2,59,0.00,,---,0.00,VWS V14.01,2013-03-25 22:24:00,
2013-03-25 17:26:00,33.3,20.9,28.94,NW,315,13.0,13.0,60,0.00,,---,0.00,VWS V14.01,2013-03-25 22:26:00,
2013-03-25 17:27:00,33.3,20.9,28.94,NW,315,13.0,13.0,60,0.00,,---,0.00,VWS V14.01,2013-03-25 22:27:00,
2013-03-25 17:28:00,33.1,21.1,28.94,NW,315,15.9,17.7,61,0.00,,---,0.00,VWS V14.01,2013-03-25 22:28:00,
2013-03-25 17:29:00,33.1,21.1,28.94,NW,315,10.5,15.9,61,0.00,,---,0.00,VWS V14.01,2013-03-25 22:29:00,
2013-03-25 17:30:00,33.1,21.1,28.94,WNW,292,15.9,16.8,61,0.00,,---,0.00,VWS V14.01,2013-03-25 22:30:00,
2013-03-25 17:31:00,32.7,20.8,28.94,WNW,292,15.4,17.5,61,0.00,,---,0.00,VWS V14.01,2013-03-25 22:31:00,
2013-03-25 17:32:00,32.7,20.8,28.94,NNW,338,14.5,17.5,61,0.00,,---,0.00,VWS V14.01,2013-03-25 22:32:00,
2013-03-25 17:33:00,32.5,21.0,28.94,WNW,292,12.8,17.0,62,0.00,,---,0.00,VWS V14.01,2013-03-25 22:33:00,
2013-03-25 17:34:00,32.5,21.0,28.94,WNW,292,19.9,19.9,62,0.00,,---,0.00,VWS V14.01,2013-03-25 22:34:00,
2013-03-25 17:35:00,32.5,21.0,28.94,WNW,292,17.2,19.9,62,0.00,,---,0.00,VWS V14.01,2013-03-25 22:35:00,
2013-03-25 17:36:00,32.5,21.0,28.94,WNW,292,17.2,17.2,62,0.00,,---,0.00,VWS V14.01,2013-03-25 22:36:00,
2013-03-25 17:38:00,32.5,21.0,28.94,WNW,292,13.0,15.2,62,0.00,,---,0.00,VWS V14.01,2013-03-25 22:38:00,
2013-03-25 17:39:00,32.5,20.6,28.97,NW,315,14.5,17.5,61,0.00,,---,0.00,VWS V14.01,2013-03-25 22:39:00,
2013-03-25 17:40:00,32.4,20.8,28.97,NNW,338,15.4,15.4,62,0.00,,---,0.00,VWS V14.01,2013-03-25 22:40:00,
2013-03-25 17:41:00,32.4,20.8,28.97,NW,315,12.8,12.8,62,0.00,,---,0.00,VWS V14.01,2013-03-25 22:41:00,
2013-03-25 17:42:00,32.2,20.6,28.97,WNW,292,13.6,17.0,62,0.00,,---,0.00,VWS V14.01,2013-03-25 22:42:00,
2013-03-25 17:43:00,32.2,21.0,28.97,NNW,338,10.7,13.6,63,0.00,,---,0.00,VWS V14.01,2013-03-25 22:43:00,
2013-03-25 17:44:00,32.2,21.0,28.97,NW,315,16.1,16.1,63,0.00,,---,0.00,VWS V14.01,2013-03-25 22:44:00,
2013-03-25 17:45:00,32.2,21.0,28.97,WNW,292,15.2,17.7,63,0.00,,---,0.00,VWS V14.01,2013-03-25 22:45:00,
2013-03-25 17:46:00,31.6,20.5,28.97,NW,315,16.8,17.5,63,0.00,,---,0.00,VWS V14.01,2013-03-25 22:46:00,
2013-03-25 17:47:00,31.6,20.5,28.97,NW,315,12.5,17.5,63,0.00,,---,0.00,VWS V14.01,2013-03-25 22:47:00,
2013-03-25 17:48:00,31.5,20.3,28.97,WNW,292,14.5,15.2,63,0.00,,---,0.00,VWS V14.01,2013-03-25 22:48:00,
2013-03-25 17:49:00,31.5,20.3,28.97,NNW,338,10.5,14.5,63,0.00,,---,0.00,VWS V14.01,2013-03-25 22:49:00,
2013-03-25 17:50:00,31.5,20.7,28.97,NW,315,10.1,14.8,64,0.00,,---,0.00,VWS V14.01,2013-03-25 22:50:00,
2013-03-25 17:51:00,31.5,20.7,28.97,NW,315,17.7,17.7,64,0.00,,---,0.00,VWS V14.01,2013-03-25 22:51:00,
2013-03-25 17:52:00,31.1,20.4,28.97,NW,315,13.2,17.7,64,0.00,,---,0.00,VWS V14.01,2013-03-25 22:52:00,
2013-03-25 17:53:00,31.1,20.4,28.97,NNW,338,11.4,13.2,64,0.00,,---,0.00,VWS V14.01,2013-03-25 22:53:00,
2013-03-25 17:54:00,31.1,20.7,28.97,NW,315,12.3,12.3,65,0.00,,---,0.00,VWS V14.01,2013-03-25 22:54:00,
2013-03-25 17:55:00,31.1,20.7,28.97,NW,315,14.8,14.8,65,0.00,,---,0.00,VWS V14.01,2013-03-25 22:55:00,
2013-03-25 17:56:00,31.1,20.4,28.97,NW,315,11.4,17.7,64,0.00,,---,0.00,VWS V14.01,2013-03-25 22:56:00,
2013-03-25 17:57:00,31.1,20.4,28.97,NW,315,18.1,18.6,64,0.00,,---,0.00,VWS V14.01,2013-03-25 22:57:00,
2013-03-25 17:58:00,31.1,20.7,28.97,NW,315,12.8,15.4,65,0.00,,---,0.00,VWS V14.01,2013-03-25 22:58:00,
2013-03-25 17:59:00,31.1,20.7,28.97,NW,315,16.3,16.8,65,0.00,,---,0.00,VWS V14.01,2013-03-25 22:59:00,
2013-03-25 18:00:00,31.1,20.7,28.97,NW,315,16.3,16.3,65,0.00,,---,0.00,VWS V14.01,2013-03-25 23:00:00,
2013-03-25 18:01:00,31.1,20.7,28.97,NW,315,17.7,19.5,65,0.00,,---,0.00,VWS V14.01,2013-03-25 23:01:00,
2013-03-25 18:02:00,30.9,20.2,28.97,NW,315,12.5,17.7,64,0.00,,---,0.00,VWS V14.01,2013-03-25 23:02:00,
2013-03-25 18:03:00,31.1,20.7,28.97,NW,315,14.5,14.5,65,0.00,,---,0.00,VWS V14.01,2013-03-25 23:03:00,
2013-03-25 18:04:00,31.1,20.7,28.97,NW,315,15.2,17.7,65,0.00,,---,0.00,VWS V14.01,2013-03-25 23:04:00,
2013-03-25 18:05:00,31.1,20.4,28.97,NNW,338,12.5,17.0,64,0.00,,---,0.00,VWS V14.01,2013-03-25 23:05:00,
2013-03-25 18:06:00,30.9,20.2,28.97,NNW,338,12.8,19.5,64,0.00,,---,0.00,VWS V14.01,2013-03-25 23:06:00,
2013-03-25 18:07:00,30.9,20.2,28.97,WNW,292,14.3,14.8,64,0.00,,---,0.00,VWS V14.01,2013-03-25 23:07:00,
2013-03-25 18:08:00,30.9,20.2,28.97,NW,315,12.5,15.2,64,0.00,,---,0.00,VWS V14.01,2013-03-25 23:08:00,
2013-03-25 18:09:00,30.9,20.5,28.97,NW,315,14.1,17.5,65,0.00,,---,0.00,VWS V14.01,2013-03-25 23:09:00,
2013-03-25 18:10:00,30.7,20.4,28.97,WNW,292,20.1,20.1,65,0.00,,---,0.00,VWS V14.01,2013-03-25 23:10:00,
2013-03-25 18:11:00,30.6,20.2,28.97,NW,315,10.5,20.1,65,0.00,,---,0.00,VWS V14.01,2013-03-25 23:11:00,
2013-03-25 18:12:00,30.4,20.0,28.97,NW,315,18.6,18.6,65,0.00,,---,0.00,VWS V14.01,2013-03-25 23:12:00,
2013-03-25 18:13:00,30.2,19.9,28.97,NW,315,14.1,18.8,65,0.00,,---,0.00,VWS V14.01,2013-03-25 23:13:00,
2013-03-25 18:14:00,30.2,19.9,28.97,WNW,292,10.5,17.5,65,0.00,,---,0.00,VWS V14.01,2013-03-25 23:14:00,
2013-03-25 18:15:00,30.2,19.9,28.97,WNW,292,11.9,11.9,65,0.00,,---,0.00,VWS V14.01,2013-03-25 23:15:00,
2013-03-25 18:16:00,30.2,20.2,28.97,WNW,292,14.1,15.2,66,0.00,,---,0.00,VWS V14.01,2013-03-25 23:16:00,
2013-03-25 18:17:00,30.2,20.2,28.97,NW,315,15.4,16.1,66,0.00,,---,0.00,VWS V14.01,2013-03-25 23:17:00,
2013-03-25 18:18:00,29.8,19.9,28.97,WNW,292,13.0,15.7,66,0.00,,---,0.00,VWS V14.01,2013-03-25 23:18:00,
2013-03-25 18:19:00,29.8,19.9,28.97,NNW,338,16.3,20.4,66,0.00,,---,0.00,VWS V14.01,2013-03-25 23:19:00,
2013-03-25 18:20:00,29.8,19.9,28.97,NW,315,17.7,17.7,66,0.00,,---,0.00,VWS V14.01,2013-03-25 23:20:00,
2013-03-25 18:21:00,29.5,19.5,28.97,WNW,292,10.3,17.7,66,0.00,,---,0.00,VWS V14.01,2013-03-25 23:21:00,
2013-03-25 18:22:00,29.5,19.5,28.97,NW,315,13.0,15.4,66,0.00,,---,0.00,VWS V14.01,2013-03-25 23:22:00,
2013-03-25 18:23:00,29.5,19.5,28.97,NW,315,16.8,16.8,66,0.00,,---,0.00,VWS V14.01,2013-03-25 23:23:00,
2013-03-25 18:25:00,29.3,19.7,28.97,NW,315,17.7,17.7,67,0.00,,---,0.00,VWS V14.01,2013-03-25 23:25:00,
2013-03-25 18:26:00,29.3,19.7,28.97,NW,315,12.5,17.7,67,0.00,,---,0.00,VWS V14.01,2013-03-25 23:26:00,
2013-03-25 18:27:00,29.3,19.7,28.97,NW,315,12.1,12.1,67,0.00,,---,0.00,VWS V14.01,2013-03-25 23:27:00,
2013-03-25 18:28:00,29.3,20.1,28.97,WNW,292,12.3,12.8,68,0.00,,---,0.00,VWS V14.01,2013-03-25 23:28:00,
2013-03-25 18:29:00,29.3,20.1,28.97,NW,315,12.5,15.4,68,0.00,,---,0.00,VWS V14.01,2013-03-25 23:29:00,
2013-03-25 18:30:00,29.3,20.1,28.97,WNW,292,11.2,12.8,68,0.00,,---,0.00,VWS V14.01,2013-03-25 23:30:00,
2013-03-25 18:31:00,29.1,19.9,28.97,NW,315,14.5,14.5,68,0.00,,---,0.00,VWS V14.01,2013-03-25 23:31:00,
2013-03-25 18:32:00,29.1,19.9,28.97,NW,315,10.5,14.8,68,0.00,,---,0.00,VWS V14.01,2013-03-25 23:32:00,
2013-03-25 18:33:00,29.1,19.9,28.97,NW,315,10.3,14.8,68,0.00,,---,0.00,VWS V14.01,2013-03-25 23:33:00,
2013-03-25 18:34:00,28.9,19.7,28.97,NW,315,15.2,15.2,68,0.00,,---,0.00,VWS V14.01,2013-03-25 23:34:00,
2013-03-25 18:35:00,28.9,19.7,28.97,WNW,292,12.8,15.2,68,0.00,,---,0.00,VWS V14.01,2013-03-25 23:35:00,
2013-03-25 18:36:00,28.9,19.7,28.97,NW,315,10.1,12.8,68,0.00,,---,0.00,VWS V14.01,2013-03-25 23:36:00,
2013-03-25 18:37:00,28.9,19.7,28.97,WNW,292,13.4,13.4,68,0.00,,---,0.00,VWS V14.01,2013-03-25 23:37:00,
2013-03-25 18:38:00,28.8,19.5,28.97,NW,315,15.4,15.4,68,0.00,,---,0.00,VWS V14.01,2013-03-25 23:38:00,
2013-03-25 18:39:00,28.8,19.5,28.97,NW,315,15.4,15.4,68,0.00,,---,0.00,VWS V14.01,2013-03-25 23:39:00,
2013-03-25 18:40:00,28.6,19.4,28.97,WNW,292,16.3,16.3,68,0.00,,---,0.00,VWS V14.01,2013-03-25 23:40:00,
2013-03-25 18:41:00,28.6,19.4,28.97,NW,315,13.9,16.6,68,0.00,,---,0.00,VWS V14.01,2013-03-25 23:41:00,
2013-03-25 18:42:00,28.6,19.4,28.97,NW,315,8.7,13.9,68,0.00,,---,0.00,VWS V14.01,2013-03-25 23:42:00,
2013-03-25 18:43:00,28.6,19.4,28.97,NNW,338,13.2,14.5,68,0.00,,---,0.00,VWS V14.01,2013-03-25 23:43:00,
2013-03-25 18:44:00,28.4,19.5,28.97,NW,315,15.4,15.4,69,0.00,,---,0.00,VWS V14.01,2013-03-25 23:44:00,
2013-03-25 18:45:00,28.4,19.5,28.97,NW,315,17.2,17.2,69,0.00,,---,0.00,VWS V14.01,2013-03-25 23:45:00,
2013-03-25 18:46:00,28.2,19.4,28.97,WNW,292,12.3,17.2,69,0.00,,---,0.00,VWS V14.01,2013-03-25 23:46:00,
2013-03-25 18:47:00,28.2,19.4,28.97,NW,315,15.9,15.9,69,0.00,,---,0.00,VWS V14.01,2013-03-25 23:47:00,
2013-03-25 18:48:00,28.2,19.4,28.97,NW,315,14.8,15.9,69,0.00,,---,0.00,VWS V14.01,2013-03-25 23:48:00,
2013-03-25 18:49:00,28.0,19.5,28.97,WNW,292,13.2,15.4,70,0.00,,---,0.00,VWS V14.01,2013-03-25 23:49:00,
2013-03-25 18:50:00,28.0,19.5,28.97,NW,315,13.0,15.2,70,0.00,,---,0.00,VWS V14.01,2013-03-25 23:50:00,
2013-03-25 18:51:00,28.0,19.5,28.97,NW,315,11.0,13.2,70,0.00,,---,0.00,VWS V14.01,2013-03-25 23:51:00,
2013-03-25 18:52:00,28.0,19.5,28.97,NNW,338,12.8,12.8,70,0.00,,---,0.00,VWS V14.01,2013-03-25 23:52:00,
2013-03-25 18:53:00,27.9,19.4,28.97,NNW,338,12.5,13.4,70,0.00,,---,0.00,VWS V14.01,2013-03-25 23:53:00,
2013-03-25 18:54:00,27.9,19.4,28.97,NW,315,13.2,13.2,70,0.00,,---,0.00,VWS V14.01,2013-03-25 23:54:00,
2013-03-25 18:55:00,27.9,19.4,28.97,WNW,292,8.5,13.2,70,0.00,,---,0.00,VWS V14.01,2013-03-25 23:55:00,
2013-03-25 18:56:00,27.9,19.4,28.97,NW,315,12.3,12.3,70,0.00,,---,0.00,VWS V14.01,2013-03-25 23:56:00,
2013-03-25 18:57:00,27.9,19.7,28.97,NNW,338,12.8,16.1,71,0.00,,---,0.00,VWS V14.01,2013-03-25 23:57:00,
2013-03-25 18:58:00,27.9,19.7,28.97,NNW,338,12.5,16.1,71,0.00,,---,0.00,VWS V14.01,2013-03-25 23:58:00,
2013-03-25 18:59:00,27.7,19.5,28.97,NNW,338,14.5,14.5,71,0.00,,---,0.00,VWS V14.01,2013-03-25 23:59:00,
2013-03-25 19:00:00,27.7,19.5,28.97,NW,315,17.0,17.0,71,0.00,,---,0.00,VWS V14.01,2013-03-26 00:00:00,
2013-03-25 19:01:00,27.7,19.5,28.97,NW,315,11.2,17.0,71,0.00,,---,0.00,VWS V14.01,2013-03-26 00:01:00,
2013-03-25 19:02:00,27.5,19.0,28.97,WNW,292,15.7,15.7,70,0.00,,---,0.00,VWS V14.01,2013-03-26 00:02:00,
2013-03-25 19:03:00,27.5,19.0,28.97,WNW,292,15.7,15.7,70,0.00,,---,0.00,VWS V14.01,2013-03-26 00:03:00,
2013-03-25 19:04:00,27.3,19.2,28.97,WNW,292,12.8,15.7,71,0.00,,---,0.00,VWS V14.01,2013-03-26 00:04:00,
2013-03-25 19:06:00,27.3,19.2,28.97,NW,315,11.0,17.2,71,0.00,,---,0.00,VWS V14.01,2013-03-26 00:06:00,
2013-03-25 19:07:00,27.1,19.0,28.97,NW,315,13.2,14.8,71,0.00,,---,0.00,VWS V14.01,2013-03-26 00:07:00,
2013-03-25 19:08:00,27.1,19.0,28.97,NW,315,19.0,19.9,71,0.00,,---,0.00,VWS V14.01,2013-03-26 00:08:00,
2013-03-25 19:09:00,27.1,19.0,28.97,NNW,338,15.7,19.0,71,0.00,,---,0.00,VWS V14.01,2013-03-26 00:09:00,
2013-03-25 19:10:00,27.1,19.0,28.97,NW,315,10.3,15.7,71,0.00,,---,0.00,VWS V14.01,2013-03-26 00:10:00,
2013-03-25 19:11:00,27.0,18.8,28.97,NNW,338,14.8,17.2,71,0.00,,---,0.00,VWS V14.01,2013-03-26 00:11:00,
2013-03-25 19:12:00,27.0,18.8,28.97,NNW,338,13.2,15.9,71,0.00,,---,0.00,VWS V14.01,2013-03-26 00:12:00,
2013-03-25 19:13:00,27.0,18.8,28.97,NNW,338,11.0,15.9,71,0.00,,---,0.00,VWS V14.01,2013-03-26 00:13:00,
2013-03-25 19:14:00,27.0,18.8,28.97,NW,315,12.8,13.2,71,0.00,,---,0.00,VWS V14.01,2013-03-26 00:14:00,
2013-03-25 19:15:00,27.0,18.8,28.97,NNW,338,15.2,15.2,71,0.00,,---,0.00,VWS V14.01,2013-03-26 00:15:00,
2013-03-25 19:16:00,26.8,18.6,28.97,NW,315,19.7,19.7,71,0.00,,---,0.00,VWS V14.01,2013-03-26 00:16:00,
2013-03-25 19:17:00,26.6,18.8,28.97,NW,315,14.8,15.7,72,0.00,,---,0.00,VWS V14.01,2013-03-26 00:17:00,
2013-03-25 19:18:00,26.6,18.8,28.97,NNW,338,17.7,17.7,72,0.00,,---,0.00,VWS V14.01,2013-03-26 00:18:00,
2013-03-25 19:19:00,26.6,18.8,28.97,WNW,292,11.0,17.7,72,0.00,,---,0.00,VWS V14.01,2013-03-26 00:19:00,
2013-03-25 19:20:00,26.6,18.8,28.97,NNW,338,13.0,13.0,72,0.00,,---,0.00,VWS V14.01,2013-03-26 00:20:00,
2013-03-25 19:21:00,26.6,18.8,28.97,WNW,292,14.5,14.5,72,0.00,,---,0.00,VWS V14.01,2013-03-26 00:21:00,
2013-03-25 19:22:00,26.6,18.8,28.97,NNW,338,12.8,17.9,72,0.00,,---,0.00,VWS V14.01,2013-03-26 00:22:00,
2013-03-25 19:23:00,26.2,18.5,28.97,NW,315,15.4,17.9,72,0.00,,---,0.00,VWS V14.01,2013-03-26 00:23:00,
2013-03-25 19:24:00,26.2,18.5,28.97,WNW,292,17.5,17.5,72,0.00,,---,0.00,VWS V14.01,2013-03-26 00:24:00,
2013-03-25 19:25:00,26.2,18.5,28.97,WNW,292,12.8,17.5,72,0.00,,---,0.00,VWS V14.01,2013-03-26 00:25:00,
2013-03-25 19:26:00,26.1,18.3,28.97,NW,315,8.7,14.1,72,0.00,,---,0.00,VWS V14.01,2013-03-26 00:26:00,
2013-03-25 19:27:00,26.1,18.3,28.97,WNW,292,15.2,15.2,72,0.00,,---,0.00,VWS V14.01,2013-03-26 00:27:00,
2013-03-25 19:28:00,26.1,18.3,28.97,NW,315,16.1,19.5,72,0.00,,---,0.00,VWS V14.01,2013-03-26 00:28:00,
2013-03-25 19:29:00,26.1,18.3,28.97,NW,315,16.1,16.6,72,0.00,,---,0.00,VWS V14.01,2013-03-26 00:29:00,
2013-03-25 19:31:00,25.9,18.1,28.97,NW,315,10.7,17.0,72,0.00,,---,0.00,VWS V14.01,2013-03-26 00:31:00,
2013-03-25 19:32:00,25.7,17.9,28.97,WNW,292,14.1,15.4,72,0.00,,---,0.00,VWS V14.01,2013-03-26 00:32:00,
2013-03-25 19:33:00,25.7,17.9,28.97,NW,315,15.4,15.4,72,0.00,,---,0.00,VWS V14.01,2013-03-26 00:33:00,
2013-03-25 19:34:00,25.7,18.3,28.97,NW,315,11.4,15.4,73,0.00,,---,0.00,VWS V14.01,2013-03-26 00:34:00,
2013-03-25 19:35:00,25.7,18.3,28.97,NW,315,10.3,12.5,73,0.00,,---,0.00,VWS V14.01,2013-03-26 00:35:00,
2013-03-25 19:36:00,25.7,18.3,28.97,NW,315,12.5,12.5,73,0.00,,---,0.00,VWS V14.01,2013-03-26 00:36:00,
2013-03-25 19:37:00,25.3,17.9,28.97,NW,315,11.0,15.4,73,0.00,,---,0.00,VWS V14.01,2013-03-26 00:37:00,
2013-03-25 19:38:00,25.3,17.9,28.97,NW,315,8.1,15.4,73,0.00,,---,0.00,VWS V14.01,2013-03-26 00:38:00,
2013-03-25 19:39:00,25.3,17.9,28.97,NW,315,15.4,15.4,73,0.00,,---,0.00,VWS V14.01,2013-03-26 00:39:00,
2013-03-25 19:40:00,25.3,17.9,29.00,WNW,292,11.2,15.4,73,0.00,,---,0.00,VWS V14.01,2013-03-26 00:40:00,
2013-03-25 19:41:00,25.3,17.9,29.00,NW,315,15.4,15.9,73,0.00,,---,0.00,VWS V14.01,2013-03-26 00:41:00,
2013-03-25 19:42:00,25.2,17.7,29.00,NNW,338,12.1,16.6,73,0.00,,---,0.00,VWS V14.01,2013-03-26 00:42:00,
2013-03-25 19:43:00,25.2,17.7,29.00,NNW,338,8.5,16.6,73,0.00,,---,0.00,VWS V14.01,2013-03-26 00:43:00,
2013-03-25 19:44:00,25.2,18.0,29.00,NNW,338,14.8,16.1,74,0.00,,---,0.00,VWS V14.01,2013-03-26 00:44:00,
2013-03-25 19:45:00,25.2,18.0,29.00,NNW,338,9.8,14.8,74,0.00,,---,0.00,VWS V14.01,2013-03-26 00:45:00,
2013-03-25 19:46:00,25.2,18.0,29.00,NW,315,10.3,10.3,74,0.00,,---,0.00,VWS V14.01,2013-03-26 00:46:00,
2013-03-25 19:47:00,25.0,17.9,29.00,NW,315,12.5,13.0,74,0.00,,---,0.00,VWS V14.01,2013-03-26 00:47:00,
2013-03-25 19:48:00,25.0,17.9,29.00,North,0,15.2,15.2,74,0.00,,---,0.00,VWS V14.01,2013-03-26 00:48:00,
2013-03-25 19:49:00,25.0,17.9,29.00,NW,315,14.8,15.2,74,0.00,,---,0.00,VWS V14.01,2013-03-26 00:49:00,
2013-03-25 19:50:00,25.0,17.9,29.00,NW,315,14.8,14.8,74,0.00,,---,0.00,VWS V14.01,2013-03-26 00:50:00,
2013-03-25 19:51:00,24.8,17.7,29.00,NW,315,12.5,14.8,74,0.00,,---,0.00,VWS V14.01,2013-03-26 00:51:00,
2013-03-25 19:52:00,24.8,17.7,29.00,NW,315,14.5,14.5,74,0.00,,---,0.00,VWS V14.01,2013-03-26 00:52:00,
2013-03-25 19:53:00,24.8,17.7,29.00,NNW,338,11.4,14.5,74,0.00,,---,0.00,VWS V14.01,2013-03-26 00:53:00,
2013-03-25 19:54:00,24.8,17.7,29.00,NW,315,12.8,12.8,74,0.00,,---,0.00,VWS V14.01,2013-03-26 00:54:00,
2013-03-25 19:55:00,24.6,17.5,29.00,NW,315,10.7,12.8,74,0.00,,---,0.00,VWS V14.01,2013-03-26 00:55:00,
2013-03-25 19:56:00,24.6,17.5,29.00,NNW,338,11.4,11.4,74,0.00,,---,0.00,VWS V14.01,2013-03-26 00:56:00,
2013-03-25 19:57:00,24.6,17.5,29.00,WNW,292,13.2,15.4,74,0.00,,---,0.00,VWS V14.01,2013-03-26 00:57:00,
2013-03-25 19:58:00,24.6,17.5,29.00,NNW,338,15.4,15.4,74,0.00,,---,0.00,VWS V14.01,2013-03-26 00:58:00,
2013-03-25 19:59:00,24.6,17.5,29.00,NNW,338,15.2,16.1,74,0.00,,---,0.00,VWS V14.01,2013-03-26 00:59:00,
2013-03-25 20:00:00,24.6,17.5,29.00,NW,315,17.0,17.0,74,0.00,,---,0.00,VWS V14.01,2013-03-26 01:00:00,
2013-03-25 20:01:00,24.6,17.5,29.00,WNW,292,13.2,17.0,74,0.00,,---,0.00,VWS V14.01,2013-03-26 01:01:00,
2013-03-25 20:02:00,24.4,17.4,29.00,NW,315,10.5,10.5,74,0.00,,---,0.00,VWS V14.01,2013-03-26 01:02:00,
2013-03-25 20:03:00,24.4,17.4,29.00,WNW,292,12.5,12.5,74,0.00,,---,0.00,VWS V14.01,2013-03-26 01:03:00,
2013-03-25 20:04:00,24.4,17.4,29.00,NW,315,12.3,12.5,74,0.00,,---,0.00,VWS V14.01,2013-03-26 01:04:00,
2013-03-25 20:05:00,24.4,17.7,29.00,NW,315,12.8,13.2,75,0.00,,---,0.00,VWS V14.01,2013-03-26 01:05:00,
2013-03-25 20:06:00,24.4,17.7,29.00,NNW,338,11.4,18.1,75,0.00,,---,0.00,VWS V14.01,2013-03-26 01:06:00,
2013-03-25 20:07:00,24.4,17.7,29.00,NW,315,12.8,13.2,75,0.00,,---,0.00,VWS V14.01,2013-03-26 01:07:00,
2013-03-25 20:08:00,24.4,17.7,29.00,NNW,338,10.5,13.2,75,0.00,,---,0.00,VWS V14.01,2013-03-26 01:08:00,
2013-03-25 20:09:00,24.3,17.5,29.00,NW,315,13.2,17.2,75,0.00,,---,0.00,VWS V14.01,2013-03-26 01:09:00,
2013-03-25 20:10:00,24.3,17.5,29.00,WNW,292,12.1,13.2,75,0.00,,---,0.00,VWS V14.01,2013-03-26 01:10:00,
2013-03-25 20:11:00,24.3,17.5,29.00,NW,315,7.6,15.4,75,0.00,,---,0.00,VWS V14.01,2013-03-26 01:11:00,
2013-03-25 20:12:00,24.3,17.5,29.00,NW,315,13.6,13.6,75,0.00,,---,0.00,VWS V14.01,2013-03-26 01:12:00,
2013-03-25 20:13:00,24.3,17.5,29.00,NW,315,12.5,13.6,75,0.00,,---,0.00,VWS V14.01,2013-03-26 01:13:00,
2013-03-25 20:14:00,24.3,17.5,29.00,NW,315,8.7,11.9,75,0.00,,---,0.00,VWS V14.01,2013-03-26 01:14:00,
2013-03-25 20:15:00,24.1,17.3,29.00,NW,315,11.0,11.0,75,0.00,,---,0.00,VWS V14.01,2013-03-26 01:15:00,
2013-03-25 20:16:00,24.1,17.3,29.00,NW,315,13.2,13.2,75,0.00,,---,0.00,VWS V14.01,2013-03-26 01:16:00,
2013-03-25 20:17:00,24.1,17.3,29.00,NW,315,13.4,14.3,75,0.00,,---,0.00,VWS V14.01,2013-03-26 01:17:00,
2013-03-25 20:18:00,24.1,17.3,29.00,WNW,292,10.3,14.3,75,0.00,,---,0.00,VWS V14.01,2013-03-26 01:18:00,
2013-03-25 20:19:00,24.1,17.3,29.00,NW,315,14.8,17.5,75,0.00,,---,0.00,VWS V14.01,2013-03-26 01:19:00,
2013-03-25 20:20:00,24.1,17.3,29.00,NW,315,14.8,14.8,75,0.00,,---,0.00,VWS V14.01,2013-03-26 01:20:00,
2013-03-25 20:21:00,23.9,17.1,29.00,NNW,338,8.7,14.8,75,0.00,,---,0.00,VWS V14.01,2013-03-26 01:21:00,
2013-03-25 20:22:00,23.9,17.1,29.00,NNW,338,11.0,12.5,75,0.00,,---,0.00,VWS V14.01,2013-03-26 01:22:00,
2013-03-25 20:23:00,23.9,17.1,29.00,NW,315,12.3,14.5,75,0.00,,---,0.00,VWS V14.01,2013-03-26 01:23:00,
2013-03-25 20:24:00,23.9,17.1,29.00,NW,315,13.9,13.9,75,0.00,,---,0.00,VWS V14.01,2013-03-26 01:24:00,
2013-03-25 20:25:00,23.9,17.1,29.00,NNW,338,7.6,15.4,75,0.00,,---,0.00,VWS V14.01,2013-03-26 01:25:00,
2013-03-25 20:26:00,23.9,17.1,29.00,WNW,292,8.1,13.0,75,0.00,,---,0.00,VWS V14.01,2013-03-26 01:26:00,
2013-03-25 20:27:00,23.7,17.0,29.00,NW,315,13.2,13.2,75,0.00,,---,0.00,VWS V14.01,2013-03-26 01:27:00,
2013-03-25 20:28:00,23.7,17.0,29.00,NNW,338,10.7,15.4,75,0.00,,---,0.00,VWS V14.01,2013-03-26 01:28:00,
2013-03-25 20:29:00,23.7,17.0,29.00,NW,315,10.3,12.8,75,0.00,,---,0.00,VWS V14.01,2013-03-26 01:29:00,
2013-03-25 20:30:00,23.7,17.0,29.00,NW,315,11.0,13.2,75,0.00,,---,0.00,VWS V14.01,2013-03-26 01:30:00,
2013-03-25 20:31:00,23.7,17.0,29.00,NW,315,10.1,12.5,75,0.00,,---,0.00,VWS V14.01,2013-03-26 01:31:00,
2013-03-25 20:32:00,23.7,17.0,29.00,WNW,292,7.8,13.2,75,0.00,,---,0.00,VWS V14.01,2013-03-26 01:32:00,
2013-03-25 20:33:00,23.7,17.0,29.00,NNW,338,13.2,13.2,75,0.00,,---,0.00,VWS V14.01,2013-03-26 01:33:00,
2013-03-25 20:34:00,23.7,16.7,29.00,NNW,338,8.1,14.5,74,0.00,,---,0.00,VWS V14.01,2013-03-26 01:34:00,
2013-03-25 20:35:00,23.7,16.7,29.00,NNW,338,12.5,12.5,74,0.00,,---,0.00,VWS V14.01,2013-03-26 01:35:00,
2013-03-25 20:36:00,23.5,16.5,29.00,NNW,338,13.0,13.0,74,0.00,,---,0.00,VWS V14.01,2013-03-26 01:36:00,
2013-03-25 20:37:00,23.5,16.5,29.00,NW,315,10.7,13.0,74,0.00,,---,0.00,VWS V14.01,2013-03-26 01:37:00,
2013-03-25 20:38:00,23.5,16.8,29.00,NW,315,8.5,13.0,75,0.00,,---,0.00,VWS V14.01,2013-03-26 01:38:00,
2013-03-25 20:39:00,23.5,16.8,29.00,NW,315,7.8,8.5,75,0.00,,---,0.00,VWS V14.01,2013-03-26 01:39:00,
2013-03-25 20:40:00,23.5,16.8,29.00,NNW,338,11.9,12.5,75,0.00,,---,0.00,VWS V14.01,2013-03-26 01:40:00,
2013-03-25 20:41:00,23.5,16.8,29.00,NNW,338,12.5,12.5,75,0.00,,---,0.00,VWS V14.01,2013-03-26 01:41:00,
2013-03-25 20:42:00,23.5,16.8,29.00,NNW,338,13.2,14.3,75,0.00,,---,0.00,VWS V14.01,2013-03-26 01:42:00,
2013-03-25 20:43:00,23.5,16.8,29.00,NW,315,10.3,13.2,75,0.00,,---,0.00,VWS V14.01,2013-03-26 01:43:00,
2013-03-25 20:44:00,23.5,16.5,29.00,NW,315,10.7,15.2,74,0.00,,---,0.00,VWS V14.01,2013-03-26 01:44:00,
2013-03-25 20:45:00,23.5,16.5,29.00,WNW,292,9.8,13.6,74,0.00,,---,0.00,VWS V14.01,2013-03-26 01:45:00,
2013-03-25 20:46:00,23.4,16.3,29.00,NW,315,12.5,13.2,74,0.00,,---,0.00,VWS V14.01,2013-03-26 01:46:00,
2013-03-25 20:47:00,23.4,16.6,29.00,NW,315,10.7,12.5,75,0.00,,---,0.00,VWS V14.01,2013-03-26 01:47:00,
2013-03-25 20:48:00,23.4,16.6,29.00,NW,315,13.6,13.6,75,0.00,,---,0.00,VWS V14.01,2013-03-26 01:48:00,
2013-03-25 20:49:00,23.4,16.6,29.00,WNW,292,8.7,13.6,75,0.00,,---,0.00,VWS V14.01,2013-03-26 01:49:00,
2013-03-25 20:50:00,23.4,16.6,29.00,NW,315,8.1,11.0,75,0.00,,---,0.00,VWS V14.01,2013-03-26 01:50:00,
2013-03-25 20:51:00,23.4,16.3,29.00,WNW,292,14.8,14.8,74,0.00,,---,0.00,VWS V14.01,2013-03-26 01:51:00,
2013-03-25 20:52:00,23.2,16.1,29.00,NW,315,12.8,14.8,74,0.00,,---,0.00,VWS V14.01,2013-03-26 01:52:00,
2013-03-25 20:53:00,23.2,16.1,29.00,NNW,338,11.0,11.0,74,0.00,,---,0.00,VWS V14.01,2013-03-26 01:53:00,
2013-03-25 20:54:00,23.2,16.1,29.00,NNW,338,9.6,15.2,74,0.00,,---,0.00,VWS V14.01,2013-03-26 01:54:00,
2013-03-25 20:55:00,23.2,16.1,29.00,NNW,338,11.0,14.8,74,0.00,,---,0.00,VWS V14.01,2013-03-26 01:55:00,
2013-03-25 20:56:00,23.2,16.1,29.00,NNW,338,10.7,11.0,74,0.00,,---,0.00,VWS V14.01,2013-03-26 01:56:00,
2013-03-25 20:57:00,23.2,16.1,29.00,NW,315,12.5,12.5,74,0.00,,---,0.00,VWS V14.01,2013-03-26 01:57:00,
2013-03-25 20:58:00,23.0,16.3,29.00,NNW,338,12.3,12.3,75,0.00,,---,0.00,VWS V14.01,2013-03-26 01:58:00,
2013-03-25 20:59:00,23.0,16.3,29.00,NNW,338,10.7,12.5,75,0.00,,---,0.00,VWS V14.01,2013-03-26 01:59:00,
2013-03-25 21:00:00,23.0,16.3,29.00,NNW,338,10.1,10.7,75,0.00,,---,0.00,VWS V14.01,2013-03-26 02:00:00,
2013-03-25 21:01:00,23.0,16.3,29.00,NNW,338,10.1,13.9,75,0.00,,---,0.00,VWS V14.01,2013-03-26 02:01:00,
2013-03-25 21:02:00,23.0,16.3,29.00,NW,315,8.1,10.3,75,0.00,,---,0.00,VWS V14.01,2013-03-26 02:02:00,
2013-03-25 21:03:00,23.0,16.3,29.00,NNW,338,12.8,12.8,75,0.00,,---,0.00,VWS V14.01,2013-03-26 02:03:00,
2013-03-25 21:04:00,23.0,16.3,29.00,NNW,338,13.2,15.7,75,0.00,,---,0.00,VWS V14.01,2013-03-26 02:04:00,
2013-03-25 21:05:00,22.8,16.1,29.00,WNW,292,7.6,13.2,75,0.00,,---,0.00,VWS V14.01,2013-03-26 02:05:00,
2013-03-25 21:06:00,22.8,16.1,29.00,NNW,338,10.7,12.3,75,0.00,,---,0.00,VWS V14.01,2013-03-26 02:06:00,
2013-03-25 21:07:00,22.8,16.1,29.00,NNW,338,10.5,10.7,75,0.00,,---,0.00,VWS V14.01,2013-03-26 02:07:00,
2013-03-25 21:08:00,22.8,16.1,29.00,NW,315,9.4,12.5,75,0.00,,---,0.00,VWS V14.01,2013-03-26 02:08:00,
2013-03-25 21:09:00,22.8,16.1,29.00,NNW,338,13.0,15.4,75,0.00,,---,0.00,VWS V14.01,2013-03-26 02:09:00,
2013-03-25 21:10:00,22.8,16.1,29.00,NNW,338,13.6,14.3,75,0.00,,---,0.00,VWS V14.01,2013-03-26 02:10:00,
2013-03-25 21:11:00,22.8,16.1,29.00,NNW,338,10.5,13.6,75,0.00,,---,0.00,VWS V14.01,2013-03-26 02:11:00,
2013-03-25 21:12:00,22.8,16.1,29.00,NNW,338,6.9,13.2,75,0.00,,---,0.00,VWS V14.01,2013-03-26 02:12:00,
2013-03-25 21:13:00,22.8,16.1,29.00,NNW,338,7.6,9.8,75,0.00,,---,0.00,VWS V14.01,2013-03-26 02:13:00,
2013-03-25 21:14:00,22.6,15.9,29.00,NNW,338,12.3,12.3,75,0.00,,---,0.00,VWS V14.01,2013-03-26 02:14:00,
2013-03-25 21:15:00,22.6,15.9,29.00,WNW,292,10.7,13.6,75,0.00,,---,0.00,VWS V14.01,2013-03-26 02:15:00,
2013-03-25 21:16:00,22.6,15.9,29.00,NNW,338,8.5,12.1,75,0.00,,---,0.00,VWS V14.01,2013-03-26 02:16:00,
2013-03-25 21:17:00,22.6,15.9,29.00,NNW,338,12.3,12.3,75,0.00,,---,0.00,VWS V14.01,2013-03-26 02:17:00,
2013-03-25 21:18:00,22.6,15.9,29.00,NNW,338,6.5,14.1,75,0.00,,---,0.00,VWS V14.01,2013-03-26 02:18:00,
2013-03-25 21:19:00,22.6,15.9,29.00,WNW,292,10.3,14.1,75,0.00,,---,0.00,VWS V14.01,2013-03-26 02:19:00,
2013-03-25 21:21:00,22.6,15.9,29.00,NNW,338,6.9,12.5,75,0.00,,---,0.00,VWS V14.01,2013-03-26 02:21:00,
2013-03-25 21:22:00,22.5,15.8,29.00,NNW,338,10.3,11.0,75,0.00,,---,0.00,VWS V14.01,2013-03-26 02:22:00,
2013-03-25 21:23:00,22.5,15.8,29.00,NNW,338,10.7,13.2,75,0.00,,---,0.00,VWS V14.01,2013-03-26 02:23:00,
2013-03-25 21:24:00,22.5,15.8,29.00,NNW,338,9.8,13.2,75,0.00,,---,0.00,VWS V14.01,2013-03-26 02:24:00,
2013-03-25 21:25:00,22.5,15.8,29.00,NW,315,11.0,11.0,75,0.00,,---,0.00,VWS V14.01,2013-03-26 02:25:00,
2013-03-25 21:26:00,22.3,15.6,29.00,NW,315,6.3,11.0,75,0.00,,---,0.00,VWS V14.01,2013-03-26 02:26:00,
2013-03-25 21:27:00,22.3,15.6,29.00,NW,315,12.1,12.3,75,0.00,,---,0.00,VWS V14.01,2013-03-26 02:27:00,
2013-03-25 21:28:00,22.3,15.6,29.00,NNW,338,8.7,9.6,75,0.00,,---,0.00,VWS V14.01,2013-03-26 02:28:00,
2013-03-25 21:29:00,22.3,15.6,29.00,NNW,338,8.5,10.1,75,0.00,,---,0.00,VWS V14.01,2013-03-26 02:29:00,
2013-03-25 21:30:00,22.3,15.6,29.00,NW,315,10.5,10.5,75,0.00,,---,0.00,VWS V14.01,2013-03-26 02:30:00,
2013-03-25 21:31:00,22.3,15.6,29.00,NNW,338,13.4,13.4,75,0.00,,---,0.00,VWS V14.01,2013-03-26 02:31:00,
2013-03-25 21:32:00,22.1,15.4,29.00,NNW,338,8.5,13.4,75,0.00,,---,0.00,VWS V14.01,2013-03-26 02:32:00,
2013-03-25 21:33:00,22.1,15.4,29.00,NW,315,11.4,11.4,75,0.00,,---,0.00,VWS V14.01,2013-03-26 02:33:00,
2013-03-25 21:34:00,22.1,15.4,29.00,NNW,338,7.8,11.4,75,0.00,,---,0.00,VWS V14.01,2013-03-26 02:34:00,
2013-03-25 21:35:00,22.1,15.4,29.00,NW,315,6.5,9.4,75,0.00,,---,0.00,VWS V14.01,2013-03-26 02:35:00,
2013-03-25 21:36:00,22.1,15.4,29.00,NNW,338,8.5,13.4,75,0.00,,---,0.00,VWS V14.01,2013-03-26 02:36:00,
2013-03-25 21:37:00,22.1,15.4,29.00,NNW,338,6.0,13.0,75,0.00,,---,0.00,VWS V14.01,2013-03-26 02:37:00,
2013-03-25 21:38:00,22.1,15.4,29.00,NW,315,7.6,7.6,75,0.00,,---,0.00,VWS V14.01,2013-03-26 02:38:00,
2013-03-25 21:39:00,22.1,15.4,29.00,NW,315,7.2,7.6,75,0.00,,---,0.00,VWS V14.01,2013-03-26 02:39:00,
2013-03-25 21:40:00,22.1,15.4,29.00,NNW,338,7.4,10.5,75,0.00,,---,0.00,VWS V14.01,2013-03-26 02:40:00,
2013-03-25 21:41:00,22.1,15.4,29.00,NNW,338,7.4,12.3,75,0.00,,---,0.00,VWS V14.01,2013-03-26 02:41:00,
2013-03-25 21:42:00,21.9,15.2,29.00,NW,315,10.7,10.7,75,0.00,,---,0.00,VWS V14.01,2013-03-26 02:42:00,
2013-03-25 21:43:00,21.9,15.2,29.00,NW,315,7.4,7.8,75,0.00,,---,0.00,VWS V14.01,2013-03-26 02:43:00,
2013-03-25 21:44:00,21.9,15.2,29.00,WNW,292,7.8,9.0,75,0.00,,---,0.00,VWS V14.01,2013-03-26 02:44:00,
2013-03-25 21:45:00,21.9,15.2,29.00,NW,315,8.7,12.8,75,0.00,,---,0.00,VWS V14.01,2013-03-26 02:45:00,
2013-03-25 21:46:00,21.9,15.2,29.00,North,0,7.4,10.7,75,0.00,,---,0.00,VWS V14.01,2013-03-26 02:46:00,
2013-03-25 21:47:00,21.9,15.2,29.00,NNW,338,6.3,7.4,75,0.00,,---,0.00,VWS V14.01,2013-03-26 02:47:00,
2013-03-25 21:48:00,21.9,15.2,29.00,NNW,338,6.3,8.1,75,0.00,,---,0.00,VWS V14.01,2013-03-26 02:48:00,
2013-03-25 21:49:00,21.9,15.2,29.00,NNW,338,9.8,9.8,75,0.00,,---,0.00,VWS V14.01,2013-03-26 02:49:00,
2013-03-25 21:50:00,21.9,15.2,29.00,NNW,338,8.7,9.8,75,0.00,,---,0.00,VWS V14.01,2013-03-26 02:50:00,
2013-03-25 21:51:00,21.9,15.2,29.00,NW,315,7.4,8.7,75,0.00,,---,0.00,VWS V14.01,2013-03-26 02:51:00,
2013-03-25 21:52:00,21.9,15.2,29.00,NNW,338,8.7,14.3,75,0.00,,---,0.00,VWS V14.01,2013-03-26 02:52:00,
2013-03-25 21:53:00,21.9,15.2,29.00,NNW,338,7.6,7.6,75,0.00,,---,0.00,VWS V14.01,2013-03-26 02:53:00,
2013-03-25 21:54:00,21.9,15.2,29.03,NNW,338,6.3,7.6,75,0.00,,---,0.00,VWS V14.01,2013-03-26 02:54:00,
2013-03-25 21:55:00,21.9,15.2,29.03,NNW,338,7.8,8.7,75,0.00,,---,0.00,VWS V14.01,2013-03-26 02:55:00,
2013-03-25 21:56:00,21.9,15.2,29.03,North,0,8.5,10.1,75,0.00,,---,0.00,VWS V14.01,2013-03-26 02:56:00,
2013-03-25 21:57:00,21.9,15.2,29.03,NW,315,10.3,10.3,75,0.00,,---,0.00,VWS V14.01,2013-03-26 02:57:00,
2013-03-25 21:58:00,21.7,15.1,29.03,North,0,7.8,7.8,75,0.00,,---,0.00,VWS V14.01,2013-03-26 02:58:00,
2013-03-25 21:59:00,21.7,15.1,29.03,NNW,338,8.5,8.5,75,0.00,,---,0.00,VWS V14.01,2013-03-26 02:59:00,
2013-03-25 22:00:00,21.7,15.1,29.03,NW,315,6.3,8.5,75,0.00,,---,0.00,VWS V14.01,2013-03-26 03:00:00,
2013-03-25 22:01:00,21.7,14.7,29.03,WNW,292,4.3,6.3,74,0.00,,---,0.00,VWS V14.01,2013-03-26 03:01:00,
2013-03-25 22:02:00,21.7,14.7,29.03,NNW,338,6.5,10.5,74,0.00,,---,0.00,VWS V14.01,2013-03-26 03:02:00,
2013-03-25 22:03:00,21.6,14.9,29.03,NNE,22,7.4,10.3,75,0.00,,---,0.00,VWS V14.01,2013-03-26 03:03:00,
2013-03-25 22:04:00,21.6,14.9,29.03,NNW,338,6.0,10.3,75,0.00,,---,0.00,VWS V14.01,2013-03-26 03:04:00,
2013-03-25 22:05:00,21.6,14.6,29.03,NNE,22,6.0,10.3,74,0.00,,---,0.00,VWS V14.01,2013-03-26 03:05:00,
2013-03-25 22:06:00,21.6,14.6,29.03,NNW,338,5.6,9.8,74,0.00,,---,0.00,VWS V14.01,2013-03-26 03:06:00,
2013-03-25 22:07:00,21.6,14.6,29.03,NNW,338,7.8,8.5,74,0.00,,---,0.00,VWS V14.01,2013-03-26 03:07:00,
2013-03-25 22:08:00,21.6,14.6,29.03,NNW,338,10.3,10.3,74,0.00,,---,0.00,VWS V14.01,2013-03-26 03:08:00,
2013-03-25 22:09:00,21.6,14.6,29.03,NW,315,4.3,10.3,74,0.00,,---,0.00,VWS V14.01,2013-03-26 03:09:00,
2013-03-25 22:10:00,21.6,14.6,29.03,NNW,338,5.8,7.8,74,0.00,,---,0.00,VWS V14.01,2013-03-26 03:10:00,
2013-03-25 22:12:00,21.6,14.6,29.03,NNW,338,4.3,7.8,74,0.00,,---,0.00,VWS V14.01,2013-03-26 03:12:00,
2013-03-25 22:13:00,21.4,14.4,29.03,NNW,338,8.5,9.2,74,0.00,,---,0.00,VWS V14.01,2013-03-26 03:13:00,
2013-03-25 22:14:00,21.4,14.4,29.03,NW,315,4.3,9.2,74,0.00,,---,0.00,VWS V14.01,2013-03-26 03:14:00,
2013-03-25 22:15:00,21.4,14.4,29.03,NNW,338,5.8,5.8,74,0.00,,---,0.00,VWS V14.01,2013-03-26 03:15:00,
2013-03-25 22:16:00,21.4,14.4,29.03,NNW,338,7.6,10.3,74,0.00,,---,0.00,VWS V14.01,2013-03-26 03:16:00,
2013-03-25 22:17:00,21.4,14.4,29.03,NNW,338,8.1,8.5,74,0.00,,---,0.00,VWS V14.01,2013-03-26 03:17:00,
2013-03-25 22:18:00,21.4,14.4,29.03,NNW,338,4.9,8.1,74,0.00,,---,0.00,VWS V14.01,2013-03-26 03:18:00,
2013-03-25 22:19:00,21.4,14.4,29.03,NNW,338,6.5,8.1,74,0.00,,---,0.00,VWS V14.01,2013-03-26 03:19:00,
2013-03-25 22:20:00,21.2,14.5,29.03,NW,315,9.6,9.6,75,0.00,,---,0.00,VWS V14.01,2013-03-26 03:20:00,
2013-03-25 22:21:00,21.2,14.5,29.03,NNW,338,10.1,10.5,75,0.00,,---,0.00,VWS V14.01,2013-03-26 03:21:00,
2013-03-25 22:22:00,21.2,14.5,29.03,NNW,338,4.9,10.1,75,0.00,,---,0.00,VWS V14.01,2013-03-26 03:22:00,
2013-03-25 22:23:00,21.2,14.5,29.03,NNW,338,8.1,9.4,75,0.00,,---,0.00,VWS V14.01,2013-03-26 03:23:00,
2013-03-25 22:24:00,21.2,14.5,29.03,North,0,6.0,9.4,75,0.00,,---,0.00,VWS V14.01,2013-03-26 03:24:00,
2013-03-25 22:25:00,21.2,14.5,29.03,North,0,6.0,6.0,75,0.00,,---,0.00,VWS V14.01,2013-03-26 03:25:00,
2013-03-25 22:26:00,21.2,14.5,29.03,North,0,6.3,8.5,75,0.00,,---,0.00,VWS V14.01,2013-03-26 03:26:00,
2013-03-25 22:27:00,21.2,14.5,29.03,North,0,4.9,9.6,75,0.00,,---,0.00,VWS V14.01,2013-03-26 03:27:00,
2013-03-25 22:28:00,21.2,14.5,29.03,NNE,22,3.8,6.0,75,0.00,,---,0.00,VWS V14.01,2013-03-26 03:28:00,
2013-03-25 22:29:00,21.2,14.5,29.03,NNW,338,7.8,7.8,75,0.00,,---,0.00,VWS V14.01,2013-03-26 03:29:00,
2013-03-25 22:30:00,21.0,14.4,29.03,NNW,338,4.3,7.8,75,0.00,,---,0.00,VWS V14.01,2013-03-26 03:30:00,
2013-03-25 22:31:00,21.0,14.4,29.03,NNW,338,5.8,7.2,75,0.00,,---,0.00,VWS V14.01,2013-03-26 03:31:00,
2013-03-25 22:32:00,21.0,14.4,29.03,NW,315,7.4,7.4,75,0.00,,---,0.00,VWS V14.01,2013-03-26 03:32:00,
2013-03-25 22:33:00,21.0,14.4,29.03,NNW,338,7.6,7.6,75,0.00,,---,0.00,VWS V14.01,2013-03-26 03:33:00,
2013-03-25 22:34:00,21.0,14.4,29.03,NNW,338,4.3,7.6,75,0.00,,---,0.00,VWS V14.01,2013-03-26 03:34:00,
2013-03-25 22:35:00,21.0,14.4,29.03,NNW,338,4.9,7.6,75,0.00,,---,0.00,VWS V14.01,2013-03-26 03:35:00,
2013-03-25 22:36:00,20.8,14.2,29.03,NNE,22,5.6,5.8,75,0.00,,---,0.00,VWS V14.01,2013-03-26 03:36:00,
2013-03-25 22:37:00,20.8,14.2,29.03,NW,315,5.4,5.6,75,0.00,,---,0.00,VWS V14.01,2013-03-26 03:37:00,
2013-03-25 22:38:00,20.8,14.2,29.03,NNW,338,4.3,9.4,75,0.00,,---,0.00,VWS V14.01,2013-03-26 03:38:00,
2013-03-25 22:39:00,20.8,14.2,29.03,NNW,338,5.8,8.1,75,0.00,,---,0.00,VWS V14.01,2013-03-26 03:39:00,
2013-03-25 22:40:00,20.8,14.2,29.03,NW,315,5.6,8.1,75,0.00,,---,0.00,VWS V14.01,2013-03-26 03:40:00,
2013-03-25 22:41:00,20.8,14.2,29.03,NNW,338,5.4,5.6,75,0.00,,---,0.00,VWS V14.01,2013-03-26 03:41:00,
2013-03-25 22:42:00,20.8,14.2,29.03,NNW,338,4.7,5.4,75,0.00,,---,0.00,VWS V14.01,2013-03-26 03:42:00,
2013-03-25 22:43:00,20.7,14.0,29.03,NNW,338,4.7,7.6,75,0.00,,---,0.00,VWS V14.01,2013-03-26 03:43:00,
2013-03-25 22:44:00,20.7,14.0,29.03,NNW,338,5.6,5.6,75,0.00,,---,0.00,VWS V14.01,2013-03-26 03:44:00,
2013-03-25 22:45:00,20.7,14.0,29.03,NNW,338,2.9,5.6,75,0.00,,---,0.00,VWS V14.01,2013-03-26 03:45:00,
2013-03-25 22:46:00,20.7,14.0,29.03,NNW,338,2.2,3.8,75,0.00,,---,0.00,VWS V14.01,2013-03-26 03:46:00,
2013-03-25 22:47:00,20.7,14.0,29.03,NNW,338,7.4,7.4,75,0.00,,---,0.00,VWS V14.01,2013-03-26 03:47:00,
2013-03-25 22:48:00,20.7,14.0,29.03,NNW,338,3.1,7.4,75,0.00,,---,0.00,VWS V14.01,2013-03-26 03:48:00,
2013-03-25 22:49:00,20.5,13.5,29.03,NNE,22,3.1,4.9,74,0.00,,---,0.00,VWS V14.01,2013-03-26 03:49:00,
2013-03-25 22:50:00,20.5,13.5,29.03,North,0,2.5,4.9,74,0.00,,---,0.00,VWS V14.01,2013-03-26 03:50:00,
2013-03-25 22:51:00,20.5,13.5,29.03,NNW,338,3.8,3.8,74,0.00,,---,0.00,VWS V14.01,2013-03-26 03:51:00,
2013-03-25 22:52:00,20.3,13.4,29.03,NNW,338,4.0,4.0,74,0.00,,---,0.00,VWS V14.01,2013-03-26 03:52:00,
2013-03-25 22:53:00,20.3,13.4,29.03,NW,315,2.7,4.0,74,0.00,,---,0.00,VWS V14.01,2013-03-26 03:53:00,
2013-03-25 22:54:00,20.3,13.4,29.03,NNW,338,3.1,3.1,74,0.00,,---,0.00,VWS V14.01,2013-03-26 03:54:00,
2013-03-25 22:55:00,20.3,13.4,29.03,WNW,292,3.8,3.8,74,0.00,,---,0.00,VWS V14.01,2013-03-26 03:55:00,
2013-03-25 22:56:00,20.3,13.4,29.03,NNW,338,2.9,3.8,74,0.00,,---,0.00,VWS V14.01,2013-03-26 03:56:00,
2013-03-25 22:57:00,20.3,13.4,29.03,NNW,338,3.8,3.8,74,0.00,,---,0.00,VWS V14.01,2013-03-26 03:57:00,
2013-03-25 22:58:00,20.3,13.4,29.03,NW,315,3.4,3.8,74,0.00,,---,0.00,VWS V14.01,2013-03-26 03:58:00,
2013-03-25 22:59:00,20.1,13.2,29.03,NNW,338,1.6,2.0,74,0.00,,---,0.00,VWS V14.01,2013-03-26 03:59:00,
2013-03-25 23:00:00,20.1,13.2,29.03,NW,315,2.9,2.9,74,0.00,,---,0.00,VWS V14.01,2013-03-26 04:00:00,
2013-03-25 23:01:00,20.1,13.2,29.03,WNW,292,3.1,3.8,74,0.00,,---,0.00,VWS V14.01,2013-03-26 04:01:00,
2013-03-25 23:02:00,20.1,13.2,29.03,WNW,292,0.0,3.1,74,0.00,,---,0.00,VWS V14.01,2013-03-26 04:02:00,
2013-03-25 23:03:00,19.9,13.0,29.03,WNW,292,2.5,2.5,74,0.00,,---,0.00,VWS V14.01,2013-03-26 04:03:00,
2013-03-25 23:04:00,19.9,13.0,29.03,WSW,248,2.0,2.9,74,0.00,,---,0.00,VWS V14.01,2013-03-26 04:04:00,
2013-03-25 23:05:00,19.9,12.7,29.03,WNW,292,2.5,2.5,73,0.00,,---,0.00,VWS V14.01,2013-03-26 04:05:00,
2013-03-25 23:06:00,19.8,12.5,29.03,WNW,292,2.9,2.9,73,0.00,,---,0.00,VWS V14.01,2013-03-26 04:06:00,
2013-03-25 23:07:00,19.8,12.5,29.03,West,270,1.6,2.9,73,0.00,,---,0.00,VWS V14.01,2013-03-26 04:07:00,
2013-03-25 23:08:00,19.8,12.8,29.03,West,270,1.6,1.6,74,0.00,,---,0.00,VWS V14.01,2013-03-26 04:08:00,
2013-03-25 23:09:00,19.8,12.8,29.03,WNW,292,1.6,3.4,74,0.00,,---,0.00,VWS V14.01,2013-03-26 04:09:00,
2013-03-25 23:10:00,19.8,12.8,29.03,WNW,292,2.0,2.7,74,0.00,,---,0.00,VWS V14.01,2013-03-26 04:10:00,
2013-03-25 23:11:00,19.8,12.8,29.03,WNW,292,2.2,2.7,74,0.00,,---,0.00,VWS V14.01,2013-03-26 04:11:00,
2013-03-25 23:12:00,19.8,12.8,29.03,WSW,248,2.5,2.5,74,0.00,,---,0.00,VWS V14.01,2013-03-26 04:12:00,
2013-03-25 23:13:00,19.6,12.6,29.03,WNW,292,2.2,3.6,74,0.00,,---,0.00,VWS V14.01,2013-03-26 04:13:00,
2013-03-25 23:14:00,19.6,12.6,29.03,WNW,292,2.5,2.5,74,0.00,,---,0.00,VWS V14.01,2013-03-26 04:14:00,
2013-03-25 23:15:00,19.6,12.6,29.03,WNW,292,2.5,3.6,74,0.00,,---,0.00,VWS V14.01,2013-03-26 04:15:00,
2013-03-25 23:16:00,19.6,12.6,29.03,WNW,292,1.1,3.6,74,0.00,,---,0.00,VWS V14.01,2013-03-26 04:16:00,
2013-03-25 23:17:00,19.6,12.6,29.03,West,270,2.5,2.7,74,0.00,,---,0.00,VWS V14.01,2013-03-26 04:17:00,
2013-03-25 23:18:00,19.6,12.6,29.03,WNW,292,1.6,2.7,74,0.00,,---,0.00,VWS V14.01,2013-03-26 04:18:00,
2013-03-25 23:19:00,19.4,12.5,29.03,WSW,248,2.0,2.7,74,0.00,,---,0.00,VWS V14.01,2013-03-26 04:19:00,
2013-03-25 23:20:00,19.4,12.5,29.03,WSW,248,3.6,3.6,74,0.00,,---,0.00,VWS V14.01,2013-03-26 04:20:00,
2013-03-25 23:21:00,19.4,12.5,29.03,WNW,292,2.9,3.6,74,0.00,,---,0.00,VWS V14.01,2013-03-26 04:21:00,
2013-03-25 23:22:00,19.4,12.5,29.03,NW,315,2.7,3.8,74,0.00,,---,0.00,VWS V14.01,2013-03-26 04:22:00,
2013-03-25 23:23:00,19.4,12.5,29.03,NW,315,2.7,3.8,74,0.00,,---,0.00,VWS V14.01,2013-03-26 04:23:00,
2013-03-25 23:24:00,19.2,12.3,29.03,WNW,292,3.6,3.6,74,0.00,,---,0.00,VWS V14.01,2013-03-26 04:24:00,
2013-03-25 23:25:00,19.2,12.3,29.03,WNW,292,2.2,3.1,74,0.00,,---,0.00,VWS V14.01,2013-03-26 04:25:00,
2013-03-25 23:27:00,19.2,12.3,29.03,NNW,338,4.3,4.3,74,0.00,,---,0.00,VWS V14.01,2013-03-26 04:27:00,
2013-03-25 23:28:00,19.0,12.1,29.03,WNW,292,3.4,4.3,74,0.00,,---,0.00,VWS V14.01,2013-03-26 04:28:00,
2013-03-25 23:29:00,19.0,12.1,29.03,NW,315,3.8,4.3,74,0.00,,---,0.00,VWS V14.01,2013-03-26 04:29:00,
2013-03-25 23:30:00,19.0,12.1,29.03,NNW,338,3.8,4.0,74,0.00,,---,0.00,VWS V14.01,2013-03-26 04:30:00,
2013-03-25 23:31:00,19.0,12.1,29.03,NW,315,3.8,4.0,74,0.00,,---,0.00,VWS V14.01,2013-03-26 04:31:00,
2013-03-25 23:32:00,19.0,12.1,29.03,NW,315,4.9,4.9,74,0.00,,---,0.00,VWS V14.01,2013-03-26 04:32:00,
2013-03-25 23:33:00,19.0,12.1,29.03,WNW,292,4.3,4.9,74,0.00,,---,0.00,VWS V14.01,2013-03-26 04:33:00,
2013-03-25 23:34:00,19.0,12.1,29.03,WNW,292,5.6,5.6,74,0.00,,---,0.00,VWS V14.01,2013-03-26 04:34:00,
2013-03-25 23:35:00,19.0,12.4,29.03,WNW,292,4.3,5.4,75,0.00,,---,0.00,VWS V14.01,2013-03-26 04:35:00,
2013-03-25 23:36:00,19.0,12.4,29.03,NNW,338,7.4,7.4,75,0.00,,---,0.00,VWS V14.01,2013-03-26 04:36:00,
2013-03-25 23:37:00,19.0,12.4,29.03,NNW,338,4.0,7.4,75,0.00,,---,0.00,VWS V14.01,2013-03-26 04:37:00,
2013-03-25 23:38:00,19.2,12.6,29.03,NW,315,4.9,6.0,75,0.00,,---,0.00,VWS V14.01,2013-03-26 04:38:00,
2013-03-25 23:39:00,19.2,12.6,29.03,NW,315,3.8,4.9,75,0.00,,---,0.00,VWS V14.01,2013-03-26 04:39:00,
2013-03-25 23:40:00,19.2,12.6,29.03,NNW,338,5.6,5.6,75,0.00,,---,0.00,VWS V14.01,2013-03-26 04:40:00,
2013-03-25 23:41:00,19.0,12.4,29.03,WNW,292,4.7,5.6,75,0.00,,---,0.00,VWS V14.01,2013-03-26 04:41:00,
2013-03-25 23:42:00,19.0,12.4,29.03,NNW,338,3.6,5.8,75,0.00,,---,0.00,VWS V14.01,2013-03-26 04:42:00,
2013-03-25 23:43:00,19.0,12.4,29.03,NNW,338,6.0,6.0,75,0.00,,---,0.00,VWS V14.01,2013-03-26 04:43:00,
2013-03-25 23:44:00,18.9,12.3,29.03,NNW,338,3.4,6.0,75,0.00,,---,0.00,VWS V14.01,2013-03-26 04:44:00,
2013-03-25 23:45:00,18.9,12.3,29.03,NNW,338,5.4,5.6,75,0.00,,---,0.00,VWS V14.01,2013-03-26 04:45:00,
2013-03-25 23:46:00,18.7,12.1,29.03,NW,315,6.9,6.9,75,0.00,,---,0.00,VWS V14.01,2013-03-26 04:46:00,
2013-03-25 23:47:00,18.7,12.1,29.03,WNW,292,7.6,7.6,75,0.00,,---,0.00,VWS V14.01,2013-03-26 04:47:00,
2013-03-25 23:48:00,18.7,12.1,29.03,NNW,338,3.4,7.6,75,0.00,,---,0.00,VWS V14.01,2013-03-26 04:48:00,
2013-03-25 23:49:00,18.7,12.1,29.03,NNW,338,4.3,5.4,75,0.00,,---,0.00,VWS V14.01,2013-03-26 04:49:00,
2013-03-25 23:50:00,18.7,12.1,29.03,NNW,338,4.3,4.3,75,0.00,,---,0.00,VWS V14.01,2013-03-26 04:50:00,
2013-03-25 23:51:00,18.7,12.4,29.03,NNW,338,4.0,4.7,76,0.00,,---,0.00,VWS V14.01,2013-03-26 04:51:00,
2013-03-25 23:52:00,18.7,12.4,29.03,NNW,338,3.6,4.0,76,0.00,,---,0.00,VWS V14.01,2013-03-26 04:52:00,
2013-03-25 23:53:00,18.7,12.4,29.03,NW,315,4.0,5.8,76,0.00,,---,0.00,VWS V14.01,2013-03-26 04:53:00,
2013-03-25 23:54:00,18.7,12.4,29.03,NNW,338,5.4,5.4,76,0.00,,---,0.00,VWS V14.01,2013-03-26 04:54:00,
2013-03-25 23:55:00,18.7,12.4,29.03,NW,315,4.0,7.6,76,0.00,,---,0.00,VWS V14.01,2013-03-26 04:55:00,
2013-03-25 23:56:00,18.5,12.2,29.03,NNW,338,5.4,7.6,76,0.00,,---,0.00,VWS V14.01,2013-03-26 04:56:00,
2013-03-25 23:57:00,18.5,12.2,29.03,North,0,4.0,6.5,76,0.00,,---,0.00,VWS V14.01,2013-03-26 04:57:00,
2013-03-25 23:58:00,18.7,12.4,29.03,NNW,338,3.4,4.0,76,0.00,,---,0.00,VWS V14.01,2013-03-26 04:58:00,
2013-03-25 23:59:00,18.7,12.4,29.03,NNW,338,6.5,6.5,76,0.00,,---,0.00,VWS V14.01,2013-03-26 04:59:00,